<?xml version="1.0" encoding="UTF-8" standalone="no" ?>
<gpx xmlns="http://www.topografix.com/GPX/1/1" xmlns:xsi="http://www.w3.org/2001/XMLSchema-instance" xsi:schemaLocation="http://www.topografix.com/GPX/1/1 http://www.topografix.com/GPX/1/1/gpx.xsd" version="1.1" creator="VisuGPX - https://www.visugpx.com">
  <metadata>
    <name>Orchamp Vennes Ascap 4 traces</name>
    <desc><![CDATA[Les 4 traces pour la reco Orchamp vennes; ]]></desc>
  </metadata>
  <trk>
    <name><![CDATA[Orchamp Vennes (Reverot)]]></name>
    <extensions>
      <line xmlns="http://www.topografix.com/GPX/gpx_style/0/2">
        <color>ff00dd</color>
        <width>4</width>
      </line>
    </extensions>
    <trkseg>
      <trkpt lat="47.12957" lon="6.52546">
        <ele>755.266925</ele>
        <time>2023-01-15T16:47:08.992Z</time>
        <extensions>
          <visugpx:TrkExtension xmlns:visugpx="https://www.visugpx.com/editgpx/">
            <visugpx:node>1</visugpx:node>
            </visugpx:TrkExtension>
        </extensions>
      </trkpt>
      <trkpt lat="47.12979" lon="6.52521">
        <ele>755.266925</ele>
        <time>2023-01-15T16:47:15.192Z</time>
      </trkpt>
      <trkpt lat="47.12997" lon="6.52533">
        <ele>755.266925</ele>
        <time>2023-01-15T16:47:19.733Z</time>
      </trkpt>
      <trkpt lat="47.13" lon="6.52535">
        <ele>755.266925</ele>
        <time>2023-01-15T16:47:20.301Z</time>
      </trkpt>
      <trkpt lat="47.13021" lon="6.52551">
        <ele>755.266925</ele>
        <time>2023-01-15T16:47:25.631Z</time>
      </trkpt>
      <trkpt lat="47.1303" lon="6.52556">
        <ele>755.266925</ele>
        <time>2023-01-15T16:47:27.728Z</time>
      </trkpt>
      <trkpt lat="47.13042" lon="6.52526">
        <ele>755.885915</ele>
        <time>2023-01-15T16:47:33.329Z</time>
      </trkpt>
      <trkpt lat="47.13054" lon="6.52509">
        <ele>756.491135</ele>
        <time>2023-01-15T16:47:37.506Z</time>
      </trkpt>
      <trkpt lat="47.13061" lon="6.52502">
        <ele>756.775633</ele>
        <time>2023-01-15T16:47:39.437Z</time>
      </trkpt>
      <trkpt lat="47.13092" lon="6.52486">
        <ele>757.957992</ele>
        <time>2023-01-15T16:47:47.945Z</time>
      </trkpt>
      <trkpt lat="47.13116" lon="6.52478">
        <ele>758.831167</ele>
        <time>2023-01-15T16:47:54.611Z</time>
      </trkpt>
      <trkpt lat="47.13137" lon="6.52454">
        <ele>759.770894</ele>
        <time>2023-01-15T16:48:01.488Z</time>
      </trkpt>
      <trkpt lat="47.13149" lon="6.52438">
        <ele>760.351615</ele>
        <time>2023-01-15T16:48:05.521Z</time>
      </trkpt>
      <trkpt lat="47.13162" lon="6.52431">
        <ele>760.832426</ele>
        <time>2023-01-15T16:48:09.228Z</time>
      </trkpt>
      <trkpt lat="47.13185" lon="6.52423">
        <ele>761.690244</ele>
        <time>2023-01-15T16:48:15.407Z</time>
      </trkpt>
      <trkpt lat="47.13188" lon="6.52421">
        <ele>761.965883</ele>
        <time>2023-01-15T16:48:16.520Z</time>
      </trkpt>
      <trkpt lat="47.13201" lon="6.52416">
        <ele>762.852989</ele>
        <time>2023-01-15T16:48:20.189Z</time>
      </trkpt>
      <trkpt lat="47.13212" lon="6.52411">
        <ele>763.689251</ele>
        <time>2023-01-15T16:48:23.728Z</time>
      </trkpt>
      <trkpt lat="47.13219" lon="6.52408">
        <ele>764.154884</ele>
        <time>2023-01-15T16:48:25.518Z</time>
      </trkpt>
      <trkpt lat="47.1324" lon="6.52399">
        <ele>765.705726</ele>
        <time>2023-01-15T16:48:32.501Z</time>
      </trkpt>
      <trkpt lat="47.13267" lon="6.524">
        <ele>767.623731</ele>
        <time>2023-01-15T16:48:41.327Z</time>
      </trkpt>
      <trkpt lat="47.13287" lon="6.52408">
        <ele>769.023338</ele>
        <time>2023-01-15T16:48:48.755Z</time>
      </trkpt>
      <trkpt lat="47.13316" lon="6.52428">
        <ele>771.255061</ele>
        <time>2023-01-15T16:49:00.515Z</time>
      </trkpt>
      <trkpt lat="47.13332" lon="6.524">
        <ele>773.011634</ele>
        <time>2023-01-15T16:49:08.914Z</time>
      </trkpt>
      <trkpt lat="47.13333" lon="6.52391">
        <ele>773.423615</ele>
        <time>2023-01-15T16:49:11.296Z</time>
      </trkpt>
      <trkpt lat="47.13359" lon="6.52398">
        <ele>775.525254</ele>
        <time>2023-01-15T16:49:20.716Z</time>
      </trkpt>
      <trkpt lat="47.13389" lon="6.52401">
        <ele>778.070178</ele>
        <time>2023-01-15T16:49:31.286Z</time>
      </trkpt>
      <trkpt lat="47.13393" lon="6.52372">
        <ele>779.826247</ele>
        <time>2023-01-15T16:49:39.568Z</time>
      </trkpt>
      <trkpt lat="47.13403" lon="6.52344">
        <ele>781.635924</ele>
        <time>2023-01-15T16:49:47.341Z</time>
      </trkpt>
      <trkpt lat="47.1342" lon="6.52269">
        <ele>786.336872</ele>
        <time>2023-01-15T16:50:08.402Z</time>
      </trkpt>
      <trkpt lat="47.1342" lon="6.52243">
        <ele>787.841056</ele>
        <time>2023-01-15T16:50:14.998Z</time>
      </trkpt>
      <trkpt lat="47.13413" lon="6.52187">
        <ele>790.961005</ele>
        <time>2023-01-15T16:50:28.800Z</time>
      </trkpt>
      <trkpt lat="47.13408" lon="6.52172">
        <ele>791.763803</ele>
        <time>2023-01-15T16:50:32.703Z</time>
      </trkpt>
      <trkpt lat="47.13402" lon="6.52152">
        <ele>792.835325</ele>
        <time>2023-01-15T16:50:37.291Z</time>
      </trkpt>
      <trkpt lat="47.1338" lon="6.52129">
        <ele>794.804896</ele>
        <time>2023-01-15T16:50:45.558Z</time>
      </trkpt>
      <trkpt lat="47.13338" lon="6.52087">
        <ele>798.488071</ele>
        <time>2023-01-15T16:51:02.709Z</time>
      </trkpt>
      <trkpt lat="47.13316" lon="6.52055">
        <ele>800.704758</ele>
        <time>2023-01-15T16:51:13.013Z</time>
      </trkpt>
      <trkpt lat="47.13299" lon="6.52026">
        <ele>802.514178</ele>
        <time>2023-01-15T16:51:21.261Z</time>
      </trkpt>
      <trkpt lat="47.1329" lon="6.52005">
        <ele>803.925992</ele>
        <time>2023-01-15T16:51:26.704Z</time>
      </trkpt>
      <trkpt lat="47.13281" lon="6.51976">
        <ele>805.716502</ele>
        <time>2023-01-15T16:51:33.864Z</time>
      </trkpt>
      <trkpt lat="47.13278" lon="6.51926">
        <ele>808.579542</ele>
        <time>2023-01-15T16:51:45.487Z</time>
      </trkpt>
      <trkpt lat="47.13278" lon="6.51913">
        <ele>809.281632</ele>
        <time>2023-01-15T16:51:48.386Z</time>
      </trkpt>
      <trkpt lat="47.13275" lon="6.51785">
        <ele>816.581381</ele>
        <time>2023-01-15T16:52:21.072Z</time>
      </trkpt>
      <trkpt lat="47.13233" lon="6.51528">
        <ele>834.146923</ele>
        <time>2023-01-15T16:53:34.497Z</time>
      </trkpt>
      <trkpt lat="47.13221" lon="6.51404">
        <ele>842.16892</ele>
        <time>2023-01-15T16:54:07.482Z</time>
      </trkpt>
      <trkpt lat="47.1322" lon="6.51365">
        <ele>844.636103</ele>
        <time>2023-01-15T16:54:17.607Z</time>
      </trkpt>
      <trkpt lat="47.13245" lon="6.51359">
        <ele>847.009711</ele>
        <time>2023-01-15T16:54:27.409Z</time>
      </trkpt>
      <trkpt lat="47.13255" lon="6.51371">
        <ele>848.233621</ele>
        <time>2023-01-15T16:54:31.994Z</time>
      </trkpt>
      <trkpt lat="47.13289" lon="6.51434">
        <ele>853.496607</ele>
        <time>2023-01-15T16:54:52.095Z</time>
      </trkpt>
      <trkpt lat="47.13367" lon="6.51546">
        <ele>865.599474</ele>
        <time>2023-01-15T16:55:38.791Z</time>
      </trkpt>
      <trkpt lat="47.13412" lon="6.51582">
        <ele>871.380901</ele>
        <time>2023-01-15T16:56:03.400Z</time>
      </trkpt>
      <trkpt lat="47.1345" lon="6.51616">
        <ele>877.274811</ele>
        <time>2023-01-15T16:56:23.938Z</time>
      </trkpt>
      <trkpt lat="47.13468" lon="6.51646">
        <ele>881.169404</ele>
        <time>2023-01-15T16:56:39.329Z</time>
      </trkpt>
      <trkpt lat="47.13475" lon="6.51645">
        <ele>882.183632</ele>
        <time>2023-01-15T16:56:43.260Z</time>
      </trkpt>
      <trkpt lat="47.13489" lon="6.5162">
        <ele>885.132015</ele>
        <time>2023-01-15T16:56:55.566Z</time>
      </trkpt>
      <trkpt lat="47.13493" lon="6.51579">
        <ele>889.116455</ele>
        <time>2023-01-15T16:57:12.820Z</time>
      </trkpt>
      <trkpt lat="47.13486" lon="6.5154">
        <ele>892.907355</ele>
        <time>2023-01-15T16:57:29.577Z</time>
      </trkpt>
      <trkpt lat="47.13492" lon="6.51469">
        <ele>899.668453</ele>
        <time>2023-01-15T16:57:59.233Z</time>
      </trkpt>
      <trkpt lat="47.13506" lon="6.51371">
        <ele>909.350351</ele>
        <time>2023-01-15T16:58:39.513Z</time>
      </trkpt>
      <trkpt lat="47.1352" lon="6.51305">
        <ele>915.986291</ele>
        <time>2023-01-15T16:59:06.694Z</time>
      </trkpt>
      <trkpt lat="47.13539" lon="6.5119">
        <ele>925.784157</ele>
        <time>2023-01-15T16:59:52.548Z</time>
      </trkpt>
      <trkpt lat="47.13543" lon="6.51167">
        <ele>927.277898</ele>
        <time>2023-01-15T17:00:01.516Z</time>
      </trkpt>
      <trkpt lat="47.13551" lon="6.51146">
        <ele>928.831723</ele>
        <time>2023-01-15T17:00:09.092Z</time>
      </trkpt>
      <trkpt lat="47.13556" lon="6.51112">
        <ele>930.97599</ele>
        <time>2023-01-15T17:00:20.280Z</time>
      </trkpt>
      <trkpt lat="47.13564" lon="6.5109">
        <ele>932.612053</ele>
        <time>2023-01-15T17:00:28.053Z</time>
      </trkpt>
      <trkpt lat="47.13613" lon="6.5103">
        <ele>938.471846</ele>
        <time>2023-01-15T17:00:54.661Z</time>
      </trkpt>
      <trkpt lat="47.13638" lon="6.51011">
        <ele>939.278409</ele>
        <time>2023-01-15T17:01:04.362Z</time>
      </trkpt>
      <trkpt lat="47.13665" lon="6.51">
        <ele>939.074619</ele>
        <time>2023-01-15T17:01:12.907Z</time>
      </trkpt>
      <trkpt lat="47.1374" lon="6.50962">
        <ele>938.511164</ele>
        <time>2023-01-15T17:01:35.447Z</time>
      </trkpt>
      <trkpt lat="47.13806" lon="6.50912">
        <ele>936.715001</ele>
        <time>2023-01-15T17:01:54.349Z</time>
      </trkpt>
      <trkpt lat="47.13808" lon="6.50892">
        <ele>935.773608</ele>
        <time>2023-01-15T17:01:57.587Z</time>
      </trkpt>
      <trkpt lat="47.13802" lon="6.50864">
        <ele>934.415109</ele>
        <time>2023-01-15T17:02:02.327Z</time>
      </trkpt>
      <trkpt lat="47.13796" lon="6.5086">
        <ele>933.932843</ele>
        <time>2023-01-15T17:02:03.879Z</time>
      </trkpt>
      <trkpt lat="47.13787" lon="6.50862">
        <ele>933.310785</ele>
        <time>2023-01-15T17:02:05.941Z</time>
      </trkpt>
      <trkpt lat="47.13779" lon="6.50838">
        <ele>932.0769</ele>
        <time>2023-01-15T17:02:10.041Z</time>
      </trkpt>
      <trkpt lat="47.1378" lon="6.50782">
        <ele>929.466525</ele>
        <time>2023-01-15T17:02:18.391Z</time>
      </trkpt>
      <trkpt lat="47.13776" lon="6.5076">
        <ele>928.429349</ele>
        <time>2023-01-15T17:02:21.736Z</time>
      </trkpt>
      <trkpt lat="47.13778" lon="6.50729">
        <ele>926.967474</ele>
        <time>2023-01-15T17:02:26.544Z</time>
      </trkpt>
      <trkpt lat="47.13776" lon="6.50709">
        <ele>926.038148</ele>
        <time>2023-01-15T17:02:29.598Z</time>
      </trkpt>
      <trkpt lat="47.13776" lon="6.50705">
        <ele>925.838958</ele>
        <time>2023-01-15T17:02:30.234Z</time>
      </trkpt>
      <trkpt lat="47.1377" lon="6.50687">
        <ele>924.851524</ele>
        <time>2023-01-15T17:02:33.279Z</time>
      </trkpt>
      <trkpt lat="47.13732" lon="6.50613">
        <ele>920.07072</ele>
        <time>2023-01-15T17:02:47.492Z</time>
      </trkpt>
      <trkpt lat="47.1372" lon="6.50598">
        <ele>918.881159</ele>
        <time>2023-01-15T17:02:51.060Z</time>
      </trkpt>
      <trkpt lat="47.13701" lon="6.5056">
        <ele>916.475236</ele>
        <time>2023-01-15T17:02:58.181Z</time>
      </trkpt>
      <trkpt lat="47.13693" lon="6.50537">
        <ele>915.174024</ele>
        <time>2023-01-15T17:03:02.094Z</time>
      </trkpt>
      <trkpt lat="47.1363" lon="6.50434">
        <ele>907.5253</ele>
        <time>2023-01-15T17:03:23.530Z</time>
      </trkpt>
      <trkpt lat="47.13575" lon="6.50394">
        <ele>902.302585</ele>
        <time>2023-01-15T17:03:37.140Z</time>
      </trkpt>
      <trkpt lat="47.1357" lon="6.50409">
        <ele>901.338265</ele>
        <time>2023-01-15T17:03:42.016Z</time>
      </trkpt>
      <trkpt lat="47.1352" lon="6.50364">
        <ele>896.214265</ele>
        <time>2023-01-15T17:04:07.180Z</time>
      </trkpt>
      <trkpt lat="47.13528" lon="6.50315">
        <ele>892.650617</ele>
        <time>2023-01-15T17:04:21.907Z</time>
      </trkpt>
      <trkpt lat="47.1352" lon="6.50274">
        <ele>889.63421</ele>
        <time>2023-01-15T17:04:34.383Z</time>
      </trkpt>
      <trkpt lat="47.13494" lon="6.50218">
        <ele>884.839465</ele>
        <time>2023-01-15T17:04:54.220Z</time>
      </trkpt>
      <trkpt lat="47.13484" lon="6.50184">
        <ele>882.219884</ele>
        <time>2023-01-15T17:05:05.055Z</time>
      </trkpt>
      <trkpt lat="47.1349" lon="6.50137">
        <ele>878.838034</ele>
        <time>2023-01-15T17:05:19.031Z</time>
      </trkpt>
      <trkpt lat="47.13494" lon="6.50092">
        <ele>877.341662</ele>
        <time>2023-01-15T17:05:32.269Z</time>
      </trkpt>
      <trkpt lat="47.13504" lon="6.50047">
        <ele>876.120252</ele>
        <time>2023-01-15T17:05:46.058Z</time>
      </trkpt>
      <trkpt lat="47.13579" lon="6.50074">
        <ele>873.19167</ele>
        <time>2023-01-15T17:06:19.092Z</time>
      </trkpt>
      <trkpt lat="47.13614" lon="6.50145">
        <ele>871.701887</ele>
        <time>2023-01-15T17:06:44.602Z</time>
      </trkpt>
      <trkpt lat="47.13637" lon="6.50192">
        <ele>872.216691</ele>
        <time>2023-01-15T17:07:01.447Z</time>
      </trkpt>
      <trkpt lat="47.13682" lon="6.50242">
        <ele>872.953995</ele>
        <time>2023-01-15T17:07:25.574Z</time>
      </trkpt>
      <trkpt lat="47.13748" lon="6.5033">
        <ele>874.345077</ele>
        <time>2023-01-15T17:08:03.688Z</time>
      </trkpt>
      <trkpt lat="47.13752" lon="6.50325">
        <ele>874.462483</ele>
        <time>2023-01-15T17:08:05.742Z</time>
      </trkpt>
      <trkpt lat="47.13759" lon="6.50336">
        <ele>874.707787</ele>
        <time>2023-01-15T17:08:09.039Z</time>
      </trkpt>
      <trkpt lat="47.13784" lon="6.50403">
        <ele>875.976028</ele>
        <time>2023-01-15T17:08:25.293Z</time>
      </trkpt>
      <trkpt lat="47.13819" lon="6.50518">
        <ele>878.054271</ele>
        <time>2023-01-15T17:08:52.536Z</time>
      </trkpt>
      <trkpt lat="47.13853" lon="6.50611">
        <ele>880.267893</ele>
        <time>2023-01-15T17:09:16.794Z</time>
      </trkpt>
      <trkpt lat="47.13872" lon="6.50707">
        <ele>882.391295</ele>
        <time>2023-01-15T17:09:38.999Z</time>
      </trkpt>
      <trkpt lat="47.13887" lon="6.50807">
        <ele>883.843491</ele>
        <time>2023-01-15T17:10:00.871Z</time>
      </trkpt>
      <trkpt lat="47.13902" lon="6.51001">
        <ele>883.835487</ele>
        <time>2023-01-15T17:10:41.254Z</time>
      </trkpt>
      <trkpt lat="47.13907" lon="6.51103">
        <ele>880.496022</ele>
        <time>2023-01-15T17:10:58.906Z</time>
      </trkpt>
      <trkpt lat="47.13926" lon="6.51171">
        <ele>876.862757</ele>
        <time>2023-01-15T17:11:10.347Z</time>
      </trkpt>
      <trkpt lat="47.13965" lon="6.51187">
        <ele>873.887767</ele>
        <time>2023-01-15T17:11:18.939Z</time>
      </trkpt>
      <trkpt lat="47.14034" lon="6.51098">
        <ele>865.757503</ele>
        <time>2023-01-15T17:11:38.693Z</time>
      </trkpt>
      <trkpt lat="47.14053" lon="6.51083">
        <ele>863.518766</ele>
        <time>2023-01-15T17:11:43.123Z</time>
      </trkpt>
      <trkpt lat="47.14067" lon="6.50896">
        <ele>850.808573</ele>
        <time>2023-01-15T17:12:10.714Z</time>
      </trkpt>
      <trkpt lat="47.14069" lon="6.50706">
        <ele>840.613492</ele>
        <time>2023-01-15T17:12:39.857Z</time>
      </trkpt>
      <trkpt lat="47.14079" lon="6.50585">
        <ele>834.400484</ele>
        <time>2023-01-15T17:12:58.504Z</time>
      </trkpt>
      <trkpt lat="47.14078" lon="6.50513">
        <ele>830.78929</ele>
        <time>2023-01-15T17:13:09.688Z</time>
      </trkpt>
      <trkpt lat="47.14072" lon="6.50496">
        <ele>829.841415</ele>
        <time>2023-01-15T17:13:12.465Z</time>
      </trkpt>
      <trkpt lat="47.14045" lon="6.50367">
        <ele>822.598258</ele>
        <time>2023-01-15T17:13:33.578Z</time>
      </trkpt>
      <trkpt lat="47.14046" lon="6.50335">
        <ele>820.47675</ele>
        <time>2023-01-15T17:13:38.440Z</time>
      </trkpt>
      <trkpt lat="47.14046" lon="6.5032">
        <ele>819.475617</ele>
        <time>2023-01-15T17:13:40.943Z</time>
      </trkpt>
      <trkpt lat="47.1405" lon="6.50307">
        <ele>818.521868</ele>
        <time>2023-01-15T17:13:43.152Z</time>
      </trkpt>
      <trkpt lat="47.14064" lon="6.50312">
        <ele>817.067714</ele>
        <time>2023-01-15T17:13:46.343Z</time>
      </trkpt>
      <trkpt lat="47.14097" lon="6.50284">
        <ele>813.365679</ele>
        <time>2023-01-15T17:13:54.473Z</time>
      </trkpt>
      <trkpt lat="47.1416" lon="6.50227">
        <ele>805.733155</ele>
        <time>2023-01-15T17:14:09.735Z</time>
      </trkpt>
      <trkpt lat="47.14176" lon="6.50193">
        <ele>801.924611</ele>
        <time>2023-01-15T17:14:15.635Z</time>
      </trkpt>
      <trkpt lat="47.1421" lon="6.50131">
        <ele>794.63737</ele>
        <time>2023-01-15T17:14:22.291Z</time>
      </trkpt>
      <trkpt lat="47.14284" lon="6.5004">
        <ele>782.045635</ele>
        <time>2023-01-15T17:14:33.923Z</time>
      </trkpt>
      <trkpt lat="47.1434" lon="6.49995">
        <ele>775.482139</ele>
        <time>2023-01-15T17:14:41.828Z</time>
      </trkpt>
      <trkpt lat="47.14372" lon="6.49978">
        <ele>771.977814</ele>
        <time>2023-01-15T17:14:46.225Z</time>
      </trkpt>
      <trkpt lat="47.14364" lon="6.49939">
        <ele>769.12762</ele>
        <time>2023-01-15T17:14:49.836Z</time>
      </trkpt>
      <trkpt lat="47.14362" lon="6.49909">
        <ele>767.062819</ele>
        <time>2023-01-15T17:14:52.471Z</time>
      </trkpt>
      <trkpt lat="47.14378" lon="6.49907">
        <ele>765.46536</ele>
        <time>2023-01-15T17:14:54.546Z</time>
      </trkpt>
      <trkpt lat="47.14393" lon="6.49902">
        <ele>764.587665</ele>
        <time>2023-01-15T17:14:56.450Z</time>
      </trkpt>
      <trkpt lat="47.1442" lon="6.49893">
        <ele>764.030454</ele>
        <time>2023-01-15T17:15:00.023Z</time>
      </trkpt>
      <trkpt lat="47.14434" lon="6.49889">
        <ele>763.749338</ele>
        <time>2023-01-15T17:15:01.873Z</time>
      </trkpt>
      <trkpt lat="47.14478" lon="6.49875">
        <ele>762.841147</ele>
        <time>2023-01-15T17:15:08.524Z</time>
      </trkpt>
      <trkpt lat="47.14508" lon="6.4986">
        <ele>762.228435</ele>
        <time>2023-01-15T17:15:14.037Z</time>
      </trkpt>
      <trkpt lat="47.14567" lon="6.49828">
        <ele>761.371385</ele>
        <time>2023-01-15T17:15:28.423Z</time>
      </trkpt>
      <trkpt lat="47.14599" lon="6.49817">
        <ele>762.002874</ele>
        <time>2023-01-15T17:15:36.879Z</time>
      </trkpt>
      <trkpt lat="47.14615" lon="6.49815">
        <ele>762.315178</ele>
        <time>2023-01-15T17:15:40.981Z</time>
      </trkpt>
      <trkpt lat="47.14666" lon="6.49823">
        <ele>763.315701</ele>
        <time>2023-01-15T17:15:53.752Z</time>
      </trkpt>
      <trkpt lat="47.14677" lon="6.49826">
        <ele>763.536303</ele>
        <time>2023-01-15T17:15:56.184Z</time>
      </trkpt>
      <trkpt lat="47.14695" lon="6.4983">
        <ele>763.883202</ele>
        <time>2023-01-15T17:16:00.280Z</time>
      </trkpt>
      <trkpt lat="47.1474" lon="6.4984">
        <ele>764.507583</ele>
        <time>2023-01-15T17:16:09.115Z</time>
      </trkpt>
      <trkpt lat="47.14772" lon="6.4984">
        <ele>763.43958</ele>
        <time>2023-01-15T17:16:14.369Z</time>
      </trkpt>
      <trkpt lat="47.148" lon="6.49831">
        <ele>762.52511</ele>
        <time>2023-01-15T17:16:18.466Z</time>
      </trkpt>
      <trkpt lat="47.14816" lon="6.49822">
        <ele>761.984154</ele>
        <time>2023-01-15T17:16:20.852Z</time>
      </trkpt>
      <trkpt lat="47.14819" lon="6.49817">
        <ele>761.814731</ele>
        <time>2023-01-15T17:16:21.547Z</time>
      </trkpt>
      <trkpt lat="47.14832" lon="6.49802">
        <ele>761.289426</ele>
        <time>2023-01-15T17:16:23.870Z</time>
      </trkpt>
      <trkpt lat="47.14843" lon="6.4977">
        <ele>760.49387</ele>
        <time>2023-01-15T17:16:27.099Z</time>
      </trkpt>
      <trkpt lat="47.14857" lon="6.49672">
        <ele>758.271557</ele>
        <time>2023-01-15T17:16:36.082Z</time>
      </trkpt>
      <trkpt lat="47.14881" lon="6.49565">
        <ele>755.668104</ele>
        <time>2023-01-15T17:16:46.752Z</time>
      </trkpt>
      <trkpt lat="47.14905" lon="6.49468">
        <ele>753.300675</ele>
        <time>2023-01-15T17:16:57.330Z</time>
      </trkpt>
      <trkpt lat="47.14928" lon="6.49396">
        <ele>751.792639</ele>
        <time>2023-01-15T17:17:05.624Z</time>
      </trkpt>
      <trkpt lat="47.14938" lon="6.49373">
        <ele>751.333084</ele>
        <time>2023-01-15T17:17:08.394Z</time>
      </trkpt>
      <trkpt lat="47.14946" lon="6.49357">
        <ele>750.987226</ele>
        <time>2023-01-15T17:17:10.454Z</time>
      </trkpt>
      <trkpt lat="47.14953" lon="6.49344">
        <ele>750.705479</ele>
        <time>2023-01-15T17:17:12.108Z</time>
      </trkpt>
      <trkpt lat="47.14969" lon="6.49329">
        <ele>750.230231</ele>
        <time>2023-01-15T17:17:14.932Z</time>
      </trkpt>
      <trkpt lat="47.14993" lon="6.49311">
        <ele>749.558409</ele>
        <time>2023-01-15T17:17:18.806Z</time>
      </trkpt>
      <trkpt lat="47.15042" lon="6.49285">
        <ele>748.224276</ele>
        <time>2023-01-15T17:17:26.485Z</time>
      </trkpt>
      <trkpt lat="47.15099" lon="6.49266">
        <ele>747.619386</ele>
        <time>2023-01-15T17:17:35.403Z</time>
      </trkpt>
      <trkpt lat="47.1511" lon="6.49263">
        <ele>747.501524</ele>
        <time>2023-01-15T17:17:37.218Z</time>
      </trkpt>
      <trkpt lat="47.15137" lon="6.49264">
        <ele>747.228439</ele>
        <time>2023-01-15T17:17:41.607Z</time>
      </trkpt>
      <trkpt lat="47.15156" lon="6.49278">
        <ele>747.005375</ele>
        <time>2023-01-15T17:17:45.296Z</time>
      </trkpt>
      <trkpt lat="47.15169" lon="6.49302">
        <ele>746.79417</ele>
        <time>2023-01-15T17:17:48.952Z</time>
      </trkpt>
      <trkpt lat="47.15185" lon="6.49341">
        <ele>746.472885</ele>
        <time>2023-01-15T17:17:54.939Z</time>
      </trkpt>
      <trkpt lat="47.15244" lon="6.49447">
        <ele>746.181608</ele>
        <time>2023-01-15T17:18:14.333Z</time>
      </trkpt>
      <trkpt lat="47.15257" lon="6.4947">
        <ele>746.137902</ele>
        <time>2023-01-15T17:18:18.399Z</time>
      </trkpt>
      <trkpt lat="47.1528" lon="6.49513">
        <ele>746.057757</ele>
        <time>2023-01-15T17:18:25.112Z</time>
      </trkpt>
      <trkpt lat="47.15296" lon="6.4954">
        <ele>746.005832</ele>
        <time>2023-01-15T17:18:29.030Z</time>
      </trkpt>
      <trkpt lat="47.1531" lon="6.49553">
        <ele>745.957654</ele>
        <time>2023-01-15T17:18:31.615Z</time>
      </trkpt>
      <trkpt lat="47.1534" lon="6.49564">
        <ele>744.671432</ele>
        <time>2023-01-15T17:18:36.234Z</time>
      </trkpt>
      <trkpt lat="47.15352" lon="6.49563">
        <ele>744.163546</ele>
        <time>2023-01-15T17:18:37.977Z</time>
      </trkpt>
      <trkpt lat="47.15368" lon="6.49552">
        <ele>743.441479</ele>
        <time>2023-01-15T17:18:40.413Z</time>
      </trkpt>
      <trkpt lat="47.15381" lon="6.49536">
        <ele>742.730621</ele>
        <time>2023-01-15T17:18:42.683Z</time>
      </trkpt>
      <trkpt lat="47.1539" lon="6.49518">
        <ele>742.100086</ele>
        <time>2023-01-15T17:18:44.781Z</time>
      </trkpt>
      <trkpt lat="47.15394" lon="6.49508">
        <ele>741.758362</ele>
        <time>2023-01-15T17:18:45.934Z</time>
      </trkpt>
      <trkpt lat="47.15413" lon="6.49469">
        <ele>740.43263</ele>
        <time>2023-01-15T17:18:50.159Z</time>
      </trkpt>
      <trkpt lat="47.15463" lon="6.49382">
        <ele>736.854996</ele>
        <time>2023-01-15T17:19:00.402Z</time>
      </trkpt>
      <trkpt lat="47.15468" lon="6.49374">
        <ele>736.440185</ele>
        <time>2023-01-15T17:19:01.376Z</time>
      </trkpt>
      <trkpt lat="47.15509" lon="6.49334">
        <ele>733.89373</ele>
        <time>2023-01-15T17:19:07.766Z</time>
      </trkpt>
      <trkpt lat="47.1555" lon="6.49281">
        <ele>731.010137</ele>
        <time>2023-01-15T17:19:15.110Z</time>
      </trkpt>
      <trkpt lat="47.15559" lon="6.49255">
        <ele>729.937891</ele>
        <time>2023-01-15T17:19:17.793Z</time>
      </trkpt>
      <trkpt lat="47.1558" lon="6.49188">
        <ele>727.084184</ele>
        <time>2023-01-15T17:19:24.483Z</time>
      </trkpt>
      <trkpt lat="47.1562" lon="6.49065">
        <ele>721.525086</ele>
        <time>2023-01-15T17:19:36.593Z</time>
      </trkpt>
      <trkpt lat="47.15623" lon="6.49057">
        <ele>721.172493</ele>
        <time>2023-01-15T17:19:37.335Z</time>
      </trkpt>
      <trkpt lat="47.15648" lon="6.48995">
        <ele>718.235821</ele>
        <time>2023-01-15T17:19:43.574Z</time>
      </trkpt>
      <trkpt lat="47.15686" lon="6.48905">
        <ele>713.05597</ele>
        <time>2023-01-15T17:19:52.532Z</time>
      </trkpt>
      <trkpt lat="47.15692" lon="6.48867">
        <ele>711.120988</ele>
        <time>2023-01-15T17:19:55.826Z</time>
      </trkpt>
      <trkpt lat="47.15701" lon="6.48752">
        <ele>705.389336</ele>
        <time>2023-01-15T17:20:05.734Z</time>
      </trkpt>
      <trkpt lat="47.15699" lon="6.48713">
        <ele>703.785385</ele>
        <time>2023-01-15T17:20:09.037Z</time>
      </trkpt>
      <trkpt lat="47.15673" lon="6.48528">
        <ele>696.20001</ele>
        <time>2023-01-15T17:20:25.635Z</time>
      </trkpt>
      <trkpt lat="47.15671" lon="6.48511">
        <ele>695.539801</ele>
        <time>2023-01-15T17:20:27.049Z</time>
      </trkpt>
      <trkpt lat="47.15673" lon="6.48528">
        <ele>694.879592</ele>
        <time>2023-01-15T17:20:28.744Z</time>
      </trkpt>
      <trkpt lat="47.15699" lon="6.48493">
        <ele>693.694179</ele>
        <time>2023-01-15T17:20:34.021Z</time>
      </trkpt>
      <trkpt lat="47.15721" lon="6.48517">
        <ele>692.873037</ele>
        <time>2023-01-15T17:20:38.089Z</time>
      </trkpt>
      <trkpt lat="47.1575" lon="6.48586">
        <ele>691.189151</ele>
        <time>2023-01-15T17:20:46.810Z</time>
      </trkpt>
      <trkpt lat="47.15783" lon="6.4864">
        <ele>689.697999</ele>
        <time>2023-01-15T17:20:54.561Z</time>
      </trkpt>
      <trkpt lat="47.1582" lon="6.48676">
        <ele>688.61021</ele>
        <time>2023-01-15T17:21:01.891Z</time>
      </trkpt>
      <trkpt lat="47.15827" lon="6.48684">
        <ele>688.421017</ele>
        <time>2023-01-15T17:21:03.407Z</time>
      </trkpt>
      <trkpt lat="47.15854" lon="6.48712">
        <ele>687.75322</ele>
        <time>2023-01-15T17:21:08.701Z</time>
      </trkpt>
      <trkpt lat="47.1588" lon="6.48724">
        <ele>687.186004</ele>
        <time>2023-01-15T17:21:13.148Z</time>
      </trkpt>
      <trkpt lat="47.15982" lon="6.48737">
        <ele>685.579471</ele>
        <time>2023-01-15T17:21:29.798Z</time>
      </trkpt>
      <trkpt lat="47.16042" lon="6.48758">
        <ele>685.972674</ele>
        <time>2023-01-15T17:21:41.307Z</time>
      </trkpt>
      <trkpt lat="47.16106" lon="6.48808">
        <ele>686.440167</ele>
        <time>2023-01-15T17:21:57.392Z</time>
      </trkpt>
      <trkpt lat="47.16122" lon="6.48823">
        <ele>686.558666</ele>
        <time>2023-01-15T17:22:01.859Z</time>
      </trkpt>
      <trkpt lat="47.1614" lon="6.48858">
        <ele>687.464763</ele>
        <time>2023-01-15T17:22:09.499Z</time>
      </trkpt>
      <trkpt lat="47.16151" lon="6.4892">
        <ele>689.1859</ele>
        <time>2023-01-15T17:22:21.019Z</time>
      </trkpt>
      <trkpt lat="47.16139" lon="6.48972">
        <ele>690.669634</ele>
        <time>2023-01-15T17:22:31.398Z</time>
      </trkpt>
      <trkpt lat="47.16125" lon="6.49055">
        <ele>692.962237</ele>
        <time>2023-01-15T17:22:47.684Z</time>
      </trkpt>
      <trkpt lat="47.16095" lon="6.49208">
        <ele>695.623337</ele>
        <time>2023-01-15T17:23:15.674Z</time>
      </trkpt>
      <trkpt lat="47.16111" lon="6.49252">
        <ele>696.339582</ele>
        <time>2023-01-15T17:23:23.470Z</time>
      </trkpt>
      <trkpt lat="47.16144" lon="6.49287">
        <ele>697.213685</ele>
        <time>2023-01-15T17:23:32.009Z</time>
      </trkpt>
      <trkpt lat="47.16164" lon="6.49339">
        <ele>696.910719</ele>
        <time>2023-01-15T17:23:39.525Z</time>
      </trkpt>
      <trkpt lat="47.16191" lon="6.49362">
        <ele>696.074834</ele>
        <time>2023-01-15T17:23:44.879Z</time>
      </trkpt>
      <trkpt lat="47.16247" lon="6.49362">
        <ele>694.541875</ele>
        <time>2023-01-15T17:23:53.922Z</time>
      </trkpt>
      <trkpt lat="47.16302" lon="6.49387">
        <ele>692.972634</ele>
        <time>2023-01-15T17:24:02.632Z</time>
      </trkpt>
      <trkpt lat="47.16354" lon="6.49403">
        <ele>689.921078</ele>
        <time>2023-01-15T17:24:09.800Z</time>
      </trkpt>
      <trkpt lat="47.1643" lon="6.49434">
        <ele>684.743627</ele>
        <time>2023-01-15T17:24:20.531Z</time>
      </trkpt>
      <trkpt lat="47.16442" lon="6.49439">
        <ele>683.991578</ele>
        <time>2023-01-15T17:24:23.228Z</time>
      </trkpt>
      <trkpt lat="47.16455" lon="6.4944">
        <ele>683.081553</ele>
        <time>2023-01-15T17:24:26.363Z</time>
      </trkpt>
      <trkpt lat="47.16475" lon="6.4943">
        <ele>681.746581</ele>
        <time>2023-01-15T17:24:31.233Z</time>
      </trkpt>
      <trkpt lat="47.16477" lon="6.49416">
        <ele>681.109385</ele>
        <time>2023-01-15T17:24:33.325Z</time>
      </trkpt>
      <trkpt lat="47.16473" lon="6.49407">
        <ele>680.551454</ele>
        <time>2023-01-15T17:24:35.098Z</time>
      </trkpt>
      <trkpt lat="47.1645" lon="6.49394">
        <ele>678.528881</ele>
        <time>2023-01-15T17:24:40.681Z</time>
      </trkpt>
      <trkpt lat="47.16436" lon="6.4939">
        <ele>677.391675</ele>
        <time>2023-01-15T17:24:43.791Z</time>
      </trkpt>
      <trkpt lat="47.16423" lon="6.49393">
        <ele>676.317333</ele>
        <time>2023-01-15T17:24:46.657Z</time>
      </trkpt>
      <trkpt lat="47.16379" lon="6.49366">
        <ele>672.440001</ele>
        <time>2023-01-15T17:24:56.851Z</time>
      </trkpt>
      <trkpt lat="47.16362" lon="6.4936">
        <ele>670.977004</ele>
        <time>2023-01-15T17:25:00.841Z</time>
      </trkpt>
      <trkpt lat="47.16338" lon="6.49332">
        <ele>668.489274</ele>
        <time>2023-01-15T17:25:07.535Z</time>
      </trkpt>
      <trkpt lat="47.16322" lon="6.49323">
        <ele>667.113816</ele>
        <time>2023-01-15T17:25:11.310Z</time>
      </trkpt>
      <trkpt lat="47.16312" lon="6.49313">
        <ele>666.159418</ele>
        <time>2023-01-15T17:25:14.230Z</time>
      </trkpt>
      <trkpt lat="47.16291" lon="6.49285">
        <ele>664.652471</ele>
        <time>2023-01-15T17:25:20.674Z</time>
      </trkpt>
      <trkpt lat="47.16258" lon="6.4926">
        <ele>662.704048</ele>
        <time>2023-01-15T17:25:29.307Z</time>
      </trkpt>
      <trkpt lat="47.16249" lon="6.4924">
        <ele>661.860917</ele>
        <time>2023-01-15T17:25:33.193Z</time>
      </trkpt>
      <trkpt lat="47.16246" lon="6.49211">
        <ele>660.807461</ele>
        <time>2023-01-15T17:25:37.859Z</time>
      </trkpt>
      <trkpt lat="47.16241" lon="6.4919">
        <ele>659.989371</ele>
        <time>2023-01-15T17:25:41.726Z</time>
      </trkpt>
      <trkpt lat="47.16238" lon="6.49144">
        <ele>658.340535</ele>
        <time>2023-01-15T17:25:49.561Z</time>
      </trkpt>
      <trkpt lat="47.16233" lon="6.49111">
        <ele>657.115612</ele>
        <time>2023-01-15T17:25:55.195Z</time>
      </trkpt>
      <trkpt lat="47.16247" lon="6.49117">
        <ele>656.53131</ele>
        <time>2023-01-15T17:25:58.837Z</time>
      </trkpt>
      <trkpt lat="47.1627" lon="6.49146">
        <ele>655.626797</ele>
        <time>2023-01-15T17:26:06.762Z</time>
      </trkpt>
      <trkpt lat="47.16318" lon="6.49157">
        <ele>654.174498</ele>
        <time>2023-01-15T17:26:19.668Z</time>
      </trkpt>
      <trkpt lat="47.16351" lon="6.49185">
        <ele>653.045253</ele>
        <time>2023-01-15T17:26:29.692Z</time>
      </trkpt>
      <trkpt lat="47.16387" lon="6.49204">
        <ele>651.895105</ele>
        <time>2023-01-15T17:26:39.826Z</time>
      </trkpt>
      <trkpt lat="47.16439" lon="6.49221">
        <ele>650.616013</ele>
        <time>2023-01-15T17:26:53.743Z</time>
      </trkpt>
      <trkpt lat="47.16474" lon="6.49227">
        <ele>649.865412</ele>
        <time>2023-01-15T17:27:02.776Z</time>
      </trkpt>
      <trkpt lat="47.16512" lon="6.49224">
        <ele>649.038577</ele>
        <time>2023-01-15T17:27:12.701Z</time>
      </trkpt>
      <trkpt lat="47.16538" lon="6.49215">
        <ele>648.475481</ele>
        <time>2023-01-15T17:27:19.754Z</time>
      </trkpt>
      <trkpt lat="47.16577" lon="6.4919">
        <ele>647.548339</ele>
        <time>2023-01-15T17:27:32.590Z</time>
      </trkpt>
      <trkpt lat="47.16643" lon="6.49091">
        <ele>646.936177</ele>
        <time>2023-01-15T17:28:00.988Z</time>
      </trkpt>
      <trkpt lat="47.16697" lon="6.4903">
        <ele>646.503399</ele>
        <time>2023-01-15T17:28:21.255Z</time>
      </trkpt>
      <trkpt lat="47.1673" lon="6.49">
        <ele>645.266066</ele>
        <time>2023-01-15T17:28:31.771Z</time>
      </trkpt>
      <trkpt lat="47.16782" lon="6.48917">
        <ele>641.016269</ele>
        <time>2023-01-15T17:28:50.263Z</time>
      </trkpt>
      <trkpt lat="47.16811" lon="6.4886">
        <ele>638.342467</ele>
        <time>2023-01-15T17:29:01.260Z</time>
      </trkpt>
      <trkpt lat="47.16826" lon="6.48838">
        <ele>637.184108</ele>
        <time>2023-01-15T17:29:05.928Z</time>
      </trkpt>
      <trkpt lat="47.1685" lon="6.48812">
        <ele>635.433124</ele>
        <time>2023-01-15T17:29:12.498Z</time>
      </trkpt>
      <trkpt lat="47.1687" lon="6.48815">
        <ele>634.143339</ele>
        <time>2023-01-15T17:29:17.057Z</time>
      </trkpt>
      <trkpt lat="47.16921" lon="6.48836">
        <ele>630.873465</ele>
        <time>2023-01-15T17:29:28.847Z</time>
      </trkpt>
      <trkpt lat="47.16964" lon="6.48843">
        <ele>628.188797</ele>
        <time>2023-01-15T17:29:38.836Z</time>
      </trkpt>
      <trkpt lat="47.16996" lon="6.48861">
        <ele>626.105003</ele>
        <time>2023-01-15T17:29:47.304Z</time>
      </trkpt>
      <trkpt lat="47.17047" lon="6.48881">
        <ele>624.767291</ele>
        <time>2023-01-15T17:30:01.809Z</time>
      </trkpt>
      <trkpt lat="47.17083" lon="6.48892">
        <ele>624.287989</ele>
        <time>2023-01-15T17:30:12.226Z</time>
      </trkpt>
      <trkpt lat="47.17113" lon="6.48892">
        <ele>623.899684</ele>
        <time>2023-01-15T17:30:20.889Z</time>
      </trkpt>
      <trkpt lat="47.17131" lon="6.48886">
        <ele>623.661053</ele>
        <time>2023-01-15T17:30:26.366Z</time>
      </trkpt>
      <trkpt lat="47.17155" lon="6.48884">
        <ele>623.350445</ele>
        <time>2023-01-15T17:30:33.439Z</time>
      </trkpt>
      <trkpt lat="47.17197" lon="6.48861">
        <ele>622.890442</ele>
        <time>2023-01-15T17:30:47.000Z</time>
      </trkpt>
      <trkpt lat="47.17212" lon="6.48855">
        <ele>622.831259</ele>
        <time>2023-01-15T17:30:51.554Z</time>
      </trkpt>
      <trkpt lat="47.17231" lon="6.48855">
        <ele>622.75644</ele>
        <time>2023-01-15T17:30:57.436Z</time>
      </trkpt>
      <trkpt lat="47.17259" lon="6.48844">
        <ele>622.645855</ele>
        <time>2023-01-15T17:31:05.956Z</time>
      </trkpt>
      <trkpt lat="47.17278" lon="6.48845">
        <ele>622.572136</ele>
        <time>2023-01-15T17:31:11.648Z</time>
      </trkpt>
      <trkpt lat="47.1729" lon="6.48852">
        <ele>622.522635</ele>
        <time>2023-01-15T17:31:15.486Z</time>
      </trkpt>
      <trkpt lat="47.17306" lon="6.48853">
        <ele>622.459758</ele>
        <time>2023-01-15T17:31:20.455Z</time>
      </trkpt>
      <trkpt lat="47.17319" lon="6.48867">
        <ele>622.398992</ele>
        <time>2023-01-15T17:31:25.180Z</time>
      </trkpt>
      <trkpt lat="47.17354" lon="6.48878">
        <ele>622.258967</ele>
        <time>2023-01-15T17:31:36.193Z</time>
      </trkpt>
      <trkpt lat="47.17379" lon="6.4887">
        <ele>621.038514</ele>
        <time>2023-01-15T17:31:44.040Z</time>
      </trkpt>
      <trkpt lat="47.17392" lon="6.48862">
        <ele>620.306364</ele>
        <time>2023-01-15T17:31:48.248Z</time>
      </trkpt>
      <trkpt lat="47.17402" lon="6.48856">
        <ele>619.7299</ele>
        <time>2023-01-15T17:31:50.680Z</time>
      </trkpt>
      <trkpt lat="47.17412" lon="6.48843">
        <ele>619.057887</ele>
        <time>2023-01-15T17:31:53.580Z</time>
      </trkpt>
      <trkpt lat="47.17439" lon="6.48822">
        <ele>617.480259</ele>
        <time>2023-01-15T17:32:00.605Z</time>
      </trkpt>
      <trkpt lat="47.17461" lon="6.48798">
        <ele>616.06557</ele>
        <time>2023-01-15T17:32:07.653Z</time>
      </trkpt>
      <trkpt lat="47.17475" lon="6.48775">
        <ele>614.987678</ele>
        <time>2023-01-15T17:32:12.660Z</time>
      </trkpt>
      <trkpt lat="47.17487" lon="6.48727">
        <ele>613.175205</ele>
        <time>2023-01-15T17:32:20.227Z</time>
      </trkpt>
      <trkpt lat="47.17492" lon="6.48723">
        <ele>612.833108</ele>
        <time>2023-01-15T17:32:21.984Z</time>
      </trkpt>
      <trkpt lat="47.17497" lon="6.48723">
        <ele>612.358947</ele>
        <time>2023-01-15T17:32:23.125Z</time>
      </trkpt>
      <trkpt lat="47.17507" lon="6.48738">
        <ele>611.00105</ele>
        <time>2023-01-15T17:32:25.846Z</time>
      </trkpt>
      <trkpt lat="47.17512" lon="6.48759">
        <ele>609.51878</ele>
        <time>2023-01-15T17:32:30.484Z</time>
      </trkpt>
      <trkpt lat="47.17515" lon="6.4885">
        <ele>603.562057</ele>
        <time>2023-01-15T17:32:43.310Z</time>
      </trkpt>
      <trkpt lat="47.17517" lon="6.48873">
        <ele>602.040078</ele>
        <time>2023-01-15T17:32:47.417Z</time>
      </trkpt>
      <trkpt lat="47.17521" lon="6.48885">
        <ele>601.197321</ele>
        <time>2023-01-15T17:32:49.119Z</time>
      </trkpt>
      <trkpt lat="47.17526" lon="6.48891">
        <ele>600.54882</ele>
        <time>2023-01-15T17:32:50.444Z</time>
      </trkpt>
      <trkpt lat="47.17533" lon="6.48913">
        <ele>598.942343</ele>
        <time>2023-01-15T17:32:55.088Z</time>
      </trkpt>
      <trkpt lat="47.17532" lon="6.48969">
        <ele>595.514706</ele>
        <time>2023-01-15T17:33:03.075Z</time>
      </trkpt>
      <trkpt lat="47.17526" lon="6.49014">
        <ele>594.974885</ele>
        <time>2023-01-15T17:33:10.692Z</time>
      </trkpt>
      <trkpt lat="47.17526" lon="6.49048">
        <ele>594.588934</ele>
        <time>2023-01-15T17:33:15.862Z</time>
      </trkpt>
      <trkpt lat="47.1753" lon="6.49065">
        <ele>594.374774</ele>
        <time>2023-01-15T17:33:19.635Z</time>
      </trkpt>
      <trkpt lat="47.17542" lon="6.49098">
        <ele>593.941314</ele>
        <time>2023-01-15T17:33:25.603Z</time>
      </trkpt>
      <trkpt lat="47.17563" lon="6.49129">
        <ele>593.437464</ele>
        <time>2023-01-15T17:33:34.825Z</time>
      </trkpt>
      <trkpt lat="47.17566" lon="6.49143">
        <ele>593.260256</ele>
        <time>2023-01-15T17:33:38.142Z</time>
      </trkpt>
      <trkpt lat="47.1756" lon="6.49187">
        <ele>592.735688</ele>
        <time>2023-01-15T17:33:47.942Z</time>
      </trkpt>
      <trkpt lat="47.1755" lon="6.49227">
        <ele>593.171422</ele>
        <time>2023-01-15T17:33:58.141Z</time>
      </trkpt>
      <trkpt lat="47.17549" lon="6.49273">
        <ele>594.74616</ele>
        <time>2023-01-15T17:34:08.739Z</time>
      </trkpt>
      <trkpt lat="47.17533" lon="6.49282">
        <ele>595.597827</ele>
        <time>2023-01-15T17:34:14.874Z</time>
      </trkpt>
      <trkpt lat="47.17517" lon="6.49283">
        <ele>596.372267</ele>
        <time>2023-01-15T17:34:20.045Z</time>
      </trkpt>
      <trkpt lat="47.17501" lon="6.4929">
        <ele>597.196215</ele>
        <time>2023-01-15T17:34:26.930Z</time>
      </trkpt>
      <trkpt lat="47.17485" lon="6.49328">
        <ele>598.688596</ele>
        <time>2023-01-15T17:34:37.804Z</time>
      </trkpt>
      <trkpt lat="47.1747" lon="6.49348">
        <ele>599.696826</ele>
        <time>2023-01-15T17:34:44.313Z</time>
      </trkpt>
      <trkpt lat="47.17459" lon="6.49357">
        <ele>600.35083</ele>
        <time>2023-01-15T17:34:50.417Z</time>
      </trkpt>
      <trkpt lat="47.1748" lon="6.49398">
        <ele>601.727711</ele>
        <time>2023-01-15T17:35:03.017Z</time>
      </trkpt>
      <trkpt lat="47.17487" lon="6.49417">
        <ele>602.077587</ele>
        <time>2023-01-15T17:35:07.982Z</time>
      </trkpt>
      <trkpt lat="47.17503" lon="6.49497">
        <ele>603.405319</ele>
        <time>2023-01-15T17:35:27.345Z</time>
      </trkpt>
      <trkpt lat="47.17502" lon="6.49529">
        <ele>603.915333</ele>
        <time>2023-01-15T17:35:33.931Z</time>
      </trkpt>
      <trkpt lat="47.17495" lon="6.49603">
        <ele>605.10648</ele>
        <time>2023-01-15T17:35:49.480Z</time>
      </trkpt>
      <trkpt lat="47.17505" lon="6.49678">
        <ele>604.856089</ele>
        <time>2023-01-15T17:36:04.891Z</time>
      </trkpt>
      <trkpt lat="47.17514" lon="6.4971">
        <ele>604.248412</ele>
        <time>2023-01-15T17:36:11.585Z</time>
      </trkpt>
      <trkpt lat="47.1752" lon="6.49757">
        <ele>603.422696</ele>
        <time>2023-01-15T17:36:20.332Z</time>
      </trkpt>
      <trkpt lat="47.17524" lon="6.49814">
        <ele>602.428229</ele>
        <time>2023-01-15T17:36:30.370Z</time>
      </trkpt>
      <trkpt lat="47.17522" lon="6.49887">
        <ele>601.153018</ele>
        <time>2023-01-15T17:36:42.760Z</time>
      </trkpt>
      <trkpt lat="47.17526" lon="6.49996">
        <ele>598.156812</ele>
        <time>2023-01-15T17:37:00.770Z</time>
      </trkpt>
      <trkpt lat="47.17521" lon="6.50102">
        <ele>595.133625</ele>
        <time>2023-01-15T17:37:18.596Z</time>
      </trkpt>
      <trkpt lat="47.17518" lon="6.50122">
        <ele>594.541371</ele>
        <time>2023-01-15T17:37:22.114Z</time>
      </trkpt>
      <trkpt lat="47.17498" lon="6.50164">
        <ele>593.39248</ele>
        <time>2023-01-15T17:37:30.878Z</time>
      </trkpt>
      <trkpt lat="47.17502" lon="6.50198">
        <ele>593.132839</ele>
        <time>2023-01-15T17:37:36.764Z</time>
      </trkpt>
      <trkpt lat="47.17499" lon="6.50216">
        <ele>592.985346</ele>
        <time>2023-01-15T17:37:40.194Z</time>
      </trkpt>
      <trkpt lat="47.17491" lon="6.50232">
        <ele>592.831641</ele>
        <time>2023-01-15T17:37:43.819Z</time>
      </trkpt>
      <trkpt lat="47.17426" lon="6.50248">
        <ele>592.086805</ele>
        <time>2023-01-15T17:38:03.186Z</time>
      </trkpt>
      <trkpt lat="47.17346" lon="6.50253">
        <ele>591.938843</ele>
        <time>2023-01-15T17:38:27.902Z</time>
      </trkpt>
      <trkpt lat="47.17295" lon="6.5027">
        <ele>592.851036</ele>
        <time>2023-01-15T17:38:43.864Z</time>
      </trkpt>
      <trkpt lat="47.17283" lon="6.50281">
        <ele>593.108948</ele>
        <time>2023-01-15T17:38:48.626Z</time>
      </trkpt>
      <trkpt lat="47.17277" lon="6.50296">
        <ele>593.305375</ele>
        <time>2023-01-15T17:38:52.033Z</time>
      </trkpt>
      <trkpt lat="47.17263" lon="6.50365">
        <ele>594.172718</ele>
        <time>2023-01-15T17:39:07.359Z</time>
      </trkpt>
      <trkpt lat="47.17262" lon="6.50427">
        <ele>594.970359</ele>
        <time>2023-01-15T17:39:20.849Z</time>
      </trkpt>
      <trkpt lat="47.17258" lon="6.50468">
        <ele>595.547984</ele>
        <time>2023-01-15T17:39:29.590Z</time>
      </trkpt>
      <trkpt lat="47.17242" lon="6.50544">
        <ele>596.675213</ele>
        <time>2023-01-15T17:39:46.616Z</time>
      </trkpt>
      <trkpt lat="47.17227" lon="6.50593">
        <ele>597.42938</ele>
        <time>2023-01-15T17:39:58.165Z</time>
      </trkpt>
      <trkpt lat="47.1722" lon="6.50638">
        <ele>598.082564</ele>
        <time>2023-01-15T17:40:08.023Z</time>
      </trkpt>
      <trkpt lat="47.17214" lon="6.5066">
        <ele>598.400472</ele>
        <time>2023-01-15T17:40:13.168Z</time>
      </trkpt>
      <trkpt lat="47.17155" lon="6.50741">
        <ele>598.987277</ele>
        <time>2023-01-15T17:40:37.732Z</time>
      </trkpt>
      <trkpt lat="47.17144" lon="6.50773">
        <ele>599.165577</ele>
        <time>2023-01-15T17:40:45.339Z</time>
      </trkpt>
      <trkpt lat="47.17184" lon="6.50738">
        <ele>599.50741</ele>
        <time>2023-01-15T17:40:59.323Z</time>
      </trkpt>
      <trkpt lat="47.172" lon="6.50734">
        <ele>599.624052</ele>
        <time>2023-01-15T17:41:04.200Z</time>
      </trkpt>
      <trkpt lat="47.17269" lon="6.50747">
        <ele>599.59979</ele>
        <time>2023-01-15T17:41:24.960Z</time>
      </trkpt>
      <trkpt lat="47.17319" lon="6.50767">
        <ele>599.508346</ele>
        <time>2023-01-15T17:41:40.024Z</time>
      </trkpt>
      <trkpt lat="47.17468" lon="6.50973">
        <ele>599.545802</ele>
        <time>2023-01-15T17:42:42.054Z</time>
      </trkpt>
      <trkpt lat="47.17502" lon="6.51028">
        <ele>599.529336</ele>
        <time>2023-01-15T17:42:56.988Z</time>
      </trkpt>
      <trkpt lat="47.17578" lon="6.51068">
        <ele>598.626633</ele>
        <time>2023-01-15T17:43:20.287Z</time>
      </trkpt>
      <trkpt lat="47.17628" lon="6.51085">
        <ele>598.042822</ele>
        <time>2023-01-15T17:43:35.072Z</time>
      </trkpt>
      <trkpt lat="47.17659" lon="6.51103">
        <ele>597.672493</ele>
        <time>2023-01-15T17:43:44.301Z</time>
      </trkpt>
      <trkpt lat="47.17678" lon="6.51125">
        <ele>597.542544</ele>
        <time>2023-01-15T17:43:51.096Z</time>
      </trkpt>
      <trkpt lat="47.17699" lon="6.51159">
        <ele>597.478534</ele>
        <time>2023-01-15T17:44:00.011Z</time>
      </trkpt>
      <trkpt lat="47.17751" lon="6.51272">
        <ele>597.288012</ele>
        <time>2023-01-15T17:44:27.779Z</time>
      </trkpt>
      <trkpt lat="47.17771" lon="6.51325">
        <ele>597.213633</ele>
        <time>2023-01-15T17:44:40.375Z</time>
      </trkpt>
      <trkpt lat="47.17799" lon="6.51446">
        <ele>598.016367</ele>
        <time>2023-01-15T17:45:07.073Z</time>
      </trkpt>
      <trkpt lat="47.17842" lon="6.51557">
        <ele>598.82754</ele>
        <time>2023-01-15T17:45:33.851Z</time>
      </trkpt>
      <trkpt lat="47.17863" lon="6.51589">
        <ele>598.910024</ele>
        <time>2023-01-15T17:45:43.167Z</time>
      </trkpt>
      <trkpt lat="47.17881" lon="6.51599">
        <ele>598.937781</ele>
        <time>2023-01-15T17:45:49.045Z</time>
      </trkpt>
      <trkpt lat="47.17903" lon="6.51619">
        <ele>598.973836</ele>
        <time>2023-01-15T17:45:56.670Z</time>
      </trkpt>
      <trkpt lat="47.17927" lon="6.51651">
        <ele>599.021715</ele>
        <time>2023-01-15T17:46:06.703Z</time>
      </trkpt>
      <trkpt lat="47.17952" lon="6.51691">
        <ele>599.074775</ele>
        <time>2023-01-15T17:46:17.645Z</time>
      </trkpt>
      <trkpt lat="47.17996" lon="6.51744">
        <ele>598.60455</ele>
        <time>2023-01-15T17:46:34.708Z</time>
      </trkpt>
      <trkpt lat="47.18009" lon="6.51753">
        <ele>598.154232</ele>
        <time>2023-01-15T17:46:38.947Z</time>
      </trkpt>
      <trkpt lat="47.18125" lon="6.51799">
        <ele>594.361121</ele>
        <time>2023-01-15T17:47:10.618Z</time>
      </trkpt>
      <trkpt lat="47.18157" lon="6.51802">
        <ele>593.202061</ele>
        <time>2023-01-15T17:47:18.076Z</time>
      </trkpt>
      <trkpt lat="47.18188" lon="6.51796">
        <ele>590.561735</ele>
        <time>2023-01-15T17:47:25.096Z</time>
      </trkpt>
      <trkpt lat="47.18225" lon="6.51784">
        <ele>587.330192</ele>
        <time>2023-01-15T17:47:33.518Z</time>
      </trkpt>
      <trkpt lat="47.18308" lon="6.51742">
        <ele>579.965555</ele>
        <time>2023-01-15T17:47:52.404Z</time>
      </trkpt>
      <trkpt lat="47.18382" lon="6.51719">
        <ele>574.841166</ele>
        <time>2023-01-15T17:48:08.963Z</time>
      </trkpt>
      <trkpt lat="47.18421" lon="6.517">
        <ele>572.302059</ele>
        <time>2023-01-15T17:48:18.228Z</time>
      </trkpt>
      <trkpt lat="47.1845" lon="6.51691">
        <ele>570.48098</ele>
        <time>2023-01-15T17:48:25.136Z</time>
      </trkpt>
      <trkpt lat="47.18498" lon="6.51668">
        <ele>567.340293</ele>
        <time>2023-01-15T17:48:37.968Z</time>
      </trkpt>
      <trkpt lat="47.18535" lon="6.51658">
        <ele>567.093464</ele>
        <time>2023-01-15T17:48:48.481Z</time>
      </trkpt>
      <trkpt lat="47.18564" lon="6.51663">
        <ele>567.043204</ele>
        <time>2023-01-15T17:48:57.438Z</time>
      </trkpt>
      <trkpt lat="47.18618" lon="6.51713">
        <ele>566.936311</ele>
        <time>2023-01-15T17:49:16.683Z</time>
      </trkpt>
      <trkpt lat="47.18671" lon="6.51804">
        <ele>567.416246</ele>
        <time>2023-01-15T17:49:41.623Z</time>
      </trkpt>
      <trkpt lat="47.18681" lon="6.5183">
        <ele>567.812286</ele>
        <time>2023-01-15T17:49:48.013Z</time>
      </trkpt>
      <trkpt lat="47.18684" lon="6.51857">
        <ele>568.180204</ele>
        <time>2023-01-15T17:49:53.990Z</time>
      </trkpt>
      <trkpt lat="47.1868" lon="6.5191">
        <ele>568.890717</ele>
        <time>2023-01-15T17:50:05.477Z</time>
      </trkpt>
      <trkpt lat="47.1868" lon="6.51935">
        <ele>569.225138</ele>
        <time>2023-01-15T17:50:10.867Z</time>
      </trkpt>
      <trkpt lat="47.18702" lon="6.52003">
        <ele>570.225984</ele>
        <time>2023-01-15T17:50:26.877Z</time>
      </trkpt>
      <trkpt lat="47.18709" lon="6.52038">
        <ele>570.639038</ele>
        <time>2023-01-15T17:50:34.572Z</time>
      </trkpt>
      <trkpt lat="47.18712" lon="6.52089">
        <ele>571.176373</ele>
        <time>2023-01-15T17:50:45.337Z</time>
      </trkpt>
      <trkpt lat="47.18712" lon="6.52188">
        <ele>572.232339</ele>
        <time>2023-01-15T17:51:06.499Z</time>
      </trkpt>
      <trkpt lat="47.18706" lon="6.52256">
        <ele>572.9542</ele>
        <time>2023-01-15T17:51:20.747Z</time>
      </trkpt>
      <trkpt lat="47.18686" lon="6.52335">
        <ele>574.049687</ele>
        <time>2023-01-15T17:51:38.190Z</time>
      </trkpt>
      <trkpt lat="47.18677" lon="6.52576">
        <ele>578.547735</ele>
        <time>2023-01-15T17:52:29.993Z</time>
      </trkpt>
      <trkpt lat="47.18651" lon="6.52631">
        <ele>581.360699</ele>
        <time>2023-01-15T17:52:45.627Z</time>
      </trkpt>
      <trkpt lat="47.18625" lon="6.52645">
        <ele>583.054259</ele>
        <time>2023-01-15T17:52:55.551Z</time>
      </trkpt>
      <trkpt lat="47.18604" lon="6.52653">
        <ele>584.411805</ele>
        <time>2023-01-15T17:53:04.613Z</time>
      </trkpt>
      <trkpt lat="47.18599" lon="6.52691">
        <ele>586.024021</ele>
        <time>2023-01-15T17:53:15.963Z</time>
      </trkpt>
      <trkpt lat="47.18621" lon="6.52724">
        <ele>587.936709</ele>
        <time>2023-01-15T17:53:30.217Z</time>
      </trkpt>
      <trkpt lat="47.18637" lon="6.52753">
        <ele>590.216245</ele>
        <time>2023-01-15T17:53:42.475Z</time>
      </trkpt>
      <trkpt lat="47.18643" lon="6.528">
        <ele>593.08672</ele>
        <time>2023-01-15T17:53:57.296Z</time>
      </trkpt>
      <trkpt lat="47.18652" lon="6.52929">
        <ele>600.822446</ele>
        <time>2023-01-15T17:54:36.666Z</time>
      </trkpt>
      <trkpt lat="47.18675" lon="6.53074">
        <ele>609.085866</ele>
        <time>2023-01-15T17:55:16.983Z</time>
      </trkpt>
      <trkpt lat="47.1871" lon="6.53205">
        <ele>616.48605</ele>
        <time>2023-01-15T17:55:57.126Z</time>
      </trkpt>
      <trkpt lat="47.18703" lon="6.53269">
        <ele>620.092948</ele>
        <time>2023-01-15T17:56:15.141Z</time>
      </trkpt>
      <trkpt lat="47.18667" lon="6.53303">
        <ele>623.706442</ele>
        <time>2023-01-15T17:56:33.121Z</time>
      </trkpt>
      <trkpt lat="47.18609" lon="6.5333">
        <ele>628.876816</ele>
        <time>2023-01-15T17:56:58.310Z</time>
      </trkpt>
      <trkpt lat="47.18603" lon="6.53356">
        <ele>630.45144</ele>
        <time>2023-01-15T17:57:07.583Z</time>
      </trkpt>
      <trkpt lat="47.18636" lon="6.53388">
        <ele>633.705713</ele>
        <time>2023-01-15T17:57:26.437Z</time>
      </trkpt>
      <trkpt lat="47.18665" lon="6.53448">
        <ele>637.679734</ele>
        <time>2023-01-15T17:57:47.971Z</time>
      </trkpt>
      <trkpt lat="47.18697" lon="6.53546">
        <ele>643.578924</ele>
        <time>2023-01-15T17:58:17.132Z</time>
      </trkpt>
      <trkpt lat="47.18719" lon="6.5366">
        <ele>650.218043</ele>
        <time>2023-01-15T17:58:49.433Z</time>
      </trkpt>
      <trkpt lat="47.18724" lon="6.53751">
        <ele>655.554058</ele>
        <time>2023-01-15T17:59:17.383Z</time>
      </trkpt>
      <trkpt lat="47.187" lon="6.53822">
        <ele>660.190545</ele>
        <time>2023-01-15T17:59:42.264Z</time>
      </trkpt>
      <trkpt lat="47.18691" lon="6.5392">
        <ele>665.162014</ele>
        <time>2023-01-15T18:00:10.921Z</time>
      </trkpt>
      <trkpt lat="47.18707" lon="6.53976">
        <ele>667.793673</ele>
        <time>2023-01-15T18:00:26.933Z</time>
      </trkpt>
      <trkpt lat="47.18739" lon="6.54024">
        <ele>670.746121</ele>
        <time>2023-01-15T18:00:44.068Z</time>
      </trkpt>
      <trkpt lat="47.18771" lon="6.5404">
        <ele>672.90092</ele>
        <time>2023-01-15T18:00:56.183Z</time>
      </trkpt>
      <trkpt lat="47.18803" lon="6.54042">
        <ele>674.639821</ele>
        <time>2023-01-15T18:01:07.320Z</time>
      </trkpt>
      <trkpt lat="47.18848" lon="6.54077">
        <ele>676.518113</ele>
        <time>2023-01-15T18:01:24.227Z</time>
      </trkpt>
      <trkpt lat="47.1888" lon="6.54109">
        <ele>677.940157</ele>
        <time>2023-01-15T18:01:36.582Z</time>
      </trkpt>
      <trkpt lat="47.18949" lon="6.54141">
        <ele>680.610553</ele>
        <time>2023-01-15T18:01:59.804Z</time>
      </trkpt>
      <trkpt lat="47.19023" lon="6.54203">
        <ele>684.049501</ele>
        <time>2023-01-15T18:02:29.474Z</time>
      </trkpt>
      <trkpt lat="47.19069" lon="6.54217">
        <ele>685.992288</ele>
        <time>2023-01-15T18:02:45.799Z</time>
      </trkpt>
      <trkpt lat="47.19083" lon="6.54237">
        <ele>686.786749</ele>
        <time>2023-01-15T18:02:52.230Z</time>
      </trkpt>
      <trkpt lat="47.19097" lon="6.54258">
        <ele>687.618306</ele>
        <time>2023-01-15T18:02:58.899Z</time>
      </trkpt>
      <trkpt lat="47.19194" lon="6.5432">
        <ele>690.186519</ele>
        <time>2023-01-15T18:03:32.386Z</time>
      </trkpt>
      <trkpt lat="47.19257" lon="6.54377">
        <ele>691.80444</ele>
        <time>2023-01-15T18:03:55.586Z</time>
      </trkpt>
      <trkpt lat="47.19314" lon="6.54441">
        <ele>692.889456</ele>
        <time>2023-01-15T18:04:17.595Z</time>
      </trkpt>
      <trkpt lat="47.19347" lon="6.54498">
        <ele>693.565255</ele>
        <time>2023-01-15T18:04:32.958Z</time>
      </trkpt>
      <trkpt lat="47.19378" lon="6.54561">
        <ele>694.26194</ele>
        <time>2023-01-15T18:04:49.328Z</time>
      </trkpt>
      <trkpt lat="47.19425" lon="6.54634">
        <ele>696.473677</ele>
        <time>2023-01-15T18:05:10.925Z</time>
      </trkpt>
      <trkpt lat="47.19421" lon="6.54654">
        <ele>697.04203</ele>
        <time>2023-01-15T18:05:15.293Z</time>
      </trkpt>
      <trkpt lat="47.1938" lon="6.54631">
        <ele>698.832551</ele>
        <time>2023-01-15T18:05:27.390Z</time>
      </trkpt>
      <trkpt lat="47.1935" lon="6.54608">
        <ele>700.178887</ele>
        <time>2023-01-15T18:05:36.700Z</time>
      </trkpt>
      <trkpt lat="47.19328" lon="6.54571">
        <ele>701.52463</ele>
        <time>2023-01-15T18:05:46.525Z</time>
      </trkpt>
      <trkpt lat="47.1931" lon="6.5453">
        <ele>703.260332</ele>
        <time>2023-01-15T18:05:56.720Z</time>
      </trkpt>
      <trkpt lat="47.1929" lon="6.54495">
        <ele>704.982218</ele>
        <time>2023-01-15T18:06:07.416Z</time>
      </trkpt>
      <trkpt lat="47.19239" lon="6.54448">
        <ele>708.306432</ele>
        <time>2023-01-15T18:06:25.289Z</time>
      </trkpt>
      <trkpt lat="47.19175" lon="6.5441">
        <ele>712.009971</ele>
        <time>2023-01-15T18:06:44.946Z</time>
      </trkpt>
      <trkpt lat="47.19138" lon="6.54398">
        <ele>713.413924</ele>
        <time>2023-01-15T18:06:55.096Z</time>
      </trkpt>
      <trkpt lat="47.1909" lon="6.54354">
        <ele>715.505325</ele>
        <time>2023-01-15T18:07:09.255Z</time>
      </trkpt>
      <trkpt lat="47.19078" lon="6.54347">
        <ele>716.010243</ele>
        <time>2023-01-15T18:07:12.793Z</time>
      </trkpt>
      <trkpt lat="47.19068" lon="6.54362">
        <ele>716.536545</ele>
        <time>2023-01-15T18:07:16.323Z</time>
      </trkpt>
      <trkpt lat="47.19109" lon="6.54482">
        <ele>720.09666</ele>
        <time>2023-01-15T18:07:39.890Z</time>
      </trkpt>
      <trkpt lat="47.19116" lon="6.54515">
        <ele>721.059147</ele>
        <time>2023-01-15T18:07:46.020Z</time>
      </trkpt>
      <trkpt lat="47.19117" lon="6.54621">
        <ele>723.999764</ele>
        <time>2023-01-15T18:08:05.393Z</time>
      </trkpt>
      <trkpt lat="47.19118" lon="6.54639">
        <ele>724.499194</ele>
        <time>2023-01-15T18:08:08.790Z</time>
      </trkpt>
      <trkpt lat="47.19124" lon="6.54667">
        <ele>725.33774</ele>
        <time>2023-01-15T18:08:14.305Z</time>
      </trkpt>
      <trkpt lat="47.19175" lon="6.54785">
        <ele>728.921103</ele>
        <time>2023-01-15T18:08:40.839Z</time>
      </trkpt>
      <trkpt lat="47.19195" lon="6.54877">
        <ele>731.346655</ele>
        <time>2023-01-15T18:08:57.246Z</time>
      </trkpt>
      <trkpt lat="47.19197" lon="6.5489">
        <ele>731.692543</ele>
        <time>2023-01-15T18:08:59.425Z</time>
      </trkpt>
      <trkpt lat="47.19195" lon="6.54902">
        <ele>731.997158</ele>
        <time>2023-01-15T18:09:01.320Z</time>
      </trkpt>
      <trkpt lat="47.1919" lon="6.54909">
        <ele>732.259896</ele>
        <time>2023-01-15T18:09:02.956Z</time>
      </trkpt>
      <trkpt lat="47.19185" lon="6.54911">
        <ele>732.464275</ele>
        <time>2023-01-15T18:09:04.637Z</time>
      </trkpt>
      <trkpt lat="47.19178" lon="6.54906">
        <ele>732.664988</ele>
        <time>2023-01-15T18:09:06.467Z</time>
      </trkpt>
      <trkpt lat="47.19152" lon="6.54863">
        <ele>733.686919</ele>
        <time>2023-01-15T18:09:15.733Z</time>
      </trkpt>
      <trkpt lat="47.19116" lon="6.54832">
        <ele>734.799648</ele>
        <time>2023-01-15T18:09:25.879Z</time>
      </trkpt>
      <trkpt lat="47.19037" lon="6.54738">
        <ele>737.498732</ele>
        <time>2023-01-15T18:09:50.720Z</time>
      </trkpt>
      <trkpt lat="47.18946" lon="6.54613">
        <ele>741.065916</ele>
        <time>2023-01-15T18:10:21.016Z</time>
      </trkpt>
      <trkpt lat="47.18924" lon="6.54575">
        <ele>742.055888</ele>
        <time>2023-01-15T18:10:29.553Z</time>
      </trkpt>
      <trkpt lat="47.18911" lon="6.54559">
        <ele>742.697004</ele>
        <time>2023-01-15T18:10:34.067Z</time>
      </trkpt>
      <trkpt lat="47.18898" lon="6.54549">
        <ele>743.450068</ele>
        <time>2023-01-15T18:10:37.581Z</time>
      </trkpt>
      <trkpt lat="47.1885" lon="6.5453">
        <ele>746.063176</ele>
        <time>2023-01-15T18:10:50.318Z</time>
      </trkpt>
      <trkpt lat="47.18823" lon="6.54528">
        <ele>747.483458</ele>
        <time>2023-01-15T18:10:57.838Z</time>
      </trkpt>
      <trkpt lat="47.18791" lon="6.54516">
        <ele>749.257602</ele>
        <time>2023-01-15T18:11:08.280Z</time>
      </trkpt>
      <trkpt lat="47.18772" lon="6.54524">
        <ele>750.268778</ele>
        <time>2023-01-15T18:11:14.728Z</time>
      </trkpt>
      <trkpt lat="47.18747" lon="6.54546">
        <ele>751.80252</ele>
        <time>2023-01-15T18:11:24.580Z</time>
      </trkpt>
      <trkpt lat="47.18724" lon="6.5456">
        <ele>753.837504</ele>
        <time>2023-01-15T18:11:33.244Z</time>
      </trkpt>
      <trkpt lat="47.18709" lon="6.54564">
        <ele>755.12449</ele>
        <time>2023-01-15T18:11:38.468Z</time>
      </trkpt>
      <trkpt lat="47.18651" lon="6.54565">
        <ele>759.85989</ele>
        <time>2023-01-15T18:11:59.601Z</time>
      </trkpt>
      <trkpt lat="47.1863" lon="6.54523">
        <ele>762.729731</ele>
        <time>2023-01-15T18:12:12.735Z</time>
      </trkpt>
      <trkpt lat="47.1858" lon="6.54466">
        <ele>767.468187</ele>
        <time>2023-01-15T18:12:36.260Z</time>
      </trkpt>
      <trkpt lat="47.18548" lon="6.54422">
        <ele>769.964241</ele>
        <time>2023-01-15T18:12:51.596Z</time>
      </trkpt>
      <trkpt lat="47.18525" lon="6.54392">
        <ele>771.686781</ele>
        <time>2023-01-15T18:13:00.154Z</time>
      </trkpt>
      <trkpt lat="47.18517" lon="6.54383">
        <ele>772.228892</ele>
        <time>2023-01-15T18:13:02.774Z</time>
      </trkpt>
      <trkpt lat="47.18493" lon="6.54356">
        <ele>773.961776</ele>
        <time>2023-01-15T18:13:10.681Z</time>
      </trkpt>
      <trkpt lat="47.18477" lon="6.54346">
        <ele>774.912372</ele>
        <time>2023-01-15T18:13:15.033Z</time>
      </trkpt>
      <trkpt lat="47.18435" lon="6.54284">
        <ele>777.827049</ele>
        <time>2023-01-15T18:13:31.545Z</time>
      </trkpt>
      <trkpt lat="47.18435" lon="6.54283">
        <ele>777.865846</ele>
        <time>2023-01-15T18:13:31.763Z</time>
      </trkpt>
      <trkpt lat="47.18421" lon="6.54253">
        <ele>778.857571</ele>
        <time>2023-01-15T18:13:38.225Z</time>
      </trkpt>
      <trkpt lat="47.18416" lon="6.54229">
        <ele>779.541398</ele>
        <time>2023-01-15T18:13:42.832Z</time>
      </trkpt>
      <trkpt lat="47.18409" lon="6.54212">
        <ele>780.085106</ele>
        <time>2023-01-15T18:13:46.219Z</time>
      </trkpt>
      <trkpt lat="47.18399" lon="6.54198">
        <ele>780.64292</ele>
        <time>2023-01-15T18:13:50.071Z</time>
      </trkpt>
      <trkpt lat="47.18386" lon="6.54188">
        <ele>781.234257</ele>
        <time>2023-01-15T18:13:53.800Z</time>
      </trkpt>
      <trkpt lat="47.18368" lon="6.54195">
        <ele>781.99372</ele>
        <time>2023-01-15T18:13:58.661Z</time>
      </trkpt>
      <trkpt lat="47.18357" lon="6.54191">
        <ele>782.491337</ele>
        <time>2023-01-15T18:14:01.973Z</time>
      </trkpt>
      <trkpt lat="47.18346" lon="6.54182">
        <ele>782.981408</ele>
        <time>2023-01-15T18:14:04.902Z</time>
      </trkpt>
      <trkpt lat="47.18317" lon="6.54147">
        <ele>784.594764</ele>
        <time>2023-01-15T18:14:14.938Z</time>
      </trkpt>
      <trkpt lat="47.18299" lon="6.54148">
        <ele>785.409989</ele>
        <time>2023-01-15T18:14:19.914Z</time>
      </trkpt>
      <trkpt lat="47.1827" lon="6.54119">
        <ele>787.031455</ele>
        <time>2023-01-15T18:14:29.445Z</time>
      </trkpt>
      <trkpt lat="47.18267" lon="6.54115">
        <ele>787.213473</ele>
        <time>2023-01-15T18:14:30.731Z</time>
      </trkpt>
      <trkpt lat="47.18224" lon="6.54039">
        <ele>790.365139</ele>
        <time>2023-01-15T18:14:50.019Z</time>
      </trkpt>
      <trkpt lat="47.18178" lon="6.53995">
        <ele>792.846409</ele>
        <time>2023-01-15T18:15:05.615Z</time>
      </trkpt>
      <trkpt lat="47.18149" lon="6.53963">
        <ele>794.254573</ele>
        <time>2023-01-15T18:15:15.258Z</time>
      </trkpt>
      <trkpt lat="47.18094" lon="6.53919">
        <ele>796.72114</ele>
        <time>2023-01-15T18:15:31.832Z</time>
      </trkpt>
      <trkpt lat="47.18038" lon="6.53856">
        <ele>799.47495</ele>
        <time>2023-01-15T18:15:49.854Z</time>
      </trkpt>
      <trkpt lat="47.1795" lon="6.53725">
        <ele>803.566294</ele>
        <time>2023-01-15T18:16:21.712Z</time>
      </trkpt>
      <trkpt lat="47.17939" lon="6.53703">
        <ele>804.163278</ele>
        <time>2023-01-15T18:16:25.768Z</time>
      </trkpt>
      <trkpt lat="47.17931" lon="6.53688">
        <ele>804.588111</ele>
        <time>2023-01-15T18:16:29.178Z</time>
      </trkpt>
      <trkpt lat="47.17901" lon="6.53655">
        <ele>806.066901</ele>
        <time>2023-01-15T18:16:38.409Z</time>
      </trkpt>
      <trkpt lat="47.1781" lon="6.53578">
        <ele>811.385399</ele>
        <time>2023-01-15T18:17:07.088Z</time>
      </trkpt>
      <trkpt lat="47.17539" lon="6.53387">
        <ele>831.415624</ele>
        <time>2023-01-15T18:18:46.491Z</time>
      </trkpt>
      <trkpt lat="47.1737" lon="6.53278">
        <ele>844.369248</ele>
        <time>2023-01-15T18:19:47.652Z</time>
      </trkpt>
      <trkpt lat="47.17331" lon="6.53249">
        <ele>847.313252</ele>
        <time>2023-01-15T18:20:01.138Z</time>
      </trkpt>
      <trkpt lat="47.17288" lon="6.53199">
        <ele>851.056689</ele>
        <time>2023-01-15T18:20:18.683Z</time>
      </trkpt>
      <trkpt lat="47.17262" lon="6.53164">
        <ele>853.665809</ele>
        <time>2023-01-15T18:20:30.365Z</time>
      </trkpt>
      <trkpt lat="47.17227" lon="6.53133">
        <ele>856.777223</ele>
        <time>2023-01-15T18:20:43.839Z</time>
      </trkpt>
      <trkpt lat="47.16912" lon="6.52966">
        <ele>883.059866</ele>
        <time>2023-01-15T18:22:43.396Z</time>
      </trkpt>
      <trkpt lat="47.16875" lon="6.52962">
        <ele>885.635968</ele>
        <time>2023-01-15T18:22:55.140Z</time>
      </trkpt>
      <trkpt lat="47.1678" lon="6.52934">
        <ele>892.433913</ele>
        <time>2023-01-15T18:23:25.507Z</time>
      </trkpt>
      <trkpt lat="47.16601" lon="6.52806">
        <ele>905.132266</ele>
        <time>2023-01-15T18:24:28.889Z</time>
      </trkpt>
      <trkpt lat="47.16447" lon="6.52672">
        <ele>912.257367</ele>
        <time>2023-01-15T18:25:13.896Z</time>
      </trkpt>
      <trkpt lat="47.16382" lon="6.52612">
        <ele>915.639626</ele>
        <time>2023-01-15T18:25:32.232Z</time>
      </trkpt>
      <trkpt lat="47.16354" lon="6.52589">
        <ele>917.038069</ele>
        <time>2023-01-15T18:25:39.904Z</time>
      </trkpt>
      <trkpt lat="47.16331" lon="6.52579">
        <ele>918.090834</ele>
        <time>2023-01-15T18:25:46.312Z</time>
      </trkpt>
      <trkpt lat="47.16262" lon="6.52536">
        <ele>922.875445</ele>
        <time>2023-01-15T18:26:11.781Z</time>
      </trkpt>
      <trkpt lat="47.16234" lon="6.52527">
        <ele>925.237968</ele>
        <time>2023-01-15T18:26:21.300Z</time>
      </trkpt>
      <trkpt lat="47.16224" lon="6.52534">
        <ele>926.233588</ele>
        <time>2023-01-15T18:26:26.668Z</time>
      </trkpt>
      <trkpt lat="47.16217" lon="6.52544">
        <ele>927.016748</ele>
        <time>2023-01-15T18:26:29.409Z</time>
      </trkpt>
      <trkpt lat="47.16212" lon="6.52556">
        <ele>927.865654</ele>
        <time>2023-01-15T18:26:32.559Z</time>
      </trkpt>
      <trkpt lat="47.16211" lon="6.52574">
        <ele>928.870513</ele>
        <time>2023-01-15T18:26:38.949Z</time>
      </trkpt>
      <trkpt lat="47.16211" lon="6.52597">
        <ele>930.240541</ele>
        <time>2023-01-15T18:26:44.071Z</time>
      </trkpt>
      <trkpt lat="47.16209" lon="6.52608">
        <ele>930.871461</ele>
        <time>2023-01-15T18:26:46.461Z</time>
      </trkpt>
      <trkpt lat="47.162" lon="6.52625">
        <ele>932.11546</ele>
        <time>2023-01-15T18:26:54.230Z</time>
      </trkpt>
      <trkpt lat="47.16188" lon="6.52635">
        <ele>933.311391</ele>
        <time>2023-01-15T18:26:58.366Z</time>
      </trkpt>
      <trkpt lat="47.16166" lon="6.52632">
        <ele>935.121088</ele>
        <time>2023-01-15T18:27:07.915Z</time>
      </trkpt>
      <trkpt lat="47.16143" lon="6.52617">
        <ele>936.486932</ele>
        <time>2023-01-15T18:27:15.255Z</time>
      </trkpt>
      <trkpt lat="47.16088" lon="6.52546">
        <ele>940.519544</ele>
        <time>2023-01-15T18:27:39.986Z</time>
      </trkpt>
      <trkpt lat="47.16072" lon="6.5254">
        <ele>941.380703</ele>
        <time>2023-01-15T18:27:44.888Z</time>
      </trkpt>
      <trkpt lat="47.16042" lon="6.52546">
        <ele>943.034504</ele>
        <time>2023-01-15T18:27:52.055Z</time>
      </trkpt>
      <trkpt lat="47.16031" lon="6.52544">
        <ele>943.649388</ele>
        <time>2023-01-15T18:27:54.529Z</time>
      </trkpt>
      <trkpt lat="47.16017" lon="6.52531">
        <ele>944.584486</ele>
        <time>2023-01-15T18:27:58.232Z</time>
      </trkpt>
      <trkpt lat="47.15971" lon="6.52475">
        <ele>944.743719</ele>
        <time>2023-01-15T18:28:10.313Z</time>
      </trkpt>
      <trkpt lat="47.15964" lon="6.52471">
        <ele>944.719834</ele>
        <time>2023-01-15T18:28:11.637Z</time>
      </trkpt>
      <trkpt lat="47.15954" lon="6.52475">
        <ele>944.687365</ele>
        <time>2023-01-15T18:28:13.590Z</time>
      </trkpt>
      <trkpt lat="47.15949" lon="6.52494">
        <ele>944.640414</ele>
        <time>2023-01-15T18:28:16.343Z</time>
      </trkpt>
      <trkpt lat="47.15932" lon="6.52653">
        <ele>943.46988</ele>
        <time>2023-01-15T18:28:34.899Z</time>
      </trkpt>
      <trkpt lat="47.1593" lon="6.52687">
        <ele>942.075304</ele>
        <time>2023-01-15T18:28:38.245Z</time>
      </trkpt>
      <trkpt lat="47.15937" lon="6.52769">
        <ele>938.708411</ele>
        <time>2023-01-15T18:28:45.825Z</time>
      </trkpt>
      <trkpt lat="47.15936" lon="6.52794">
        <ele>937.72533</ele>
        <time>2023-01-15T18:28:47.927Z</time>
      </trkpt>
      <trkpt lat="47.15933" lon="6.52812">
        <ele>936.963688</ele>
        <time>2023-01-15T18:28:49.540Z</time>
      </trkpt>
      <trkpt lat="47.15905" lon="6.52883">
        <ele>933.624966</ele>
        <time>2023-01-15T18:28:56.344Z</time>
      </trkpt>
      <trkpt lat="47.15747" lon="6.53099">
        <ele>910.255148</ele>
        <time>2023-01-15T18:29:21.621Z</time>
      </trkpt>
      <trkpt lat="47.15729" lon="6.53137">
        <ele>907.581463</ele>
        <time>2023-01-15T18:29:25.378Z</time>
      </trkpt>
      <trkpt lat="47.15722" lon="6.5316">
        <ele>906.096853</ele>
        <time>2023-01-15T18:29:27.481Z</time>
      </trkpt>
      <trkpt lat="47.15711" lon="6.53173">
        <ele>904.869444</ele>
        <time>2023-01-15T18:29:29.257Z</time>
      </trkpt>
      <trkpt lat="47.15706" lon="6.53174">
        <ele>904.437866</ele>
        <time>2023-01-15T18:29:29.881Z</time>
      </trkpt>
      <trkpt lat="47.1569" lon="6.53165">
        <ele>902.952707</ele>
        <time>2023-01-15T18:29:32.011Z</time>
      </trkpt>
      <trkpt lat="47.15669" lon="6.53136">
        <ele>900.476322</ele>
        <time>2023-01-15T18:29:35.648Z</time>
      </trkpt>
      <trkpt lat="47.15657" lon="6.53133">
        <ele>899.414631</ele>
        <time>2023-01-15T18:29:37.316Z</time>
      </trkpt>
      <trkpt lat="47.15625" lon="6.53145">
        <ele>896.979629</ele>
        <time>2023-01-15T18:29:41.784Z</time>
      </trkpt>
      <trkpt lat="47.15608" lon="6.53211">
        <ele>894.079669</ele>
        <time>2023-01-15T18:29:48.415Z</time>
      </trkpt>
      <trkpt lat="47.15584" lon="6.5335">
        <ele>888.220746</ele>
        <time>2023-01-15T18:30:01.949Z</time>
      </trkpt>
      <trkpt lat="47.15591" lon="6.53418">
        <ele>885.413747</ele>
        <time>2023-01-15T18:30:08.390Z</time>
      </trkpt>
      <trkpt lat="47.15603" lon="6.53472">
        <ele>883.035596</ele>
        <time>2023-01-15T18:30:13.656Z</time>
      </trkpt>
      <trkpt lat="47.15637" lon="6.53538">
        <ele>879.618321</ele>
        <time>2023-01-15T18:30:21.387Z</time>
      </trkpt>
      <trkpt lat="47.15656" lon="6.53565">
        <ele>878.040711</ele>
        <time>2023-01-15T18:30:24.994Z</time>
      </trkpt>
      <trkpt lat="47.15652" lon="6.53593">
        <ele>876.856509</ele>
        <time>2023-01-15T18:30:27.675Z</time>
      </trkpt>
      <trkpt lat="47.1562" lon="6.53615">
        <ele>874.459867</ele>
        <time>2023-01-15T18:30:32.624Z</time>
      </trkpt>
      <trkpt lat="47.15587" lon="6.53621">
        <ele>872.040861</ele>
        <time>2023-01-15T18:30:37.264Z</time>
      </trkpt>
      <trkpt lat="47.15527" lon="6.53597">
        <ele>867.596365</ele>
        <time>2023-01-15T18:30:45.570Z</time>
      </trkpt>
      <trkpt lat="47.15441" lon="6.53549">
        <ele>860.691493</ele>
        <time>2023-01-15T18:30:57.576Z</time>
      </trkpt>
      <trkpt lat="47.15403" lon="6.53506">
        <ele>856.762492</ele>
        <time>2023-01-15T18:31:03.813Z</time>
      </trkpt>
      <trkpt lat="47.15366" lon="6.53463">
        <ele>852.836536</ele>
        <time>2023-01-15T18:31:10.062Z</time>
      </trkpt>
      <trkpt lat="47.15356" lon="6.53455">
        <ele>851.963351</ele>
        <time>2023-01-15T18:31:11.337Z</time>
      </trkpt>
      <trkpt lat="47.15202" lon="6.53325">
        <ele>839.481808</ele>
        <time>2023-01-15T18:31:35.139Z</time>
      </trkpt>
      <trkpt lat="47.15088" lon="6.53165">
        <ele>831.735647</ele>
        <time>2023-01-15T18:31:57.808Z</time>
      </trkpt>
      <trkpt lat="47.15032" lon="6.53097">
        <ele>828.611331</ele>
        <time>2023-01-15T18:32:08.727Z</time>
      </trkpt>
      <trkpt lat="47.14996" lon="6.53054">
        <ele>826.715005</ele>
        <time>2023-01-15T18:32:15.751Z</time>
      </trkpt>
      <trkpt lat="47.14929" lon="6.5298">
        <ele>823.253662</ele>
        <time>2023-01-15T18:32:28.237Z</time>
      </trkpt>
      <trkpt lat="47.14907" lon="6.52939">
        <ele>821.796371</ele>
        <time>2023-01-15T18:32:33.224Z</time>
      </trkpt>
      <trkpt lat="47.14878" lon="6.52905">
        <ele>819.796205</ele>
        <time>2023-01-15T18:32:38.449Z</time>
      </trkpt>
      <trkpt lat="47.14856" lon="6.52895">
        <ele>818.51808</ele>
        <time>2023-01-15T18:32:41.610Z</time>
      </trkpt>
      <trkpt lat="47.1484" lon="6.52903">
        <ele>817.521626</ele>
        <time>2023-01-15T18:32:44.012Z</time>
      </trkpt>
      <trkpt lat="47.14827" lon="6.52919">
        <ele>816.569558</ele>
        <time>2023-01-15T18:32:46.416Z</time>
      </trkpt>
      <trkpt lat="47.14812" lon="6.5298">
        <ele>814.054994</ele>
        <time>2023-01-15T18:32:52.697Z</time>
      </trkpt>
      <trkpt lat="47.14807" lon="6.52997">
        <ele>813.347782</ele>
        <time>2023-01-15T18:32:54.367Z</time>
      </trkpt>
      <trkpt lat="47.14793" lon="6.53006">
        <ele>812.490835</ele>
        <time>2023-01-15T18:32:56.478Z</time>
      </trkpt>
      <trkpt lat="47.1478" lon="6.53">
        <ele>811.74186</ele>
        <time>2023-01-15T18:32:58.260Z</time>
      </trkpt>
      <trkpt lat="47.14771" lon="6.52985">
        <ele>810.981176</ele>
        <time>2023-01-15T18:33:00.040Z</time>
      </trkpt>
      <trkpt lat="47.14764" lon="6.52949">
        <ele>809.594752</ele>
        <time>2023-01-15T18:33:03.404Z</time>
      </trkpt>
      <trkpt lat="47.14759" lon="6.52901">
        <ele>807.787201</ele>
        <time>2023-01-15T18:33:07.854Z</time>
      </trkpt>
      <trkpt lat="47.14747" lon="6.52871">
        <ele>806.504654</ele>
        <time>2023-01-15T18:33:11.165Z</time>
      </trkpt>
      <trkpt lat="47.14726" lon="6.52847">
        <ele>805.019087</ele>
        <time>2023-01-15T18:33:14.970Z</time>
      </trkpt>
      <trkpt lat="47.1469" lon="6.52838">
        <ele>803.008336</ele>
        <time>2023-01-15T18:33:20.400Z</time>
      </trkpt>
      <trkpt lat="47.14676" lon="6.52837">
        <ele>802.243836</ele>
        <time>2023-01-15T18:33:22.398Z</time>
      </trkpt>
      <trkpt lat="47.14635" lon="6.52845">
        <ele>800.361234</ele>
        <time>2023-01-15T18:33:28.500Z</time>
      </trkpt>
      <trkpt lat="47.14542" lon="6.52845">
        <ele>796.677342</ele>
        <time>2023-01-15T18:33:41.746Z</time>
      </trkpt>
      <trkpt lat="47.14548" lon="6.52735">
        <ele>793.908523</ele>
        <time>2023-01-15T18:33:52.674Z</time>
      </trkpt>
      <trkpt lat="47.14551" lon="6.52658">
        <ele>792.732451</ele>
        <time>2023-01-15T18:34:00.194Z</time>
      </trkpt>
      <trkpt lat="47.14554" lon="6.52593">
        <ele>791.729721</ele>
        <time>2023-01-15T18:34:06.742Z</time>
      </trkpt>
      <trkpt lat="47.14553" lon="6.52574">
        <ele>791.437636</ele>
        <time>2023-01-15T18:34:08.700Z</time>
      </trkpt>
      <trkpt lat="47.14546" lon="6.52556">
        <ele>791.126186</ele>
        <time>2023-01-15T18:34:10.779Z</time>
      </trkpt>
      <trkpt lat="47.1454" lon="6.52548">
        <ele>790.940003</ele>
        <time>2023-01-15T18:34:12.213Z</time>
      </trkpt>
      <trkpt lat="47.14526" lon="6.52539">
        <ele>790.605465</ele>
        <time>2023-01-15T18:34:14.750Z</time>
      </trkpt>
      <trkpt lat="47.14517" lon="6.52538">
        <ele>790.390805</ele>
        <time>2023-01-15T18:34:16.215Z</time>
      </trkpt>
      <trkpt lat="47.14501" lon="6.52538">
        <ele>790.174625</ele>
        <time>2023-01-15T18:34:19.092Z</time>
      </trkpt>
      <trkpt lat="47.14483" lon="6.5254">
        <ele>790.265954</ele>
        <time>2023-01-15T18:34:22.148Z</time>
      </trkpt>
      <trkpt lat="47.14459" lon="6.52541">
        <ele>790.389501</ele>
        <time>2023-01-15T18:34:26.730Z</time>
      </trkpt>
      <trkpt lat="47.14431" lon="6.52533">
        <ele>790.537462</ele>
        <time>2023-01-15T18:34:32.203Z</time>
      </trkpt>
      <trkpt lat="47.14425" lon="6.52524">
        <ele>790.580771</ele>
        <time>2023-01-15T18:34:33.887Z</time>
      </trkpt>
      <trkpt lat="47.14416" lon="6.52522">
        <ele>790.624401</ele>
        <time>2023-01-15T18:34:35.389Z</time>
      </trkpt>
      <trkpt lat="47.1441" lon="6.52525">
        <ele>790.661367</ele>
        <time>2023-01-15T18:34:36.767Z</time>
      </trkpt>
      <trkpt lat="47.14404" lon="6.52535">
        <ele>790.708361</ele>
        <time>2023-01-15T18:34:38.777Z</time>
      </trkpt>
      <trkpt lat="47.14392" lon="6.52542">
        <ele>790.771051</ele>
        <time>2023-01-15T18:34:41.285Z</time>
      </trkpt>
      <trkpt lat="47.14365" lon="6.52548">
        <ele>790.909944</ele>
        <time>2023-01-15T18:34:46.882Z</time>
      </trkpt>
      <trkpt lat="47.1424" lon="6.52557">
        <ele>792.33615</ele>
        <time>2023-01-15T18:35:14.959Z</time>
      </trkpt>
      <trkpt lat="47.14199" lon="6.52568">
        <ele>792.898056</ele>
        <time>2023-01-15T18:35:23.826Z</time>
      </trkpt>
      <trkpt lat="47.14154" lon="6.52581">
        <ele>793.489183</ele>
        <time>2023-01-15T18:35:33.404Z</time>
      </trkpt>
      <trkpt lat="47.14119" lon="6.52582">
        <ele>793.362947</ele>
        <time>2023-01-15T18:35:40.575Z</time>
      </trkpt>
      <trkpt lat="47.13911" lon="6.5251">
        <ele>791.331751</ele>
        <time>2023-01-15T18:36:17.482Z</time>
      </trkpt>
      <trkpt lat="47.13889" lon="6.52506">
        <ele>790.868534</ele>
        <time>2023-01-15T18:36:20.676Z</time>
      </trkpt>
      <trkpt lat="47.13874" lon="6.52507">
        <ele>790.557569</ele>
        <time>2023-01-15T18:36:22.853Z</time>
      </trkpt>
      <trkpt lat="47.13868" lon="6.52509">
        <ele>790.427661</ele>
        <time>2023-01-15T18:36:23.749Z</time>
      </trkpt>
      <trkpt lat="47.13866" lon="6.5251">
        <ele>790.374627</ele>
        <time>2023-01-15T18:36:24.119Z</time>
      </trkpt>
      <trkpt lat="47.13863" lon="6.52499">
        <ele>790.210938</ele>
        <time>2023-01-15T18:36:25.256Z</time>
      </trkpt>
      <trkpt lat="47.13853" lon="6.52491">
        <ele>789.961669</ele>
        <time>2023-01-15T18:36:27.129Z</time>
      </trkpt>
      <trkpt lat="47.13766" lon="6.52455">
        <ele>787.694492</ele>
        <time>2023-01-15T18:36:40.844Z</time>
      </trkpt>
      <trkpt lat="47.13639" lon="6.524">
        <ele>783.839159</ele>
        <time>2023-01-15T18:37:01.690Z</time>
      </trkpt>
      <trkpt lat="47.13588" lon="6.52384">
        <ele>782.225421</ele>
        <time>2023-01-15T18:37:09.875Z</time>
      </trkpt>
      <trkpt lat="47.13572" lon="6.52388">
        <ele>781.719425</ele>
        <time>2023-01-15T18:37:12.509Z</time>
      </trkpt>
      <trkpt lat="47.13556" lon="6.52398">
        <ele>781.182343</ele>
        <time>2023-01-15T18:37:15.187Z</time>
      </trkpt>
      <trkpt lat="47.13537" lon="6.52418">
        <ele>780.444409</ele>
        <time>2023-01-15T18:37:18.938Z</time>
      </trkpt>
      <trkpt lat="47.13524" lon="6.52439">
        <ele>779.85696</ele>
        <time>2023-01-15T18:37:21.808Z</time>
      </trkpt>
      <trkpt lat="47.13504" lon="6.52469">
        <ele>778.970474</ele>
        <time>2023-01-15T18:37:26.099Z</time>
      </trkpt>
      <trkpt lat="47.13493" lon="6.52481">
        <ele>778.52047</ele>
        <time>2023-01-15T18:37:28.294Z</time>
      </trkpt>
      <trkpt lat="47.13472" lon="6.52495">
        <ele>777.541034</ele>
        <time>2023-01-15T18:37:31.624Z</time>
      </trkpt>
      <trkpt lat="47.1345" lon="6.52499">
        <ele>776.402208</ele>
        <time>2023-01-15T18:37:34.816Z</time>
      </trkpt>
      <trkpt lat="47.13418" lon="6.52493">
        <ele>774.728857</ele>
        <time>2023-01-15T18:37:39.290Z</time>
      </trkpt>
      <trkpt lat="47.1341" lon="6.52491">
        <ele>774.301346</ele>
        <time>2023-01-15T18:37:40.442Z</time>
      </trkpt>
      <trkpt lat="47.13355" lon="6.52455">
        <ele>771.139767</ele>
        <time>2023-01-15T18:37:48.891Z</time>
      </trkpt>
      <trkpt lat="47.13316" lon="6.52428">
        <ele>768.885676</ele>
        <time>2023-01-15T18:37:54.930Z</time>
      </trkpt>
      <trkpt lat="47.13287" lon="6.52408">
        <ele>767.25621</ele>
        <time>2023-01-15T18:37:59.282Z</time>
      </trkpt>
      <trkpt lat="47.13267" lon="6.524">
        <ele>766.23537</ele>
        <time>2023-01-15T18:38:02.072Z</time>
      </trkpt>
      <trkpt lat="47.1324" lon="6.52399">
        <ele>764.836424</ele>
        <time>2023-01-15T18:38:05.911Z</time>
      </trkpt>
      <trkpt lat="47.13219" lon="6.52408">
        <ele>763.705277</ele>
        <time>2023-01-15T18:38:08.979Z</time>
      </trkpt>
      <trkpt lat="47.13212" lon="6.52411">
        <ele>763.365655</ele>
        <time>2023-01-15T18:38:09.944Z</time>
      </trkpt>
      <trkpt lat="47.13201" lon="6.52416">
        <ele>762.755706</ele>
        <time>2023-01-15T18:38:11.664Z</time>
      </trkpt>
      <trkpt lat="47.13188" lon="6.52421">
        <ele>762.108672</ele>
        <time>2023-01-15T18:38:13.453Z</time>
      </trkpt>
      <trkpt lat="47.13185" lon="6.52423">
        <ele>761.907628</ele>
        <time>2023-01-15T18:38:14.010Z</time>
      </trkpt>
      <trkpt lat="47.13162" lon="6.52431">
        <ele>760.707197</ele>
        <time>2023-01-15T18:38:17.512Z</time>
      </trkpt>
      <trkpt lat="47.13149" lon="6.52438">
        <ele>760.017977</ele>
        <time>2023-01-15T18:38:19.490Z</time>
      </trkpt>
      <trkpt lat="47.13137" lon="6.52454">
        <ele>759.670334</ele>
        <time>2023-01-15T18:38:22.036Z</time>
      </trkpt>
      <trkpt lat="47.13116" lon="6.52478">
        <ele>759.670334</ele>
        <time>2023-01-15T18:38:25.995Z</time>
      </trkpt>
      <trkpt lat="47.13092" lon="6.52486">
        <ele>759.670334</ele>
        <time>2023-01-15T18:38:29.559Z</time>
      </trkpt>
      <trkpt lat="47.13061" lon="6.52502">
        <ele>759.670334</ele>
        <time>2023-01-15T18:38:34.546Z</time>
      </trkpt>
      <trkpt lat="47.13054" lon="6.52509">
        <ele>759.670334</ele>
        <time>2023-01-15T18:38:35.784Z</time>
      </trkpt>
      <trkpt lat="47.13042" lon="6.52526">
        <ele>759.670334</ele>
        <time>2023-01-15T18:38:38.428Z</time>
      </trkpt>
      <trkpt lat="47.1303" lon="6.52556">
        <ele>759.670334</ele>
        <time>2023-01-15T18:38:42.218Z</time>
      </trkpt>
      <trkpt lat="47.13021" lon="6.52551">
        <ele>759.670334</ele>
        <time>2023-01-15T18:38:43.559Z</time>
      </trkpt>
      <trkpt lat="47.13" lon="6.52535">
        <ele>759.670334</ele>
        <time>2023-01-15T18:38:47.306Z</time>
      </trkpt>
      <trkpt lat="47.12997" lon="6.52533">
        <ele>759.670334</ele>
        <time>2023-01-15T18:38:47.724Z</time>
      </trkpt>
      <trkpt lat="47.12979" lon="6.52521">
        <ele>759.670334</ele>
        <time>2023-01-15T18:38:50.844Z</time>
      </trkpt>
      <trkpt lat="47.12958" lon="6.52506">
        <ele>759.670334</ele>
        <time>2023-01-15T18:38:54.552Z</time>
      </trkpt>
    </trkseg>
  </trk>
  <trk>
    <name><![CDATA[Par Flangebouche modifié]]></name>
    <extensions>
      <line xmlns="http://www.topografix.com/GPX/gpx_style/0/2">
        <color>FF0000</color>
        <width>4</width>
          <extensions>
            <sens>1</sens>
          </extensions>
      </line>
    </extensions>
    <trkseg>
      <trkpt lat="47.13008" lon="6.52541">
        <ele>754.8</ele>
      </trkpt>
      <trkpt lat="47.13033" lon="6.52554">
        <ele>755.9</ele>
      </trkpt>
      <trkpt lat="47.13054" lon="6.52509">
        <ele>755.9</ele>
      </trkpt>
      <trkpt lat="47.1306" lon="6.52502">
        <ele>756.2</ele>
      </trkpt>
      <trkpt lat="47.13066" lon="6.52499">
        <ele>756.4</ele>
      </trkpt>
      <trkpt lat="47.13085" lon="6.52488">
        <ele>757.6</ele>
      </trkpt>
      <trkpt lat="47.13092" lon="6.52486">
        <ele>758.1</ele>
      </trkpt>
      <trkpt lat="47.131" lon="6.52485">
        <ele>758.7</ele>
      </trkpt>
      <trkpt lat="47.13116" lon="6.52478">
        <ele>760</ele>
      </trkpt>
      <trkpt lat="47.13122" lon="6.52472">
        <ele>760.4</ele>
      </trkpt>
      <trkpt lat="47.13137" lon="6.52454">
        <ele>761.6</ele>
      </trkpt>
      <trkpt lat="47.1314" lon="6.52449">
        <ele>761.9</ele>
      </trkpt>
      <trkpt lat="47.13149" lon="6.52438">
        <ele>763.1</ele>
      </trkpt>
      <trkpt lat="47.13155" lon="6.52434">
        <ele>763.7</ele>
      </trkpt>
      <trkpt lat="47.13162" lon="6.52431">
        <ele>764.2</ele>
      </trkpt>
      <trkpt lat="47.13176" lon="6.52427">
        <ele>765</ele>
      </trkpt>
      <trkpt lat="47.13185" lon="6.52423">
        <ele>765.4</ele>
      </trkpt>
      <trkpt lat="47.13188" lon="6.52421">
        <ele>765.6</ele>
      </trkpt>
      <trkpt lat="47.13197" lon="6.52418">
        <ele>766.1</ele>
      </trkpt>
      <trkpt lat="47.13201" lon="6.52416">
        <ele>766.5</ele>
      </trkpt>
      <trkpt lat="47.13212" lon="6.52411">
        <ele>767.6</ele>
      </trkpt>
      <trkpt lat="47.13218" lon="6.52408">
        <ele>768.1</ele>
      </trkpt>
      <trkpt lat="47.1324" lon="6.52399">
        <ele>769.7</ele>
      </trkpt>
      <trkpt lat="47.13258" lon="6.52398">
        <ele>771.2</ele>
      </trkpt>
      <trkpt lat="47.13275" lon="6.52402">
        <ele>772.8</ele>
      </trkpt>
      <trkpt lat="47.13308" lon="6.52424">
        <ele>774</ele>
      </trkpt>
      <trkpt lat="47.13316" lon="6.52428">
        <ele>774.7</ele>
      </trkpt>
      <trkpt lat="47.13317" lon="6.52424">
        <ele>775</ele>
      </trkpt>
      <trkpt lat="47.13332" lon="6.524">
        <ele>778.1</ele>
      </trkpt>
      <trkpt lat="47.13333" lon="6.52395">
        <ele>778.5</ele>
      </trkpt>
      <trkpt lat="47.13333" lon="6.52391">
        <ele>778.8</ele>
      </trkpt>
      <trkpt lat="47.13359" lon="6.52398">
        <ele>782</ele>
      </trkpt>
      <trkpt lat="47.13388" lon="6.52401">
        <ele>785.5</ele>
      </trkpt>
      <trkpt lat="47.1339" lon="6.52386">
        <ele>786.2</ele>
      </trkpt>
      <trkpt lat="47.13393" lon="6.52372">
        <ele>787</ele>
      </trkpt>
      <trkpt lat="47.13402" lon="6.52344">
        <ele>788.9</ele>
      </trkpt>
      <trkpt lat="47.13413" lon="6.523">
        <ele>791.5</ele>
      </trkpt>
      <trkpt lat="47.1342" lon="6.52269">
        <ele>792.7</ele>
      </trkpt>
      <trkpt lat="47.13421" lon="6.5225">
        <ele>793.5</ele>
      </trkpt>
      <trkpt lat="47.1342" lon="6.52243">
        <ele>793.8</ele>
      </trkpt>
      <trkpt lat="47.13419" lon="6.52226">
        <ele>794.9</ele>
      </trkpt>
      <trkpt lat="47.13413" lon="6.52187">
        <ele>796.4</ele>
      </trkpt>
      <trkpt lat="47.13407" lon="6.52163">
        <ele>798.3</ele>
      </trkpt>
      <trkpt lat="47.13402" lon="6.52152">
        <ele>799</ele>
      </trkpt>
      <trkpt lat="47.13396" lon="6.52144">
        <ele>799.2</ele>
      </trkpt>
      <trkpt lat="47.13388" lon="6.52135">
        <ele>799.5</ele>
      </trkpt>
      <trkpt lat="47.1338" lon="6.52129">
        <ele>800.6</ele>
      </trkpt>
      <trkpt lat="47.13367" lon="6.52118">
        <ele>802.2</ele>
      </trkpt>
      <trkpt lat="47.13338" lon="6.52087">
        <ele>805.6</ele>
      </trkpt>
      <trkpt lat="47.13316" lon="6.52055">
        <ele>809.5</ele>
      </trkpt>
      <trkpt lat="47.13299" lon="6.52026">
        <ele>812.3</ele>
      </trkpt>
      <trkpt lat="47.1329" lon="6.52005">
        <ele>814</ele>
      </trkpt>
      <trkpt lat="47.13281" lon="6.51976">
        <ele>816.1</ele>
      </trkpt>
      <trkpt lat="47.13281" lon="6.51969">
        <ele>816.7</ele>
      </trkpt>
      <trkpt lat="47.13278" lon="6.51926">
        <ele>819.4</ele>
      </trkpt>
      <trkpt lat="47.13278" lon="6.51913">
        <ele>820.3</ele>
      </trkpt>
      <trkpt lat="47.13275" lon="6.51849">
        <ele>825.3</ele>
      </trkpt>
      <trkpt lat="47.13275" lon="6.51785">
        <ele>828.2</ele>
      </trkpt>
      <trkpt lat="47.1325" lon="6.51638">
        <ele>838.1</ele>
      </trkpt>
      <trkpt lat="47.13233" lon="6.51528">
        <ele>845.5</ele>
      </trkpt>
      <trkpt lat="47.13221" lon="6.51404">
        <ele>852.8</ele>
      </trkpt>
      <trkpt lat="47.1322" lon="6.51365">
        <ele>855.4</ele>
      </trkpt>
      <trkpt lat="47.13219" lon="6.51316">
        <ele>857.3</ele>
      </trkpt>
      <trkpt lat="47.13214" lon="6.51226">
        <ele>862.6</ele>
      </trkpt>
      <trkpt lat="47.13208" lon="6.51189">
        <ele>864.4</ele>
      </trkpt>
      <trkpt lat="47.13187" lon="6.51111">
        <ele>866.9</ele>
      </trkpt>
      <trkpt lat="47.13179" lon="6.51056">
        <ele>869.3</ele>
        <extensions>
          <visugpx:TrkExtension xmlns:visugpx="https://www.visugpx.com/editgpx/">
            <visugpx:node>1</visugpx:node>
            </visugpx:TrkExtension>
        </extensions>
      </trkpt>
      <trkpt lat="47.13179" lon="6.51051">
        <ele>869.3</ele>
      </trkpt>
      <trkpt lat="47.13181" lon="6.51014">
        <ele>870</ele>
      </trkpt>
      <trkpt lat="47.13211" lon="6.50867">
        <ele>877.2</ele>
      </trkpt>
      <trkpt lat="47.13217" lon="6.50782">
        <ele>880.4</ele>
      </trkpt>
      <trkpt lat="47.13225" lon="6.50735">
        <ele>881.4</ele>
      </trkpt>
      <trkpt lat="47.13252" lon="6.50662">
        <ele>885.3</ele>
      </trkpt>
      <trkpt lat="47.13272" lon="6.50623">
        <ele>887.7</ele>
      </trkpt>
      <trkpt lat="47.13306" lon="6.50582">
        <ele>890</ele>
      </trkpt>
      <trkpt lat="47.13382" lon="6.50519">
        <ele>894.2</ele>
      </trkpt>
      <trkpt lat="47.13398" lon="6.50503">
        <ele>894.8</ele>
      </trkpt>
      <trkpt lat="47.13471" lon="6.50423">
        <ele>895.6</ele>
      </trkpt>
      <trkpt lat="47.13502" lon="6.50385">
        <ele>893.7</ele>
      </trkpt>
      <trkpt lat="47.13499" lon="6.50379">
        <ele>893.3</ele>
        <extensions>
          <visugpx:TrkExtension xmlns:visugpx="https://www.visugpx.com/editgpx/">
            <visugpx:node>2</visugpx:node>
            </visugpx:TrkExtension>
        </extensions>
      </trkpt>
      <trkpt lat="47.13506" lon="6.50369">
        <ele>892.6</ele>
      </trkpt>
      <trkpt lat="47.13525" lon="6.50356">
        <ele>891.5</ele>
      </trkpt>
      <trkpt lat="47.13522" lon="6.50266">
        <ele>882</ele>
      </trkpt>
      <trkpt lat="47.13436" lon="6.50087">
        <ele>860.6</ele>
      </trkpt>
      <trkpt lat="47.13436" lon="6.50031">
        <ele>852.9</ele>
      </trkpt>
      <trkpt lat="47.13434" lon="6.50004">
        <ele>848.8</ele>
      </trkpt>
      <trkpt lat="47.13438" lon="6.49965">
        <ele>843.7</ele>
      </trkpt>
      <trkpt lat="47.13453" lon="6.49918">
        <ele>838.1</ele>
      </trkpt>
      <trkpt lat="47.13447" lon="6.49896">
        <ele>835.8</ele>
      </trkpt>
      <trkpt lat="47.13421" lon="6.4986">
        <ele>831.9</ele>
      </trkpt>
      <trkpt lat="47.134" lon="6.49861">
        <ele>832</ele>
      </trkpt>
      <trkpt lat="47.13354" lon="6.49902">
        <ele>833.2</ele>
      </trkpt>
      <trkpt lat="47.13342" lon="6.49904">
        <ele>832.9</ele>
      </trkpt>
      <trkpt lat="47.13302" lon="6.49897">
        <ele>831.5</ele>
      </trkpt>
      <trkpt lat="47.1327" lon="6.49901">
        <ele>832.6</ele>
      </trkpt>
      <trkpt lat="47.13237" lon="6.4986">
        <ele>832.3</ele>
      </trkpt>
      <trkpt lat="47.1323" lon="6.49814">
        <ele>828.2</ele>
      </trkpt>
      <trkpt lat="47.13221" lon="6.49776">
        <ele>823.8</ele>
      </trkpt>
      <trkpt lat="47.13216" lon="6.49733">
        <ele>818.8</ele>
      </trkpt>
      <trkpt lat="47.13221" lon="6.49667">
        <ele>810.4</ele>
      </trkpt>
      <trkpt lat="47.13192" lon="6.49627">
        <ele>813.2</ele>
      </trkpt>
      <trkpt lat="47.13177" lon="6.49578">
        <ele>813.9</ele>
      </trkpt>
      <trkpt lat="47.13172" lon="6.49542">
        <ele>812.9</ele>
      </trkpt>
      <trkpt lat="47.13188" lon="6.49497">
        <ele>806.4</ele>
      </trkpt>
      <trkpt lat="47.13195" lon="6.4944">
        <ele>800.6</ele>
      </trkpt>
      <trkpt lat="47.13229" lon="6.49386">
        <ele>790.4</ele>
      </trkpt>
      <trkpt lat="47.1322" lon="6.49319">
        <ele>785.3</ele>
      </trkpt>
      <trkpt lat="47.13207" lon="6.49268">
        <ele>781.3</ele>
      </trkpt>
      <trkpt lat="47.1317" lon="6.49173">
        <ele>774.4</ele>
      </trkpt>
      <trkpt lat="47.13168" lon="6.4911">
        <ele>767.8</ele>
      </trkpt>
      <trkpt lat="47.13212" lon="6.49049">
        <ele>757.2</ele>
      </trkpt>
      <trkpt lat="47.13223" lon="6.48997">
        <ele>753.8</ele>
      </trkpt>
      <trkpt lat="47.13243" lon="6.48942">
        <ele>751.5</ele>
      </trkpt>
      <trkpt lat="47.13276" lon="6.48858">
        <ele>747.9</ele>
      </trkpt>
      <trkpt lat="47.13321" lon="6.4871">
        <ele>740</ele>
      </trkpt>
      <trkpt lat="47.13352" lon="6.4865">
        <ele>736.7</ele>
      </trkpt>
      <trkpt lat="47.13371" lon="6.48584">
        <ele>734.7</ele>
      </trkpt>
      <trkpt lat="47.1341" lon="6.48519">
        <ele>731.9</ele>
      </trkpt>
      <trkpt lat="47.13457" lon="6.48431">
        <ele>729.3</ele>
      </trkpt>
      <trkpt lat="47.13525" lon="6.48324">
        <ele>726.1</ele>
      </trkpt>
      <trkpt lat="47.13609" lon="6.48237">
        <ele>724.9</ele>
      </trkpt>
      <trkpt lat="47.13698" lon="6.48171">
        <ele>729</ele>
      </trkpt>
      <trkpt lat="47.13703" lon="6.48118">
        <ele>728.2</ele>
      </trkpt>
      <trkpt lat="47.13716" lon="6.48012">
        <ele>728.9</ele>
      </trkpt>
      <trkpt lat="47.13688" lon="6.47867">
        <ele>724</ele>
      </trkpt>
      <trkpt lat="47.13672" lon="6.47741">
        <ele>720.8</ele>
      </trkpt>
      <trkpt lat="47.13672" lon="6.47698">
        <ele>721</ele>
      </trkpt>
      <trkpt lat="47.13679" lon="6.4764">
        <ele>722</ele>
      </trkpt>
      <trkpt lat="47.13696" lon="6.47588">
        <ele>723.8</ele>
      </trkpt>
      <trkpt lat="47.13716" lon="6.47561">
        <ele>724.8</ele>
      </trkpt>
      <trkpt lat="47.13773" lon="6.47527">
        <ele>728.1</ele>
      </trkpt>
      <trkpt lat="47.1382" lon="6.47492">
        <ele>728.1</ele>
      </trkpt>
      <trkpt lat="47.13829" lon="6.47461">
        <ele>728.2</ele>
      </trkpt>
      <trkpt lat="47.13832" lon="6.47396">
        <ele>727.1</ele>
      </trkpt>
      <trkpt lat="47.13827" lon="6.47344">
        <ele>727.2</ele>
      </trkpt>
      <trkpt lat="47.13823" lon="6.4725">
        <ele>729</ele>
      </trkpt>
      <trkpt lat="47.13821" lon="6.47199">
        <ele>732.2</ele>
      </trkpt>
      <trkpt lat="47.13804" lon="6.47156">
        <ele>734.4</ele>
      </trkpt>
      <trkpt lat="47.13802" lon="6.47129">
        <ele>735.4</ele>
      </trkpt>
      <trkpt lat="47.13812" lon="6.47055">
        <ele>738.5</ele>
      </trkpt>
      <trkpt lat="47.1381" lon="6.46994">
        <ele>740.1</ele>
      </trkpt>
      <trkpt lat="47.13822" lon="6.46922">
        <ele>741.3</ele>
      </trkpt>
      <trkpt lat="47.13824" lon="6.46837">
        <ele>742</ele>
      </trkpt>
      <trkpt lat="47.13795" lon="6.46663">
        <ele>739.1</ele>
      </trkpt>
      <trkpt lat="47.13775" lon="6.46568">
        <ele>735.9</ele>
      </trkpt>
      <trkpt lat="47.13754" lon="6.46533">
        <ele>736.6</ele>
      </trkpt>
      <trkpt lat="47.13692" lon="6.46498">
        <ele>739</ele>
      </trkpt>
      <trkpt lat="47.13619" lon="6.46431">
        <ele>738.5</ele>
      </trkpt>
      <trkpt lat="47.13541" lon="6.46371">
        <ele>737.8</ele>
      </trkpt>
      <trkpt lat="47.13531" lon="6.46349">
        <ele>738.5</ele>
      </trkpt>
      <trkpt lat="47.13453" lon="6.4605">
        <ele>739.2</ele>
      </trkpt>
      <trkpt lat="47.13433" lon="6.45979">
        <ele>739</ele>
      </trkpt>
      <trkpt lat="47.13433" lon="6.45949">
        <ele>738.6</ele>
      </trkpt>
      <trkpt lat="47.13458" lon="6.45827">
        <ele>735.9</ele>
      </trkpt>
      <trkpt lat="47.13466" lon="6.45702">
        <ele>734.2</ele>
      </trkpt>
      <trkpt lat="47.13519" lon="6.45479">
        <ele>731.3</ele>
      </trkpt>
      <trkpt lat="47.1362" lon="6.45161">
        <ele>729.5</ele>
      </trkpt>
      <trkpt lat="47.13623" lon="6.4514">
        <ele>729</ele>
      </trkpt>
      <trkpt lat="47.13611" lon="6.4513">
        <ele>728.1</ele>
      </trkpt>
      <trkpt lat="47.13557" lon="6.45103">
        <ele>730.9</ele>
      </trkpt>
      <trkpt lat="47.13335" lon="6.44924">
        <ele>734.2</ele>
      </trkpt>
      <trkpt lat="47.13286" lon="6.44864">
        <ele>730.9</ele>
      </trkpt>
      <trkpt lat="47.13251" lon="6.44788">
        <ele>729.7</ele>
      </trkpt>
      <trkpt lat="47.13162" lon="6.44637">
        <ele>720.9</ele>
      </trkpt>
      <trkpt lat="47.1314" lon="6.44572">
        <ele>717.6</ele>
      </trkpt>
      <trkpt lat="47.13096" lon="6.44416">
        <ele>713</ele>
      </trkpt>
      <trkpt lat="47.13065" lon="6.44172">
        <ele>714.9</ele>
      </trkpt>
      <trkpt lat="47.13069" lon="6.44138">
        <ele>713.5</ele>
      </trkpt>
      <trkpt lat="47.13173" lon="6.44071">
        <ele>709.6</ele>
      </trkpt>
      <trkpt lat="47.13194" lon="6.44061">
        <ele>711.7</ele>
      </trkpt>
      <trkpt lat="47.13242" lon="6.44052">
        <ele>714.6</ele>
      </trkpt>
      <trkpt lat="47.13271" lon="6.44004">
        <ele>717.5</ele>
      </trkpt>
      <trkpt lat="47.13311" lon="6.43973">
        <ele>719</ele>
      </trkpt>
      <trkpt lat="47.1333" lon="6.43945">
        <ele>718.3</ele>
      </trkpt>
      <trkpt lat="47.13334" lon="6.4393">
        <ele>717.9</ele>
      </trkpt>
      <trkpt lat="47.13332" lon="6.43892">
        <ele>717.3</ele>
      </trkpt>
      <trkpt lat="47.13327" lon="6.43839">
        <ele>717.1</ele>
      </trkpt>
      <trkpt lat="47.13314" lon="6.43827">
        <ele>716.8</ele>
      </trkpt>
      <trkpt lat="47.1327" lon="6.43826">
        <ele>719.2</ele>
      </trkpt>
      <trkpt lat="47.1324" lon="6.43813">
        <ele>720.7</ele>
      </trkpt>
      <trkpt lat="47.13079" lon="6.43713">
        <ele>712.5</ele>
      </trkpt>
      <trkpt lat="47.13061" lon="6.43701">
        <ele>711.1</ele>
      </trkpt>
      <trkpt lat="47.13044" lon="6.43671">
        <ele>710.6</ele>
      </trkpt>
      <trkpt lat="47.13034" lon="6.43623">
        <ele>710</ele>
      </trkpt>
      <trkpt lat="47.12946" lon="6.43571">
        <ele>710.8</ele>
      </trkpt>
      <trkpt lat="47.12875" lon="6.43544">
        <ele>712.4</ele>
      </trkpt>
      <trkpt lat="47.12852" lon="6.4351">
        <ele>715.6</ele>
      </trkpt>
      <trkpt lat="47.12848" lon="6.43479">
        <ele>713.1</ele>
      </trkpt>
      <trkpt lat="47.12855" lon="6.43461">
        <ele>712.1</ele>
      </trkpt>
      <trkpt lat="47.12898" lon="6.43422">
        <ele>714.5</ele>
      </trkpt>
      <trkpt lat="47.12919" lon="6.43381">
        <ele>718.3</ele>
      </trkpt>
      <trkpt lat="47.12912" lon="6.43358">
        <ele>718.7</ele>
      </trkpt>
      <trkpt lat="47.12848" lon="6.43312">
        <ele>718.9</ele>
      </trkpt>
      <trkpt lat="47.12785" lon="6.43252">
        <ele>717.8</ele>
      </trkpt>
      <trkpt lat="47.12715" lon="6.4316">
        <ele>719</ele>
      </trkpt>
      <trkpt lat="47.12644" lon="6.43111">
        <ele>719</ele>
      </trkpt>
      <trkpt lat="47.12559" lon="6.43036">
        <ele>716.3</ele>
      </trkpt>
      <trkpt lat="47.12521" lon="6.4299">
        <ele>712.5</ele>
      </trkpt>
      <trkpt lat="47.12502" lon="6.4295">
        <ele>714.9</ele>
      </trkpt>
      <trkpt lat="47.12381" lon="6.42716">
        <ele>715.5</ele>
      </trkpt>
      <trkpt lat="47.12336" lon="6.42646">
        <ele>718</ele>
      </trkpt>
      <trkpt lat="47.12285" lon="6.42547">
        <ele>717.2</ele>
      </trkpt>
      <trkpt lat="47.12242" lon="6.42453">
        <ele>718.1</ele>
      </trkpt>
      <trkpt lat="47.12215" lon="6.42366">
        <ele>717</ele>
      </trkpt>
      <trkpt lat="47.12133" lon="6.42222">
        <ele>717</ele>
      </trkpt>
      <trkpt lat="47.12058" lon="6.42107">
        <ele>716</ele>
      </trkpt>
      <trkpt lat="47.12025" lon="6.42043">
        <ele>717</ele>
      </trkpt>
      <trkpt lat="47.11945" lon="6.41946">
        <ele>717</ele>
      </trkpt>
      <trkpt lat="47.11824" lon="6.41741">
        <ele>719.1</ele>
      </trkpt>
      <trkpt lat="47.11696" lon="6.41805">
        <ele>728.8</ele>
      </trkpt>
      <trkpt lat="47.11629" lon="6.41853">
        <ele>728.6</ele>
      </trkpt>
      <trkpt lat="47.11545" lon="6.41867">
        <ele>732.4</ele>
      </trkpt>
      <trkpt lat="47.11469" lon="6.41834">
        <ele>738.2</ele>
      </trkpt>
      <trkpt lat="47.11443" lon="6.41835">
        <ele>740</ele>
      </trkpt>
      <trkpt lat="47.11393" lon="6.41871">
        <ele>740.9</ele>
      </trkpt>
      <trkpt lat="47.11349" lon="6.41894">
        <ele>738.5</ele>
      </trkpt>
      <trkpt lat="47.11113" lon="6.4191">
        <ele>727.9</ele>
      </trkpt>
      <trkpt lat="47.11059" lon="6.41897">
        <ele>729.9</ele>
      </trkpt>
      <trkpt lat="47.1104" lon="6.4188">
        <ele>731.3</ele>
      </trkpt>
      <trkpt lat="47.11002" lon="6.41801">
        <ele>735.8</ele>
      </trkpt>
      <trkpt lat="47.10987" lon="6.41784">
        <ele>736.9</ele>
      </trkpt>
      <trkpt lat="47.10904" lon="6.41734">
        <ele>741.3</ele>
      </trkpt>
      <trkpt lat="47.10855" lon="6.41718">
        <ele>743</ele>
      </trkpt>
      <trkpt lat="47.10796" lon="6.41739">
        <ele>744.5</ele>
      </trkpt>
      <trkpt lat="47.1078" lon="6.41767">
        <ele>744.9</ele>
      </trkpt>
      <trkpt lat="47.10752" lon="6.41785">
        <ele>746.2</ele>
      </trkpt>
      <trkpt lat="47.10726" lon="6.41773">
        <ele>749.4</ele>
      </trkpt>
      <trkpt lat="47.10682" lon="6.41732">
        <ele>756</ele>
      </trkpt>
      <trkpt lat="47.10651" lon="6.41725">
        <ele>759.6</ele>
      </trkpt>
      <trkpt lat="47.10615" lon="6.41697">
        <ele>761.8</ele>
      </trkpt>
      <trkpt lat="47.10557" lon="6.4168">
        <ele>763.1</ele>
      </trkpt>
      <trkpt lat="47.10518" lon="6.41632">
        <ele>765.4</ele>
      </trkpt>
      <trkpt lat="47.10486" lon="6.41565">
        <ele>768.6</ele>
      </trkpt>
      <trkpt lat="47.10456" lon="6.41521">
        <ele>770.9</ele>
      </trkpt>
      <trkpt lat="47.10433" lon="6.41506">
        <ele>772.3</ele>
      </trkpt>
      <trkpt lat="47.10409" lon="6.415">
        <ele>773.3</ele>
      </trkpt>
      <trkpt lat="47.10294" lon="6.41487">
        <ele>777.4</ele>
      </trkpt>
      <trkpt lat="47.10274" lon="6.4147">
        <ele>777.8</ele>
      </trkpt>
      <trkpt lat="47.10265" lon="6.41453">
        <ele>777.1</ele>
      </trkpt>
      <trkpt lat="47.10261" lon="6.41453">
        <ele>776.7</ele>
      </trkpt>
      <trkpt lat="47.10274" lon="6.41473">
        <ele>777.7</ele>
      </trkpt>
      <trkpt lat="47.10275" lon="6.41467">
        <ele>778</ele>
      </trkpt>
      <trkpt lat="47.10266" lon="6.41456">
        <ele>777.2</ele>
      </trkpt>
      <trkpt lat="47.1025" lon="6.41415">
        <ele>776.2</ele>
      </trkpt>
      <trkpt lat="47.10229" lon="6.41381">
        <ele>776.2</ele>
      </trkpt>
      <trkpt lat="47.10128" lon="6.41309">
        <ele>769.5</ele>
      </trkpt>
      <trkpt lat="47.10109" lon="6.41338">
        <ele>764.6</ele>
      </trkpt>
      <trkpt lat="47.10101" lon="6.41389">
        <ele>760.6</ele>
      </trkpt>
      <trkpt lat="47.10123" lon="6.41512">
        <ele>751.9</ele>
      </trkpt>
      <trkpt lat="47.10129" lon="6.41526">
        <ele>752.3</ele>
      </trkpt>
      <trkpt lat="47.10137" lon="6.41619">
        <ele>750.9</ele>
      </trkpt>
      <trkpt lat="47.10162" lon="6.41709">
        <ele>750.5</ele>
      </trkpt>
      <trkpt lat="47.10183" lon="6.41825">
        <ele>747.9</ele>
      </trkpt>
      <trkpt lat="47.1021" lon="6.41855">
        <ele>748.4</ele>
      </trkpt>
      <trkpt lat="47.10278" lon="6.41903">
        <ele>750</ele>
      </trkpt>
      <trkpt lat="47.10303" lon="6.41936">
        <ele>747.8</ele>
      </trkpt>
      <trkpt lat="47.10307" lon="6.41958">
        <ele>746.7</ele>
      </trkpt>
      <trkpt lat="47.10302" lon="6.41976">
        <ele>746.3</ele>
      </trkpt>
      <trkpt lat="47.10287" lon="6.41992">
        <ele>747.4</ele>
      </trkpt>
      <trkpt lat="47.10177" lon="6.41983">
        <ele>750.2</ele>
      </trkpt>
      <trkpt lat="47.1016" lon="6.41962">
        <ele>748.8</ele>
      </trkpt>
      <trkpt lat="47.10136" lon="6.41959">
        <ele>749.1</ele>
      </trkpt>
      <trkpt lat="47.10106" lon="6.41946">
        <ele>748.3</ele>
      </trkpt>
      <trkpt lat="47.10058" lon="6.41952">
        <ele>749.3</ele>
      </trkpt>
      <trkpt lat="47.10043" lon="6.41949">
        <ele>749.2</ele>
      </trkpt>
      <trkpt lat="47.10029" lon="6.41938">
        <ele>748.5</ele>
      </trkpt>
      <trkpt lat="47.10019" lon="6.41942">
        <ele>748.8</ele>
      </trkpt>
      <trkpt lat="47.10004" lon="6.41934">
        <ele>748.2</ele>
      </trkpt>
      <trkpt lat="47.09982" lon="6.41909">
        <ele>747.2</ele>
      </trkpt>
      <trkpt lat="47.09944" lon="6.4188">
        <ele>746.7</ele>
      </trkpt>
      <trkpt lat="47.09924" lon="6.4188">
        <ele>747.2</ele>
      </trkpt>
      <trkpt lat="47.09863" lon="6.41945">
        <ele>752.1</ele>
      </trkpt>
      <trkpt lat="47.09826" lon="6.41961">
        <ele>752</ele>
      </trkpt>
      <trkpt lat="47.09804" lon="6.4196">
        <ele>751.5</ele>
      </trkpt>
      <trkpt lat="47.09747" lon="6.41925">
        <ele>749</ele>
      </trkpt>
      <trkpt lat="47.09732" lon="6.4191">
        <ele>749</ele>
      </trkpt>
      <trkpt lat="47.09725" lon="6.41888">
        <ele>749</ele>
      </trkpt>
      <trkpt lat="47.09709" lon="6.41868">
        <ele>749.9</ele>
      </trkpt>
      <trkpt lat="47.09681" lon="6.41781">
        <ele>751</ele>
      </trkpt>
      <trkpt lat="47.09654" lon="6.41729">
        <ele>752.3</ele>
      </trkpt>
      <trkpt lat="47.09653" lon="6.41629">
        <ele>753.3</ele>
      </trkpt>
      <trkpt lat="47.09644" lon="6.41614">
        <ele>754.5</ele>
      </trkpt>
      <trkpt lat="47.09519" lon="6.41626">
        <ele>758.6</ele>
      </trkpt>
      <trkpt lat="47.09495" lon="6.41642">
        <ele>760.7</ele>
      </trkpt>
      <trkpt lat="47.09481" lon="6.41668">
        <ele>762.7</ele>
      </trkpt>
      <trkpt lat="47.09458" lon="6.41745">
        <ele>766.1</ele>
      </trkpt>
      <trkpt lat="47.09448" lon="6.41804">
        <ele>770.8</ele>
      </trkpt>
      <trkpt lat="47.09463" lon="6.42024">
        <ele>779.4</ele>
      </trkpt>
      <trkpt lat="47.09457" lon="6.42077">
        <ele>782.5</ele>
      </trkpt>
      <trkpt lat="47.09437" lon="6.42105">
        <ele>783.7</ele>
      </trkpt>
      <trkpt lat="47.09359" lon="6.42174">
        <ele>781.7</ele>
      </trkpt>
      <trkpt lat="47.09258" lon="6.42274">
        <ele>781</ele>
      </trkpt>
      <trkpt lat="47.09233" lon="6.42309">
        <ele>781.3</ele>
      </trkpt>
      <trkpt lat="47.09232" lon="6.42377">
        <ele>779.9</ele>
      </trkpt>
      <trkpt lat="47.09264" lon="6.42556">
        <ele>781.5</ele>
      </trkpt>
      <trkpt lat="47.09274" lon="6.42678">
        <ele>780.4</ele>
      </trkpt>
      <trkpt lat="47.09298" lon="6.42734">
        <ele>781.4</ele>
      </trkpt>
      <trkpt lat="47.09307" lon="6.42789">
        <ele>781.9</ele>
      </trkpt>
      <trkpt lat="47.09324" lon="6.42831">
        <ele>781</ele>
      </trkpt>
      <trkpt lat="47.09371" lon="6.42904">
        <ele>782</ele>
      </trkpt>
      <trkpt lat="47.09407" lon="6.42918">
        <ele>781.2</ele>
      </trkpt>
      <trkpt lat="47.09425" lon="6.42937">
        <ele>779.5</ele>
      </trkpt>
      <trkpt lat="47.09438" lon="6.42981">
        <ele>779.7</ele>
      </trkpt>
      <trkpt lat="47.09462" lon="6.43007">
        <ele>779.9</ele>
      </trkpt>
      <trkpt lat="47.09558" lon="6.43144">
        <ele>780.8</ele>
      </trkpt>
      <trkpt lat="47.09575" lon="6.43176">
        <ele>780.6</ele>
      </trkpt>
      <trkpt lat="47.09673" lon="6.43397">
        <ele>781.6</ele>
      </trkpt>
      <trkpt lat="47.09715" lon="6.43442">
        <ele>781.9</ele>
      </trkpt>
      <trkpt lat="47.09733" lon="6.43465">
        <ele>781.6</ele>
      </trkpt>
      <trkpt lat="47.09748" lon="6.43497">
        <ele>779.3</ele>
      </trkpt>
      <trkpt lat="47.09806" lon="6.43567">
        <ele>778.3</ele>
      </trkpt>
      <trkpt lat="47.09938" lon="6.43776">
        <ele>779.5</ele>
      </trkpt>
      <trkpt lat="47.09974" lon="6.43821">
        <ele>780</ele>
      </trkpt>
      <trkpt lat="47.09982" lon="6.43947">
        <ele>781.1</ele>
      </trkpt>
      <trkpt lat="47.09991" lon="6.43995">
        <ele>781.9</ele>
      </trkpt>
      <trkpt lat="47.10051" lon="6.44103">
        <ele>784.6</ele>
      </trkpt>
      <trkpt lat="47.10067" lon="6.44123">
        <ele>785</ele>
      </trkpt>
      <trkpt lat="47.10111" lon="6.44141">
        <ele>785</ele>
      </trkpt>
      <trkpt lat="47.10182" lon="6.44104">
        <ele>788.2</ele>
      </trkpt>
      <trkpt lat="47.10275" lon="6.44056">
        <ele>793.9</ele>
      </trkpt>
      <trkpt lat="47.1038" lon="6.44011">
        <ele>794.4</ele>
      </trkpt>
      <trkpt lat="47.10493" lon="6.43948">
        <ele>789.9</ele>
      </trkpt>
      <trkpt lat="47.10526" lon="6.43952">
        <ele>788.6</ele>
      </trkpt>
      <trkpt lat="47.10582" lon="6.43989">
        <ele>785.4</ele>
      </trkpt>
      <trkpt lat="47.10612" lon="6.44024">
        <ele>783.6</ele>
      </trkpt>
      <trkpt lat="47.10663" lon="6.44109">
        <ele>780.4</ele>
      </trkpt>
      <trkpt lat="47.10738" lon="6.44235">
        <ele>775.7</ele>
      </trkpt>
      <trkpt lat="47.10788" lon="6.44307">
        <ele>770.3</ele>
      </trkpt>
      <trkpt lat="47.10859" lon="6.44475">
        <ele>768.2</ele>
      </trkpt>
      <trkpt lat="47.10874" lon="6.44493">
        <ele>766.1</ele>
      </trkpt>
      <trkpt lat="47.10906" lon="6.44509">
        <ele>759.9</ele>
      </trkpt>
      <trkpt lat="47.10985" lon="6.44648">
        <ele>754.5</ele>
      </trkpt>
      <trkpt lat="47.11015" lon="6.4472">
        <ele>755.4</ele>
      </trkpt>
      <trkpt lat="47.11042" lon="6.44754">
        <ele>755.2</ele>
      </trkpt>
      <trkpt lat="47.11058" lon="6.44764">
        <ele>753.7</ele>
      </trkpt>
      <trkpt lat="47.11072" lon="6.44773">
        <ele>753.1</ele>
      </trkpt>
      <trkpt lat="47.11094" lon="6.44735">
        <ele>747.6</ele>
      </trkpt>
      <trkpt lat="47.11069" lon="6.44668">
        <ele>744.1</ele>
      </trkpt>
      <trkpt lat="47.11065" lon="6.44621">
        <ele>742.7</ele>
      </trkpt>
      <trkpt lat="47.11074" lon="6.44561">
        <ele>740.6</ele>
      </trkpt>
      <trkpt lat="47.11111" lon="6.44495">
        <ele>738.8</ele>
      </trkpt>
      <trkpt lat="47.11278" lon="6.44239">
        <ele>735</ele>
      </trkpt>
      <trkpt lat="47.11315" lon="6.44178">
        <ele>734</ele>
      </trkpt>
      <trkpt lat="47.11322" lon="6.44186">
        <ele>734</ele>
      </trkpt>
      <trkpt lat="47.11322" lon="6.4422">
        <ele>734.5</ele>
      </trkpt>
      <trkpt lat="47.11331" lon="6.44268">
        <ele>735.6</ele>
      </trkpt>
      <trkpt lat="47.11379" lon="6.44348">
        <ele>739.5</ele>
      </trkpt>
      <trkpt lat="47.11421" lon="6.44435">
        <ele>743.8</ele>
      </trkpt>
      <trkpt lat="47.11448" lon="6.44503">
        <ele>744.8</ele>
      </trkpt>
      <trkpt lat="47.1147" lon="6.44518">
        <ele>742.3</ele>
      </trkpt>
      <trkpt lat="47.11481" lon="6.44509">
        <ele>743.1</ele>
      </trkpt>
      <trkpt lat="47.11489" lon="6.44456">
        <ele>746.3</ele>
      </trkpt>
      <trkpt lat="47.11511" lon="6.44383">
        <ele>748.8</ele>
      </trkpt>
      <trkpt lat="47.11531" lon="6.44261">
        <ele>750.3</ele>
      </trkpt>
      <trkpt lat="47.11562" lon="6.44177">
        <ele>751.5</ele>
      </trkpt>
      <trkpt lat="47.11604" lon="6.44082">
        <ele>748.6</ele>
      </trkpt>
      <trkpt lat="47.11644" lon="6.44031">
        <ele>745.2</ele>
      </trkpt>
      <trkpt lat="47.11708" lon="6.43965">
        <ele>738.4</ele>
      </trkpt>
      <trkpt lat="47.11767" lon="6.43919">
        <ele>732.6</ele>
      </trkpt>
      <trkpt lat="47.11826" lon="6.43887">
        <ele>729.2</ele>
      </trkpt>
      <trkpt lat="47.11919" lon="6.43872">
        <ele>725.4</ele>
      </trkpt>
      <trkpt lat="47.11943" lon="6.43823">
        <ele>725.9</ele>
      </trkpt>
      <trkpt lat="47.11976" lon="6.43884">
        <ele>725</ele>
      </trkpt>
      <trkpt lat="47.12017" lon="6.43943">
        <ele>725.6</ele>
      </trkpt>
      <trkpt lat="47.12005" lon="6.43982">
        <ele>725.8</ele>
      </trkpt>
      <trkpt lat="47.11988" lon="6.43999">
        <ele>727.3</ele>
      </trkpt>
      <trkpt lat="47.11969" lon="6.44012">
        <ele>729.1</ele>
      </trkpt>
      <trkpt lat="47.11959" lon="6.44031">
        <ele>731.3</ele>
      </trkpt>
      <trkpt lat="47.11956" lon="6.4405">
        <ele>733.1</ele>
      </trkpt>
      <trkpt lat="47.11959" lon="6.44062">
        <ele>734.1</ele>
      </trkpt>
      <trkpt lat="47.11966" lon="6.44067">
        <ele>734.1</ele>
      </trkpt>
      <trkpt lat="47.11981" lon="6.44061">
        <ele>732.8</ele>
      </trkpt>
      <trkpt lat="47.11988" lon="6.44066">
        <ele>732.8</ele>
      </trkpt>
      <trkpt lat="47.11993" lon="6.4408">
        <ele>733.9</ele>
      </trkpt>
      <trkpt lat="47.11982" lon="6.44113">
        <ele>737.4</ele>
      </trkpt>
      <trkpt lat="47.11984" lon="6.44129">
        <ele>738.7</ele>
      </trkpt>
      <trkpt lat="47.11937" lon="6.44191">
        <ele>746.3</ele>
      </trkpt>
      <trkpt lat="47.11928" lon="6.44225">
        <ele>749.4</ele>
      </trkpt>
      <trkpt lat="47.11921" lon="6.44421">
        <ele>762.9</ele>
      </trkpt>
      <trkpt lat="47.11919" lon="6.44549">
        <ele>770.7</ele>
      </trkpt>
      <trkpt lat="47.11922" lon="6.4456">
        <ele>770.8</ele>
      </trkpt>
      <trkpt lat="47.11914" lon="6.44625">
        <ele>770.3</ele>
      </trkpt>
      <trkpt lat="47.11915" lon="6.44728">
        <ele>764.6</ele>
      </trkpt>
      <trkpt lat="47.11894" lon="6.44757">
        <ele>762.3</ele>
      </trkpt>
      <trkpt lat="47.11968" lon="6.44679">
        <ele>770.4</ele>
      </trkpt>
      <trkpt lat="47.12014" lon="6.4466">
        <ele>771</ele>
      </trkpt>
      <trkpt lat="47.12026" lon="6.44662">
        <ele>771</ele>
      </trkpt>
      <trkpt lat="47.12038" lon="6.44675">
        <ele>770.8</ele>
      </trkpt>
      <trkpt lat="47.12042" lon="6.44726">
        <ele>771.1</ele>
      </trkpt>
      <trkpt lat="47.12038" lon="6.44796">
        <ele>771.4</ele>
      </trkpt>
      <trkpt lat="47.1204" lon="6.44928">
        <ele>768.5</ele>
      </trkpt>
      <trkpt lat="47.12032" lon="6.4503">
        <ele>761.6</ele>
      </trkpt>
      <trkpt lat="47.12035" lon="6.45061">
        <ele>756.7</ele>
      </trkpt>
      <trkpt lat="47.12003" lon="6.45112">
        <ele>753.7</ele>
      </trkpt>
      <trkpt lat="47.12012" lon="6.45133">
        <ele>752.3</ele>
      </trkpt>
      <trkpt lat="47.12035" lon="6.45169">
        <ele>750.4</ele>
      </trkpt>
      <trkpt lat="47.12065" lon="6.45182">
        <ele>748.7</ele>
      </trkpt>
      <trkpt lat="47.12087" lon="6.45171">
        <ele>748</ele>
      </trkpt>
      <trkpt lat="47.12215" lon="6.45055">
        <ele>754.5</ele>
      </trkpt>
      <trkpt lat="47.12228" lon="6.45047">
        <ele>755.5</ele>
      </trkpt>
      <trkpt lat="47.12235" lon="6.45055">
        <ele>755.5</ele>
      </trkpt>
      <trkpt lat="47.12235" lon="6.4507">
        <ele>755.2</ele>
      </trkpt>
      <trkpt lat="47.12239" lon="6.4512">
        <ele>755.5</ele>
      </trkpt>
      <trkpt lat="47.12225" lon="6.45282">
        <ele>752.1</ele>
      </trkpt>
      <trkpt lat="47.12226" lon="6.45308">
        <ele>751.9</ele>
      </trkpt>
      <trkpt lat="47.12238" lon="6.45361">
        <ele>750.5</ele>
      </trkpt>
      <trkpt lat="47.12248" lon="6.45385">
        <ele>749.3</ele>
      </trkpt>
      <trkpt lat="47.12338" lon="6.45504">
        <ele>750.2</ele>
      </trkpt>
      <trkpt lat="47.12396" lon="6.45554">
        <ele>752.3</ele>
      </trkpt>
      <trkpt lat="47.12393" lon="6.45568">
        <ele>751.8</ele>
      </trkpt>
      <trkpt lat="47.12352" lon="6.45608">
        <ele>747.8</ele>
      </trkpt>
      <trkpt lat="47.12269" lon="6.45676">
        <ele>742.7</ele>
      </trkpt>
      <trkpt lat="47.1225" lon="6.45699">
        <ele>742</ele>
      </trkpt>
      <trkpt lat="47.122" lon="6.45783">
        <ele>737</ele>
      </trkpt>
      <trkpt lat="47.12158" lon="6.45885">
        <ele>733.7</ele>
      </trkpt>
      <trkpt lat="47.12139" lon="6.45916">
        <ele>734</ele>
      </trkpt>
      <trkpt lat="47.12035" lon="6.46066">
        <ele>739.5</ele>
      </trkpt>
      <trkpt lat="47.11979" lon="6.46124">
        <ele>740</ele>
      </trkpt>
      <trkpt lat="47.11982" lon="6.46141">
        <ele>740</ele>
      </trkpt>
      <trkpt lat="47.12002" lon="6.46174">
        <ele>741.1</ele>
      </trkpt>
      <trkpt lat="47.12073" lon="6.46279">
        <ele>739</ele>
      </trkpt>
      <trkpt lat="47.12164" lon="6.46306">
        <ele>740.7</ele>
      </trkpt>
      <trkpt lat="47.12213" lon="6.46357">
        <ele>743.2</ele>
      </trkpt>
      <trkpt lat="47.12321" lon="6.46537">
        <ele>746.7</ele>
      </trkpt>
      <trkpt lat="47.12374" lon="6.46602">
        <ele>747.5</ele>
      </trkpt>
      <trkpt lat="47.12427" lon="6.4669">
        <ele>747.9</ele>
      </trkpt>
      <trkpt lat="47.12446" lon="6.46793">
        <ele>750.1</ele>
      </trkpt>
      <trkpt lat="47.12473" lon="6.46874">
        <ele>749.5</ele>
      </trkpt>
      <trkpt lat="47.12496" lon="6.46942">
        <ele>746.1</ele>
      </trkpt>
      <trkpt lat="47.12642" lon="6.47121">
        <ele>746.9</ele>
      </trkpt>
      <trkpt lat="47.12749" lon="6.47305">
        <ele>739</ele>
      </trkpt>
      <trkpt lat="47.12748" lon="6.47319">
        <ele>739.6</ele>
      </trkpt>
      <trkpt lat="47.12664" lon="6.4731">
        <ele>744.1</ele>
      </trkpt>
      <trkpt lat="47.12598" lon="6.47317">
        <ele>747.4</ele>
      </trkpt>
      <trkpt lat="47.12567" lon="6.47329">
        <ele>749.3</ele>
      </trkpt>
      <trkpt lat="47.12555" lon="6.47341">
        <ele>750.3</ele>
      </trkpt>
      <trkpt lat="47.12559" lon="6.47373">
        <ele>751.2</ele>
      </trkpt>
      <trkpt lat="47.12568" lon="6.47467">
        <ele>756.7</ele>
      </trkpt>
      <trkpt lat="47.12567" lon="6.47492">
        <ele>759</ele>
      </trkpt>
      <trkpt lat="47.12559" lon="6.47516">
        <ele>761.8</ele>
      </trkpt>
      <trkpt lat="47.12565" lon="6.47523">
        <ele>761.9</ele>
      </trkpt>
      <trkpt lat="47.12562" lon="6.47514">
        <ele>761.4</ele>
      </trkpt>
      <trkpt lat="47.12551" lon="6.47522">
        <ele>763</ele>
      </trkpt>
      <trkpt lat="47.12541" lon="6.47517">
        <ele>763.6</ele>
      </trkpt>
      <trkpt lat="47.12426" lon="6.47509">
        <ele>775</ele>
      </trkpt>
      <trkpt lat="47.12402" lon="6.47482">
        <ele>776.8</ele>
      </trkpt>
      <trkpt lat="47.12369" lon="6.47457">
        <ele>779.7</ele>
      </trkpt>
      <trkpt lat="47.12269" lon="6.47408">
        <ele>785.7</ele>
      </trkpt>
      <trkpt lat="47.12207" lon="6.47352">
        <ele>785.7</ele>
      </trkpt>
      <trkpt lat="47.12165" lon="6.47305">
        <ele>785.2</ele>
      </trkpt>
      <trkpt lat="47.12152" lon="6.47293">
        <ele>785.4</ele>
      </trkpt>
      <trkpt lat="47.12106" lon="6.47294">
        <ele>790.9</ele>
      </trkpt>
      <trkpt lat="47.12082" lon="6.47286">
        <ele>793</ele>
      </trkpt>
      <trkpt lat="47.12007" lon="6.47236">
        <ele>801.2</ele>
      </trkpt>
      <trkpt lat="47.11977" lon="6.47208">
        <ele>803.6</ele>
      </trkpt>
      <trkpt lat="47.11944" lon="6.47189">
        <ele>807.6</ele>
      </trkpt>
      <trkpt lat="47.11915" lon="6.47128">
        <ele>805.8</ele>
      </trkpt>
      <trkpt lat="47.11843" lon="6.47029">
        <ele>807.5</ele>
      </trkpt>
      <trkpt lat="47.118" lon="6.46963">
        <ele>810.1</ele>
      </trkpt>
      <trkpt lat="47.11749" lon="6.46906">
        <ele>817.4</ele>
      </trkpt>
      <trkpt lat="47.117" lon="6.46833">
        <ele>822.2</ele>
      </trkpt>
      <trkpt lat="47.1167" lon="6.46788">
        <ele>824.9</ele>
      </trkpt>
      <trkpt lat="47.11631" lon="6.46712">
        <ele>827.2</ele>
      </trkpt>
      <trkpt lat="47.11566" lon="6.46623">
        <ele>829.8</ele>
      </trkpt>
      <trkpt lat="47.11512" lon="6.46533">
        <ele>827.1</ele>
      </trkpt>
      <trkpt lat="47.11493" lon="6.46501">
        <ele>827.3</ele>
      </trkpt>
      <trkpt lat="47.11477" lon="6.46487">
        <ele>828.2</ele>
      </trkpt>
      <trkpt lat="47.11411" lon="6.4646">
        <ele>829.5</ele>
      </trkpt>
      <trkpt lat="47.11359" lon="6.46428">
        <ele>830.7</ele>
      </trkpt>
      <trkpt lat="47.11315" lon="6.46386">
        <ele>831</ele>
      </trkpt>
      <trkpt lat="47.11281" lon="6.46352">
        <ele>830.7</ele>
      </trkpt>
      <trkpt lat="47.1128" lon="6.46352">
        <ele>830.7</ele>
      </trkpt>
      <trkpt lat="47.11279" lon="6.46354">
        <ele>830.8</ele>
      </trkpt>
      <trkpt lat="47.11275" lon="6.46349">
        <ele>830.6</ele>
      </trkpt>
      <trkpt lat="47.11217" lon="6.46332">
        <ele>831.3</ele>
      </trkpt>
      <trkpt lat="47.11145" lon="6.46324">
        <ele>833.3</ele>
      </trkpt>
      <trkpt lat="47.1112" lon="6.46341">
        <ele>833.6</ele>
      </trkpt>
      <trkpt lat="47.11093" lon="6.46395">
        <ele>832.6</ele>
      </trkpt>
      <trkpt lat="47.11067" lon="6.46458">
        <ele>828.3</ele>
      </trkpt>
      <trkpt lat="47.11036" lon="6.46524">
        <ele>821.4</ele>
      </trkpt>
      <trkpt lat="47.11087" lon="6.4674">
        <ele>812.8</ele>
      </trkpt>
      <trkpt lat="47.11167" lon="6.46941">
        <ele>806</ele>
      </trkpt>
      <trkpt lat="47.11205" lon="6.47054">
        <ele>808</ele>
      </trkpt>
      <trkpt lat="47.1122" lon="6.47065">
        <ele>808</ele>
      </trkpt>
      <trkpt lat="47.1133" lon="6.47064">
        <ele>811.6</ele>
      </trkpt>
      <trkpt lat="47.11417" lon="6.471">
        <ele>813.4</ele>
      </trkpt>
      <trkpt lat="47.11471" lon="6.47133">
        <ele>817.3</ele>
      </trkpt>
      <trkpt lat="47.11491" lon="6.47145">
        <ele>818.8</ele>
      </trkpt>
      <trkpt lat="47.11598" lon="6.47202">
        <ele>820.6</ele>
      </trkpt>
      <trkpt lat="47.11621" lon="6.47225">
        <ele>820.7</ele>
      </trkpt>
      <trkpt lat="47.11649" lon="6.47275">
        <ele>821</ele>
      </trkpt>
      <trkpt lat="47.11665" lon="6.47313">
        <ele>820.7</ele>
      </trkpt>
      <trkpt lat="47.11669" lon="6.47413">
        <ele>817.1</ele>
      </trkpt>
      <trkpt lat="47.11691" lon="6.47503">
        <ele>814</ele>
      </trkpt>
      <trkpt lat="47.11735" lon="6.47583">
        <ele>815.5</ele>
      </trkpt>
      <trkpt lat="47.11739" lon="6.47612">
        <ele>817</ele>
      </trkpt>
      <trkpt lat="47.11734" lon="6.47639">
        <ele>817.8</ele>
      </trkpt>
      <trkpt lat="47.11732" lon="6.47695">
        <ele>818.7</ele>
      </trkpt>
      <trkpt lat="47.11742" lon="6.47741">
        <ele>819.4</ele>
      </trkpt>
      <trkpt lat="47.11768" lon="6.47812">
        <ele>820.8</ele>
      </trkpt>
      <trkpt lat="47.1178" lon="6.47866">
        <ele>820.8</ele>
      </trkpt>
      <trkpt lat="47.11833" lon="6.47941">
        <ele>820.2</ele>
      </trkpt>
      <trkpt lat="47.11855" lon="6.48003">
        <ele>819.3</ele>
      </trkpt>
      <trkpt lat="47.11874" lon="6.48034">
        <ele>817.9</ele>
      </trkpt>
      <trkpt lat="47.11878" lon="6.48056">
        <ele>817.6</ele>
      </trkpt>
      <trkpt lat="47.11868" lon="6.48072">
        <ele>817.3</ele>
      </trkpt>
      <trkpt lat="47.11819" lon="6.48117">
        <ele>817.5</ele>
      </trkpt>
      <trkpt lat="47.11812" lon="6.48131">
        <ele>817.8</ele>
      </trkpt>
      <trkpt lat="47.11853" lon="6.48407">
        <ele>822.8</ele>
      </trkpt>
      <trkpt lat="47.11876" lon="6.48607">
        <ele>825.4</ele>
      </trkpt>
      <trkpt lat="47.11879" lon="6.48646">
        <ele>825.1</ele>
      </trkpt>
      <trkpt lat="47.11879" lon="6.48717">
        <ele>828.6</ele>
      </trkpt>
      <trkpt lat="47.11886" lon="6.48779">
        <ele>832.2</ele>
      </trkpt>
      <trkpt lat="47.11902" lon="6.48826">
        <ele>835.5</ele>
      </trkpt>
      <trkpt lat="47.11957" lon="6.48902">
        <ele>841.4</ele>
      </trkpt>
      <trkpt lat="47.11982" lon="6.4896">
        <ele>844.3</ele>
      </trkpt>
      <trkpt lat="47.12025" lon="6.49122">
        <ele>847.3</ele>
      </trkpt>
      <trkpt lat="47.12078" lon="6.49284">
        <ele>850.3</ele>
      </trkpt>
      <trkpt lat="47.12127" lon="6.49387">
        <ele>850.2</ele>
      </trkpt>
      <trkpt lat="47.12172" lon="6.49462">
        <ele>846.6</ele>
      </trkpt>
      <trkpt lat="47.12251" lon="6.49625">
        <ele>849.5</ele>
      </trkpt>
      <trkpt lat="47.12278" lon="6.49692">
        <ele>852.9</ele>
      </trkpt>
      <trkpt lat="47.12326" lon="6.49866">
        <ele>855.7</ele>
      </trkpt>
      <trkpt lat="47.12339" lon="6.49894">
        <ele>855.9</ele>
        <extensions>
          <visugpx:TrkExtension xmlns:visugpx="https://www.visugpx.com/editgpx/">
            <visugpx:node>3</visugpx:node>
            </visugpx:TrkExtension>
        </extensions>
      </trkpt>
      <trkpt lat="47.12337" lon="6.49894">
        <ele>855.8</ele>
      </trkpt>
      <trkpt lat="47.12338" lon="6.49902">
        <ele>855.6</ele>
      </trkpt>
      <trkpt lat="47.12339" lon="6.49913">
        <ele>855.3</ele>
      </trkpt>
      <trkpt lat="47.12343" lon="6.49925">
        <ele>855.3</ele>
      </trkpt>
      <trkpt lat="47.12371" lon="6.49993">
        <ele>854.6</ele>
      </trkpt>
      <trkpt lat="47.12425" lon="6.50124">
        <ele>850</ele>
      </trkpt>
      <trkpt lat="47.12444" lon="6.5018">
        <ele>848</ele>
      </trkpt>
      <trkpt lat="47.12461" lon="6.50239">
        <ele>845.6</ele>
      </trkpt>
      <trkpt lat="47.12462" lon="6.50242">
        <ele>845.5</ele>
        <extensions>
          <visugpx:TrkExtension xmlns:visugpx="https://www.visugpx.com/editgpx/">
            <visugpx:node>4</visugpx:node>
            </visugpx:TrkExtension>
        </extensions>
      </trkpt>
      <trkpt lat="47.12466" lon="6.50264">
        <ele>844.7</ele>
      </trkpt>
      <trkpt lat="47.12472" lon="6.50322">
        <ele>842.4</ele>
      </trkpt>
      <trkpt lat="47.12474" lon="6.50367">
        <ele>840.9</ele>
      </trkpt>
      <trkpt lat="47.12477" lon="6.50386">
        <ele>840.4</ele>
      </trkpt>
      <trkpt lat="47.12484" lon="6.50405">
        <ele>839.4</ele>
      </trkpt>
      <trkpt lat="47.12496" lon="6.50423">
        <ele>838.1</ele>
      </trkpt>
      <trkpt lat="47.12508" lon="6.50434">
        <ele>837.6</ele>
      </trkpt>
      <trkpt lat="47.12531" lon="6.50449">
        <ele>836.4</ele>
      </trkpt>
      <trkpt lat="47.12543" lon="6.5046">
        <ele>835.7</ele>
      </trkpt>
      <trkpt lat="47.12552" lon="6.50472">
        <ele>835.6</ele>
      </trkpt>
      <trkpt lat="47.12559" lon="6.50488">
        <ele>835.4</ele>
      </trkpt>
      <trkpt lat="47.12564" lon="6.50509">
        <ele>834.8</ele>
      </trkpt>
      <trkpt lat="47.12631" lon="6.50932">
        <ele>822.6</ele>
      </trkpt>
      <trkpt lat="47.12632" lon="6.50952">
        <ele>821.9</ele>
      </trkpt>
      <trkpt lat="47.12631" lon="6.50977">
        <ele>820.7</ele>
      </trkpt>
      <trkpt lat="47.12623" lon="6.51058">
        <ele>817.2</ele>
      </trkpt>
      <trkpt lat="47.12622" lon="6.51084">
        <ele>816.1</ele>
      </trkpt>
      <trkpt lat="47.12624" lon="6.51107">
        <ele>815.1</ele>
      </trkpt>
      <trkpt lat="47.12628" lon="6.51127">
        <ele>814.1</ele>
      </trkpt>
      <trkpt lat="47.12636" lon="6.51147">
        <ele>813.2</ele>
      </trkpt>
      <trkpt lat="47.12684" lon="6.51239">
        <ele>806.5</ele>
      </trkpt>
      <trkpt lat="47.12698" lon="6.51268">
        <ele>806.7</ele>
      </trkpt>
      <trkpt lat="47.1272" lon="6.51335">
        <ele>803.8</ele>
      </trkpt>
      <trkpt lat="47.12727" lon="6.51362">
        <ele>803.1</ele>
      </trkpt>
      <trkpt lat="47.1273" lon="6.5138">
        <ele>802.6</ele>
      </trkpt>
      <trkpt lat="47.12731" lon="6.51402">
        <ele>801.7</ele>
      </trkpt>
      <trkpt lat="47.12729" lon="6.51414">
        <ele>801.1</ele>
      </trkpt>
      <trkpt lat="47.12726" lon="6.51427">
        <ele>800.3</ele>
      </trkpt>
      <trkpt lat="47.12718" lon="6.51446">
        <ele>798.9</ele>
      </trkpt>
      <trkpt lat="47.12709" lon="6.51463">
        <ele>798</ele>
      </trkpt>
      <trkpt lat="47.12682" lon="6.51499">
        <ele>795.6</ele>
      </trkpt>
      <trkpt lat="47.12664" lon="6.51526">
        <ele>794.1</ele>
      </trkpt>
      <trkpt lat="47.12669" lon="6.51534">
        <ele>793.6</ele>
      </trkpt>
      <trkpt lat="47.12675" lon="6.51584">
        <ele>788.9</ele>
      </trkpt>
      <trkpt lat="47.1268" lon="6.51596">
        <ele>787.9</ele>
      </trkpt>
      <trkpt lat="47.12685" lon="6.51603">
        <ele>787.1</ele>
      </trkpt>
      <trkpt lat="47.12703" lon="6.51614">
        <ele>785.1</ele>
      </trkpt>
      <trkpt lat="47.12716" lon="6.51622">
        <ele>783.4</ele>
      </trkpt>
      <trkpt lat="47.12724" lon="6.51623">
        <ele>782.6</ele>
      </trkpt>
      <trkpt lat="47.12739" lon="6.51623">
        <ele>781.2</ele>
      </trkpt>
      <trkpt lat="47.1276" lon="6.51619">
        <ele>780</ele>
      </trkpt>
      <trkpt lat="47.12773" lon="6.51624">
        <ele>778.4</ele>
      </trkpt>
      <trkpt lat="47.12783" lon="6.51637">
        <ele>777.5</ele>
      </trkpt>
      <trkpt lat="47.12805" lon="6.51676">
        <ele>775</ele>
      </trkpt>
      <trkpt lat="47.12811" lon="6.51692">
        <ele>773.7</ele>
      </trkpt>
      <trkpt lat="47.12814" lon="6.51709">
        <ele>772.9</ele>
      </trkpt>
      <trkpt lat="47.12814" lon="6.51737">
        <ele>771.2</ele>
      </trkpt>
      <trkpt lat="47.12814" lon="6.51754">
        <ele>770.2</ele>
      </trkpt>
      <trkpt lat="47.12815" lon="6.51773">
        <ele>769.5</ele>
      </trkpt>
      <trkpt lat="47.1282" lon="6.51812">
        <ele>767.7</ele>
      </trkpt>
      <trkpt lat="47.12822" lon="6.51822">
        <ele>767.2</ele>
      </trkpt>
      <trkpt lat="47.1282" lon="6.51824">
        <ele>767</ele>
      </trkpt>
      <trkpt lat="47.12817" lon="6.51834">
        <ele>766.4</ele>
      </trkpt>
      <trkpt lat="47.12817" lon="6.51837">
        <ele>766.3</ele>
      </trkpt>
      <trkpt lat="47.12819" lon="6.51841">
        <ele>766.2</ele>
      </trkpt>
      <trkpt lat="47.1282" lon="6.51843">
        <ele>766.2</ele>
      </trkpt>
      <trkpt lat="47.12825" lon="6.51845">
        <ele>766.3</ele>
      </trkpt>
      <trkpt lat="47.12828" lon="6.51844">
        <ele>766.4</ele>
      </trkpt>
      <trkpt lat="47.12831" lon="6.51855">
        <ele>766.1</ele>
      </trkpt>
      <trkpt lat="47.12863" lon="6.51983">
        <ele>761.7</ele>
      </trkpt>
      <trkpt lat="47.12916" lon="6.52103">
        <ele>760</ele>
      </trkpt>
      <trkpt lat="47.12926" lon="6.52121">
        <ele>760</ele>
      </trkpt>
      <trkpt lat="47.12928" lon="6.52125">
        <ele>759.8</ele>
      </trkpt>
      <trkpt lat="47.12869" lon="6.52243">
        <ele>751.7</ele>
      </trkpt>
      <trkpt lat="47.12863" lon="6.52253">
        <ele>751</ele>
      </trkpt>
      <trkpt lat="47.12847" lon="6.52281">
        <ele>749.9</ele>
      </trkpt>
      <trkpt lat="47.12841" lon="6.52289">
        <ele>749.6</ele>
      </trkpt>
      <trkpt lat="47.12838" lon="6.52292">
        <ele>749.5</ele>
      </trkpt>
      <trkpt lat="47.12815" lon="6.52316">
        <ele>748.8</ele>
      </trkpt>
      <trkpt lat="47.12809" lon="6.52322">
        <ele>748.5</ele>
      </trkpt>
      <trkpt lat="47.12804" lon="6.52329">
        <ele>748.2</ele>
      </trkpt>
      <trkpt lat="47.12789" lon="6.52351">
        <ele>748</ele>
      </trkpt>
      <trkpt lat="47.12788" lon="6.52353">
        <ele>748</ele>
      </trkpt>
      <trkpt lat="47.1279" lon="6.52356">
        <ele>748</ele>
        <extensions>
          <visugpx:TrkExtension xmlns:visugpx="https://www.visugpx.com/editgpx/">
            <visugpx:node>5</visugpx:node>
            </visugpx:TrkExtension>
        </extensions>
      </trkpt>
      <trkpt lat="47.12791" lon="6.5236">
        <ele>748</ele>
      </trkpt>
      <trkpt lat="47.12884" lon="6.52442">
        <ele>749</ele>
        <extensions>
          <visugpx:TrkExtension xmlns:visugpx="https://www.visugpx.com/editgpx/">
            <visugpx:node>6</visugpx:node>
            </visugpx:TrkExtension>
        </extensions>
      </trkpt>
    </trkseg>
  </trk>
  <trk>
    <name><![CDATA[Montalot Seul]]></name>
    <extensions>
      <line xmlns="http://www.topografix.com/GPX/gpx_style/0/2">
        <color>00ff40</color>
        <width>4</width>
          <extensions>
            <sens>1</sens>
          </extensions>
      </line>
    </extensions>
    <trkseg>
      <trkpt lat="47.13487" lon="6.5016">
        <ele>868.4</ele>
        <extensions>
          <visugpx:TrkExtension xmlns:visugpx="https://www.visugpx.com/editgpx/">
            <visugpx:node>1</visugpx:node>
            </visugpx:TrkExtension>
        </extensions>
      </trkpt>
      <trkpt lat="47.13494" lon="6.50151">
        <ele>867.8</ele>
      </trkpt>
      <trkpt lat="47.13497" lon="6.50146">
        <ele>867.4</ele>
      </trkpt>
      <trkpt lat="47.13498" lon="6.50133">
        <ele>866.4</ele>
      </trkpt>
      <trkpt lat="47.13505" lon="6.5006">
        <ele>858.3</ele>
      </trkpt>
      <trkpt lat="47.13524" lon="6.50044">
        <ele>854.2</ele>
      </trkpt>
      <trkpt lat="47.13561" lon="6.5006">
        <ele>852.9</ele>
      </trkpt>
      <trkpt lat="47.13601" lon="6.50123">
        <ele>851.7</ele>
      </trkpt>
      <trkpt lat="47.13637" lon="6.50208">
        <ele>853</ele>
      </trkpt>
      <trkpt lat="47.13725" lon="6.50294">
        <ele>844.6</ele>
      </trkpt>
      <trkpt lat="47.13751" lon="6.50335">
        <ele>842.8</ele>
      </trkpt>
      <trkpt lat="47.13779" lon="6.50402">
        <ele>842.1</ele>
      </trkpt>
      <trkpt lat="47.13858" lon="6.50652">
        <ele>845.6</ele>
      </trkpt>
      <trkpt lat="47.13882" lon="6.50786">
        <ele>850.1</ele>
      </trkpt>
      <trkpt lat="47.139" lon="6.50954">
        <ele>856.6</ele>
      </trkpt>
      <trkpt lat="47.13903" lon="6.51">
        <ele>858</ele>
      </trkpt>
      <trkpt lat="47.13909" lon="6.51048">
        <ele>857.5</ele>
      </trkpt>
      <trkpt lat="47.1392" lon="6.51141">
        <ele>855.4</ele>
      </trkpt>
      <trkpt lat="47.13928" lon="6.51164">
        <ele>853.6</ele>
      </trkpt>
      <trkpt lat="47.13947" lon="6.51182">
        <ele>849</ele>
      </trkpt>
      <trkpt lat="47.13971" lon="6.51178">
        <ele>844.3</ele>
      </trkpt>
      <trkpt lat="47.14001" lon="6.51146">
        <ele>840</ele>
      </trkpt>
      <trkpt lat="47.14045" lon="6.51082">
        <ele>840.2</ele>
      </trkpt>
      <trkpt lat="47.14057" lon="6.51015">
        <ele>839.8</ele>
      </trkpt>
      <trkpt lat="47.14068" lon="6.50964">
        <ele>841.3</ele>
      </trkpt>
      <trkpt lat="47.14069" lon="6.50777">
        <ele>835.8</ele>
      </trkpt>
      <trkpt lat="47.14081" lon="6.50555">
        <ele>830.4</ele>
      </trkpt>
      <trkpt lat="47.14076" lon="6.50524">
        <ele>828.2</ele>
      </trkpt>
      <trkpt lat="47.14078" lon="6.50518">
        <ele>828.7</ele>
      </trkpt>
      <trkpt lat="47.14111" lon="6.50583">
        <ele>836.9</ele>
      </trkpt>
      <trkpt lat="47.14126" lon="6.50737">
        <ele>842.2</ele>
      </trkpt>
      <trkpt lat="47.14126" lon="6.5081">
        <ele>842.8</ele>
      </trkpt>
      <trkpt lat="47.14133" lon="6.50881">
        <ele>847.5</ele>
      </trkpt>
      <trkpt lat="47.14129" lon="6.50996">
        <ele>851.2</ele>
      </trkpt>
      <trkpt lat="47.14132" lon="6.51106">
        <ele>854.5</ele>
      </trkpt>
      <trkpt lat="47.14142" lon="6.51281">
        <ele>855.2</ele>
      </trkpt>
      <trkpt lat="47.14145" lon="6.51336">
        <ele>853.6</ele>
      </trkpt>
      <trkpt lat="47.14138" lon="6.51527">
        <ele>861.1</ele>
      </trkpt>
      <trkpt lat="47.14134" lon="6.51551">
        <ele>862.6</ele>
      </trkpt>
      <trkpt lat="47.14105" lon="6.51594">
        <ele>867.6</ele>
      </trkpt>
      <trkpt lat="47.1409" lon="6.51632">
        <ele>868.6</ele>
      </trkpt>
      <trkpt lat="47.14088" lon="6.51653">
        <ele>866.9</ele>
      </trkpt>
      <trkpt lat="47.14114" lon="6.517">
        <ele>859</ele>
      </trkpt>
      <trkpt lat="47.14119" lon="6.51727">
        <ele>855.9</ele>
      </trkpt>
      <trkpt lat="47.14125" lon="6.51755">
        <ele>854.4</ele>
      </trkpt>
      <trkpt lat="47.14135" lon="6.51798">
        <ele>852.3</ele>
      </trkpt>
      <trkpt lat="47.14131" lon="6.5188">
        <ele>849.8</ele>
      </trkpt>
      <trkpt lat="47.14134" lon="6.51895">
        <ele>848.5</ele>
      </trkpt>
      <trkpt lat="47.1418" lon="6.51936">
        <ele>843.7</ele>
      </trkpt>
      <trkpt lat="47.14192" lon="6.51956">
        <ele>840.5</ele>
      </trkpt>
      <trkpt lat="47.14187" lon="6.51976">
        <ele>837.1</ele>
      </trkpt>
      <trkpt lat="47.14174" lon="6.51989">
        <ele>833.3</ele>
      </trkpt>
      <trkpt lat="47.14067" lon="6.52016">
        <ele>816.3</ele>
      </trkpt>
      <trkpt lat="47.14039" lon="6.52014">
        <ele>819</ele>
      </trkpt>
      <trkpt lat="47.14032" lon="6.52023">
        <ele>818.8</ele>
      </trkpt>
      <trkpt lat="47.14057" lon="6.52095">
        <ele>817.7</ele>
      </trkpt>
      <trkpt lat="47.1406" lon="6.5211">
        <ele>818.6</ele>
      </trkpt>
      <trkpt lat="47.14055" lon="6.52124">
        <ele>820</ele>
      </trkpt>
      <trkpt lat="47.14043" lon="6.52155">
        <ele>819.7</ele>
      </trkpt>
      <trkpt lat="47.13968" lon="6.52108">
        <ele>827.4</ele>
      </trkpt>
      <trkpt lat="47.1394" lon="6.52079">
        <ele>831.4</ele>
      </trkpt>
      <trkpt lat="47.13916" lon="6.5207">
        <ele>833.4</ele>
      </trkpt>
      <trkpt lat="47.13812" lon="6.52055">
        <ele>832.5</ele>
      </trkpt>
      <trkpt lat="47.13716" lon="6.52028">
        <ele>837</ele>
      </trkpt>
      <trkpt lat="47.13661" lon="6.52021">
        <ele>838.6</ele>
      </trkpt>
      <trkpt lat="47.13603" lon="6.51985">
        <ele>847.7</ele>
      </trkpt>
      <trkpt lat="47.13579" lon="6.51959">
        <ele>851.1</ele>
      </trkpt>
      <trkpt lat="47.13584" lon="6.51947">
        <ele>853.5</ele>
      </trkpt>
      <trkpt lat="47.13607" lon="6.5193">
        <ele>856.8</ele>
      </trkpt>
      <trkpt lat="47.13619" lon="6.51934">
        <ele>856.8</ele>
      </trkpt>
      <trkpt lat="47.13653" lon="6.51888">
        <ele>870.7</ele>
      </trkpt>
      <trkpt lat="47.13669" lon="6.51842">
        <ele>887.5</ele>
      </trkpt>
      <trkpt lat="47.13675" lon="6.51785">
        <ele>897</ele>
      </trkpt>
      <trkpt lat="47.13685" lon="6.51711">
        <ele>908.4</ele>
      </trkpt>
      <trkpt lat="47.13694" lon="6.51692">
        <ele>913.1</ele>
      </trkpt>
      <trkpt lat="47.13769" lon="6.51624">
        <ele>927.8</ele>
      </trkpt>
      <trkpt lat="47.13785" lon="6.51528">
        <ele>922.1</ele>
      </trkpt>
      <trkpt lat="47.13786" lon="6.5149">
        <ele>919.7</ele>
      </trkpt>
      <trkpt lat="47.13786" lon="6.51457">
        <ele>918.7</ele>
      </trkpt>
      <trkpt lat="47.13808" lon="6.51295">
        <ele>907.5</ele>
      </trkpt>
      <trkpt lat="47.13808" lon="6.51253">
        <ele>907.1</ele>
      </trkpt>
      <trkpt lat="47.13802" lon="6.512">
        <ele>910.1</ele>
      </trkpt>
      <trkpt lat="47.1379" lon="6.51165">
        <ele>917</ele>
      </trkpt>
      <trkpt lat="47.13776" lon="6.51093">
        <ele>922.7</ele>
      </trkpt>
      <trkpt lat="47.1377" lon="6.51042">
        <ele>923.3</ele>
      </trkpt>
      <trkpt lat="47.13757" lon="6.5101">
        <ele>928</ele>
      </trkpt>
      <trkpt lat="47.13747" lon="6.51001">
        <ele>931.2</ele>
      </trkpt>
      <trkpt lat="47.13731" lon="6.50969">
        <ele>932</ele>
      </trkpt>
      <trkpt lat="47.13743" lon="6.50953">
        <ele>930.6</ele>
      </trkpt>
      <trkpt lat="47.13804" lon="6.50917">
        <ele>893.9</ele>
      </trkpt>
      <trkpt lat="47.1381" lon="6.50897">
        <ele>887.4</ele>
      </trkpt>
      <trkpt lat="47.138" lon="6.50851">
        <ele>890.6</ele>
      </trkpt>
      <trkpt lat="47.13787" lon="6.50848">
        <ele>901.4</ele>
      </trkpt>
      <trkpt lat="47.1378" lon="6.50831">
        <ele>906</ele>
      </trkpt>
      <trkpt lat="47.13777" lon="6.50719">
        <ele>887.1</ele>
      </trkpt>
      <trkpt lat="47.1376" lon="6.50652">
        <ele>887.5</ele>
      </trkpt>
      <trkpt lat="47.13745" lon="6.50621">
        <ele>893.2</ele>
      </trkpt>
      <trkpt lat="47.13713" lon="6.50578">
        <ele>907.2</ele>
      </trkpt>
      <trkpt lat="47.13691" lon="6.5052">
        <ele>906.3</ele>
      </trkpt>
      <trkpt lat="47.13656" lon="6.50472">
        <ele>904</ele>
      </trkpt>
      <trkpt lat="47.13624" lon="6.50422">
        <ele>896.4</ele>
      </trkpt>
      <trkpt lat="47.13593" lon="6.50402">
        <ele>894.9</ele>
      </trkpt>
      <trkpt lat="47.13534" lon="6.50364">
        <ele>892</ele>
      </trkpt>
      <trkpt lat="47.1353" lon="6.50348">
        <ele>890.5</ele>
      </trkpt>
      <trkpt lat="47.13517" lon="6.50245">
        <ele>879.8</ele>
      </trkpt>
      <trkpt lat="47.13496" lon="6.50201">
        <ele>874</ele>
      </trkpt>
      <trkpt lat="47.13488" lon="6.50192">
        <ele>872.2</ele>
      </trkpt>
      <trkpt lat="47.13487" lon="6.50184">
        <ele>871.1</ele>
      </trkpt>
      <trkpt lat="47.13483" lon="6.50174">
        <ele>869.9</ele>
      </trkpt>
    </trkseg>
  </trk>
  <trk>
    <name><![CDATA[Orchamp Vennes Reverot modifié]]></name>
    <extensions>
      <line xmlns="http://www.topografix.com/GPX/gpx_style/0/2">
        <color>1e00ff</color>
        <width>4</width>
          <extensions>
            <sens>1</sens>
          </extensions>
      </line>
    </extensions>
    <trkseg>
      <trkpt lat="47.12957" lon="6.52546">
        <ele>753.1</ele>
        <time>2023-01-15T17:14:31.689Z</time>
        <extensions>
          <visugpx:TrkExtension xmlns:visugpx="https://www.visugpx.com/editgpx/">
            <visugpx:node>1</visugpx:node>
            </visugpx:TrkExtension>
        </extensions>
      </trkpt>
      <trkpt lat="47.12979" lon="6.52521">
        <ele>753</ele>
        <time>2023-01-15T17:14:37.889Z</time>
      </trkpt>
      <trkpt lat="47.12997" lon="6.52533">
        <ele>754.1</ele>
        <time>2023-01-15T17:14:42.430Z</time>
      </trkpt>
      <trkpt lat="47.13" lon="6.52535">
        <ele>754.3</ele>
        <time>2023-01-15T17:14:42.998Z</time>
      </trkpt>
      <trkpt lat="47.13021" lon="6.52551">
        <ele>755.6</ele>
        <time>2023-01-15T17:14:48.328Z</time>
      </trkpt>
      <trkpt lat="47.1303" lon="6.52556">
        <ele>756</ele>
        <time>2023-01-15T17:14:50.425Z</time>
      </trkpt>
      <trkpt lat="47.13042" lon="6.52526">
        <ele>755.5</ele>
        <time>2023-01-15T17:14:56.026Z</time>
      </trkpt>
      <trkpt lat="47.13054" lon="6.52509">
        <ele>755.9</ele>
        <time>2023-01-15T17:15:00.203Z</time>
      </trkpt>
      <trkpt lat="47.13061" lon="6.52502">
        <ele>756.2</ele>
        <time>2023-01-15T17:15:02.134Z</time>
      </trkpt>
      <trkpt lat="47.13092" lon="6.52486">
        <ele>758.1</ele>
        <time>2023-01-15T17:15:10.642Z</time>
      </trkpt>
      <trkpt lat="47.13116" lon="6.52478">
        <ele>760</ele>
        <time>2023-01-15T17:15:17.308Z</time>
      </trkpt>
      <trkpt lat="47.13137" lon="6.52454">
        <ele>761.6</ele>
        <time>2023-01-15T17:15:24.185Z</time>
      </trkpt>
      <trkpt lat="47.13149" lon="6.52438">
        <ele>763.1</ele>
        <time>2023-01-15T17:15:28.218Z</time>
      </trkpt>
      <trkpt lat="47.13162" lon="6.52431">
        <ele>764.2</ele>
        <time>2023-01-15T17:15:31.925Z</time>
      </trkpt>
      <trkpt lat="47.13185" lon="6.52423">
        <ele>765.4</ele>
        <time>2023-01-15T17:15:38.104Z</time>
      </trkpt>
      <trkpt lat="47.13188" lon="6.52421">
        <ele>765.6</ele>
        <time>2023-01-15T17:15:39.217Z</time>
      </trkpt>
      <trkpt lat="47.13201" lon="6.52416">
        <ele>766.5</ele>
        <time>2023-01-15T17:15:42.886Z</time>
      </trkpt>
      <trkpt lat="47.13212" lon="6.52411">
        <ele>767.6</ele>
        <time>2023-01-15T17:15:46.425Z</time>
      </trkpt>
      <trkpt lat="47.13219" lon="6.52408">
        <ele>768.1</ele>
        <time>2023-01-15T17:15:48.215Z</time>
      </trkpt>
      <trkpt lat="47.1324" lon="6.52399">
        <ele>769.7</ele>
        <time>2023-01-15T17:15:55.198Z</time>
      </trkpt>
      <trkpt lat="47.13267" lon="6.524">
        <ele>772.1</ele>
        <time>2023-01-15T17:16:04.024Z</time>
      </trkpt>
      <trkpt lat="47.13287" lon="6.52408">
        <ele>773.3</ele>
        <time>2023-01-15T17:16:11.452Z</time>
      </trkpt>
      <trkpt lat="47.13316" lon="6.52428">
        <ele>774.7</ele>
        <time>2023-01-15T17:16:23.212Z</time>
      </trkpt>
      <trkpt lat="47.13332" lon="6.524">
        <ele>778.1</ele>
        <time>2023-01-15T17:16:31.611Z</time>
      </trkpt>
      <trkpt lat="47.13333" lon="6.52391">
        <ele>778.8</ele>
        <time>2023-01-15T17:16:33.993Z</time>
      </trkpt>
      <trkpt lat="47.13359" lon="6.52398">
        <ele>782.1</ele>
        <time>2023-01-15T17:16:43.413Z</time>
      </trkpt>
      <trkpt lat="47.13389" lon="6.52401">
        <ele>785.5</ele>
        <time>2023-01-15T17:16:53.983Z</time>
      </trkpt>
      <trkpt lat="47.13393" lon="6.52372">
        <ele>787</ele>
        <time>2023-01-15T17:17:02.264Z</time>
      </trkpt>
      <trkpt lat="47.13403" lon="6.52344">
        <ele>788.9</ele>
        <time>2023-01-15T17:17:10.038Z</time>
      </trkpt>
      <trkpt lat="47.1342" lon="6.52269">
        <ele>792.7</ele>
        <time>2023-01-15T17:17:31.098Z</time>
      </trkpt>
      <trkpt lat="47.1342" lon="6.52243">
        <ele>793.8</ele>
        <time>2023-01-15T17:17:37.694Z</time>
      </trkpt>
      <trkpt lat="47.13413" lon="6.52187">
        <ele>796.4</ele>
        <time>2023-01-15T17:17:51.497Z</time>
      </trkpt>
      <trkpt lat="47.13408" lon="6.52172">
        <ele>797.5</ele>
        <time>2023-01-15T17:17:55.411Z</time>
      </trkpt>
      <trkpt lat="47.13402" lon="6.52152">
        <ele>799</ele>
        <time>2023-01-15T17:17:59.988Z</time>
      </trkpt>
      <trkpt lat="47.1338" lon="6.52129">
        <ele>800.6</ele>
        <time>2023-01-15T17:18:08.254Z</time>
      </trkpt>
      <trkpt lat="47.13338" lon="6.52087">
        <ele>805.6</ele>
        <time>2023-01-15T17:18:25.406Z</time>
      </trkpt>
      <trkpt lat="47.13316" lon="6.52055">
        <ele>809.5</ele>
        <time>2023-01-15T17:18:35.710Z</time>
      </trkpt>
      <trkpt lat="47.13299" lon="6.52026">
        <ele>812.3</ele>
        <time>2023-01-15T17:18:43.957Z</time>
      </trkpt>
      <trkpt lat="47.1329" lon="6.52005">
        <ele>814</ele>
        <time>2023-01-15T17:18:49.401Z</time>
      </trkpt>
      <trkpt lat="47.13281" lon="6.51976">
        <ele>816</ele>
        <time>2023-01-15T17:18:56.561Z</time>
      </trkpt>
      <trkpt lat="47.13278" lon="6.51926">
        <ele>819.4</ele>
        <time>2023-01-15T17:19:08.184Z</time>
      </trkpt>
      <trkpt lat="47.13278" lon="6.51913">
        <ele>820.3</ele>
        <time>2023-01-15T17:19:11.082Z</time>
      </trkpt>
      <trkpt lat="47.13275" lon="6.51785">
        <ele>828.3</ele>
        <time>2023-01-15T17:19:43.769Z</time>
      </trkpt>
      <trkpt lat="47.13233" lon="6.51528">
        <ele>845.6</ele>
        <time>2023-01-15T17:20:57.194Z</time>
      </trkpt>
      <trkpt lat="47.13221" lon="6.51404">
        <ele>852.8</ele>
        <time>2023-01-15T17:21:30.179Z</time>
      </trkpt>
      <trkpt lat="47.1322" lon="6.51365">
        <ele>855.4</ele>
        <time>2023-01-15T17:21:40.304Z</time>
      </trkpt>
      <trkpt lat="47.13245" lon="6.51359">
        <ele>857</ele>
        <time>2023-01-15T17:21:50.106Z</time>
      </trkpt>
      <trkpt lat="47.13255" lon="6.51371">
        <ele>857.4</ele>
        <time>2023-01-15T17:21:54.691Z</time>
      </trkpt>
      <trkpt lat="47.13289" lon="6.51434">
        <ele>860</ele>
        <time>2023-01-15T17:22:14.792Z</time>
      </trkpt>
      <trkpt lat="47.13367" lon="6.51546">
        <ele>866.8</ele>
        <time>2023-01-15T17:23:01.488Z</time>
      </trkpt>
      <trkpt lat="47.13412" lon="6.51582">
        <ele>871.6</ele>
        <time>2023-01-15T17:23:26.097Z</time>
      </trkpt>
      <trkpt lat="47.1345" lon="6.51616">
        <ele>873.3</ele>
        <time>2023-01-15T17:23:46.635Z</time>
      </trkpt>
      <trkpt lat="47.13468" lon="6.51646">
        <ele>873</ele>
        <time>2023-01-15T17:24:02.026Z</time>
      </trkpt>
      <trkpt lat="47.13475" lon="6.51645">
        <ele>874</ele>
        <time>2023-01-15T17:24:05.957Z</time>
      </trkpt>
      <trkpt lat="47.13489" lon="6.5162">
        <ele>877.7</ele>
        <time>2023-01-15T17:24:18.263Z</time>
      </trkpt>
      <trkpt lat="47.13493" lon="6.51579">
        <ele>881.5</ele>
        <time>2023-01-15T17:24:35.517Z</time>
      </trkpt>
      <trkpt lat="47.13486" lon="6.5154">
        <ele>883.6</ele>
        <time>2023-01-15T17:24:52.274Z</time>
      </trkpt>
      <trkpt lat="47.13492" lon="6.51469">
        <ele>889</ele>
        <time>2023-01-15T17:25:21.930Z</time>
      </trkpt>
      <trkpt lat="47.13506" lon="6.51371">
        <ele>898.9</ele>
        <time>2023-01-15T17:26:02.210Z</time>
      </trkpt>
      <trkpt lat="47.1352" lon="6.51305">
        <ele>906.2</ele>
        <time>2023-01-15T17:26:29.391Z</time>
      </trkpt>
      <trkpt lat="47.13539" lon="6.5119">
        <ele>914</ele>
        <time>2023-01-15T17:27:15.245Z</time>
      </trkpt>
      <trkpt lat="47.13543" lon="6.51167">
        <ele>915.6</ele>
        <time>2023-01-15T17:27:24.213Z</time>
      </trkpt>
      <trkpt lat="47.13551" lon="6.51146">
        <ele>917.4</ele>
        <time>2023-01-15T17:27:31.789Z</time>
      </trkpt>
      <trkpt lat="47.13556" lon="6.51112">
        <ele>918.9</ele>
        <time>2023-01-15T17:27:42.977Z</time>
      </trkpt>
      <trkpt lat="47.13564" lon="6.5109">
        <ele>920.4</ele>
        <time>2023-01-15T17:27:50.750Z</time>
      </trkpt>
      <trkpt lat="47.13613" lon="6.5103">
        <ele>925</ele>
        <time>2023-01-15T17:28:17.358Z</time>
      </trkpt>
      <trkpt lat="47.13638" lon="6.51011">
        <ele>926.5</ele>
        <time>2023-01-15T17:28:27.059Z</time>
      </trkpt>
      <trkpt lat="47.13665" lon="6.51">
        <ele>928</ele>
        <time>2023-01-15T17:28:35.604Z</time>
      </trkpt>
      <trkpt lat="47.1374" lon="6.50962">
        <ele>930.9</ele>
        <time>2023-01-15T17:28:58.144Z</time>
      </trkpt>
      <trkpt lat="47.13806" lon="6.50912">
        <ele>891.9</ele>
        <time>2023-01-15T17:29:17.046Z</time>
      </trkpt>
      <trkpt lat="47.13808" lon="6.50892">
        <ele>888.4</ele>
        <time>2023-01-15T17:29:20.284Z</time>
      </trkpt>
      <trkpt lat="47.13802" lon="6.50864">
        <ele>890.4</ele>
        <time>2023-01-15T17:29:25.023Z</time>
      </trkpt>
      <trkpt lat="47.13796" lon="6.5086">
        <ele>895.3</ele>
        <time>2023-01-15T17:29:26.576Z</time>
      </trkpt>
      <trkpt lat="47.13787" lon="6.50862">
        <ele>903.3</ele>
        <time>2023-01-15T17:29:28.638Z</time>
      </trkpt>
      <trkpt lat="47.13779" lon="6.50838">
        <ele>907.6</ele>
        <time>2023-01-15T17:29:32.738Z</time>
      </trkpt>
      <trkpt lat="47.1378" lon="6.50782">
        <ele>898</ele>
        <time>2023-01-15T17:29:41.088Z</time>
      </trkpt>
      <trkpt lat="47.13776" lon="6.5076">
        <ele>895.7</ele>
        <time>2023-01-15T17:29:44.433Z</time>
      </trkpt>
      <trkpt lat="47.13778" lon="6.50729">
        <ele>887.6</ele>
        <time>2023-01-15T17:29:49.241Z</time>
      </trkpt>
      <trkpt lat="47.13776" lon="6.50709">
        <ele>885.5</ele>
        <time>2023-01-15T17:29:52.298Z</time>
      </trkpt>
      <trkpt lat="47.13776" lon="6.50705">
        <ele>885</ele>
        <time>2023-01-15T17:29:52.931Z</time>
      </trkpt>
      <trkpt lat="47.1377" lon="6.50687">
        <ele>886.1</ele>
        <time>2023-01-15T17:29:55.976Z</time>
      </trkpt>
      <trkpt lat="47.13732" lon="6.50613">
        <ele>900.6</ele>
        <time>2023-01-15T17:30:10.189Z</time>
      </trkpt>
      <trkpt lat="47.1372" lon="6.50598">
        <ele>906.1</ele>
        <time>2023-01-15T17:30:13.757Z</time>
      </trkpt>
      <trkpt lat="47.13701" lon="6.5056">
        <ele>911.3</ele>
        <time>2023-01-15T17:30:20.878Z</time>
      </trkpt>
      <trkpt lat="47.13693" lon="6.50537">
        <ele>910.1</ele>
        <time>2023-01-15T17:30:24.792Z</time>
      </trkpt>
      <trkpt lat="47.1363" lon="6.50434">
        <ele>898.4</ele>
        <time>2023-01-15T17:30:45.830Z</time>
      </trkpt>
      <trkpt lat="47.13575" lon="6.50394">
        <ele>894.6</ele>
        <time>2023-01-15T17:30:59.936Z</time>
      </trkpt>
      <trkpt lat="47.13575" lon="6.50394">
        <ele>894.6</ele>
        <time>2023-01-15T17:31:00.058Z</time>
      </trkpt>
      <trkpt lat="47.13575" lon="6.50394">
        <ele>894.6</ele>
        <time>2023-01-15T17:31:00.058Z</time>
      </trkpt>
      <trkpt lat="47.1357" lon="6.50409">
        <ele>896.2</ele>
        <time>2023-01-15T17:31:04.927Z</time>
      </trkpt>
      <trkpt lat="47.1352" lon="6.50364">
        <ele>892.2</ele>
        <time>2023-01-15T17:31:30.046Z</time>
      </trkpt>
      <trkpt lat="47.13528" lon="6.50315">
        <ele>887</ele>
        <time>2023-01-15T17:31:44.736Z</time>
      </trkpt>
      <trkpt lat="47.1352" lon="6.50274">
        <ele>882.9</ele>
        <time>2023-01-15T17:31:57.172Z</time>
      </trkpt>
      <trkpt lat="47.13494" lon="6.50218">
        <ele>876.8</ele>
        <time>2023-01-15T17:32:16.939Z</time>
      </trkpt>
      <trkpt lat="47.13484" lon="6.50184">
        <ele>871.1</ele>
        <time>2023-01-15T17:32:27.733Z</time>
      </trkpt>
      <trkpt lat="47.1349" lon="6.50137">
        <ele>866.5</ele>
        <time>2023-01-15T17:32:41.666Z</time>
      </trkpt>
      <trkpt lat="47.13494" lon="6.50092">
        <ele>862.6</ele>
        <time>2023-01-15T17:32:54.886Z</time>
      </trkpt>
      <trkpt lat="47.13504" lon="6.50047">
        <ele>856.2</ele>
        <time>2023-01-15T17:33:08.673Z</time>
      </trkpt>
      <trkpt lat="47.13579" lon="6.50074">
        <ele>851.5</ele>
        <time>2023-01-15T17:33:41.721Z</time>
      </trkpt>
      <trkpt lat="47.13614" lon="6.50145">
        <ele>850</ele>
        <time>2023-01-15T17:34:07.241Z</time>
      </trkpt>
      <trkpt lat="47.13637" lon="6.50192">
        <ele>850.1</ele>
        <time>2023-01-15T17:34:24.089Z</time>
      </trkpt>
      <trkpt lat="47.13682" lon="6.50242">
        <ele>846.7</ele>
        <time>2023-01-15T17:34:48.220Z</time>
      </trkpt>
      <trkpt lat="47.13748" lon="6.5033">
        <ele>843</ele>
        <time>2023-01-15T17:35:26.327Z</time>
      </trkpt>
      <trkpt lat="47.13752" lon="6.50325">
        <ele>841.4</ele>
        <time>2023-01-15T17:35:28.382Z</time>
      </trkpt>
      <trkpt lat="47.13759" lon="6.50336">
        <ele>840.8</ele>
        <time>2023-01-15T17:35:31.511Z</time>
      </trkpt>
      <trkpt lat="47.13784" lon="6.50403">
        <ele>840.9</ele>
        <time>2023-01-15T17:35:47.698Z</time>
      </trkpt>
      <trkpt lat="47.13819" lon="6.50518">
        <ele>843.1</ele>
        <time>2023-01-15T17:36:14.311Z</time>
      </trkpt>
      <trkpt lat="47.13853" lon="6.50611">
        <ele>842.7</ele>
        <time>2023-01-15T17:36:38.307Z</time>
      </trkpt>
      <trkpt lat="47.13872" lon="6.50707">
        <ele>847</ele>
        <time>2023-01-15T17:37:00.512Z</time>
      </trkpt>
      <trkpt lat="47.13887" lon="6.50807">
        <ele>850.3</ele>
        <time>2023-01-15T17:37:22.384Z</time>
      </trkpt>
      <trkpt lat="47.13902" lon="6.51001">
        <ele>858.3</ele>
        <time>2023-01-15T17:38:02.767Z</time>
      </trkpt>
      <trkpt lat="47.13907" lon="6.51103">
        <ele>858.3</ele>
        <time>2023-01-15T17:38:20.419Z</time>
      </trkpt>
      <trkpt lat="47.13926" lon="6.51171">
        <ele>854</ele>
        <time>2023-01-15T17:38:31.860Z</time>
      </trkpt>
      <trkpt lat="47.13965" lon="6.51187">
        <ele>845.5</ele>
        <time>2023-01-15T17:38:40.452Z</time>
      </trkpt>
      <trkpt lat="47.14034" lon="6.51098">
        <ele>840</ele>
        <time>2023-01-15T17:39:00.207Z</time>
      </trkpt>
      <trkpt lat="47.14053" lon="6.51083">
        <ele>840.8</ele>
        <time>2023-01-15T17:39:04.636Z</time>
      </trkpt>
      <trkpt lat="47.14067" lon="6.50896">
        <ele>840.1</ele>
        <time>2023-01-15T17:39:32.227Z</time>
      </trkpt>
      <trkpt lat="47.14069" lon="6.50706">
        <ele>834.6</ele>
        <time>2023-01-15T17:40:01.370Z</time>
      </trkpt>
      <trkpt lat="47.14079" lon="6.50585">
        <ele>830.1</ele>
        <time>2023-01-15T17:40:20.017Z</time>
      </trkpt>
      <trkpt lat="47.14078" lon="6.50513">
        <ele>828.7</ele>
        <time>2023-01-15T17:40:31.201Z</time>
      </trkpt>
      <trkpt lat="47.14072" lon="6.50496">
        <ele>827</ele>
        <time>2023-01-15T17:40:33.978Z</time>
      </trkpt>
      <trkpt lat="47.14045" lon="6.50367">
        <ele>813.5</ele>
        <time>2023-01-15T17:40:55.091Z</time>
      </trkpt>
      <trkpt lat="47.14046" lon="6.50335">
        <ele>810.5</ele>
        <time>2023-01-15T17:40:59.954Z</time>
      </trkpt>
      <trkpt lat="47.14046" lon="6.5032">
        <ele>809.2</ele>
        <time>2023-01-15T17:41:02.456Z</time>
      </trkpt>
      <trkpt lat="47.1405" lon="6.50307">
        <ele>808.1</ele>
        <time>2023-01-15T17:41:04.665Z</time>
      </trkpt>
      <trkpt lat="47.14064" lon="6.50312">
        <ele>807.7</ele>
        <time>2023-01-15T17:41:07.856Z</time>
      </trkpt>
      <trkpt lat="47.14097" lon="6.50284">
        <ele>799</ele>
        <time>2023-01-15T17:41:15.986Z</time>
      </trkpt>
      <trkpt lat="47.1416" lon="6.50227">
        <ele>787.7</ele>
        <time>2023-01-15T17:41:31.248Z</time>
      </trkpt>
      <trkpt lat="47.14176" lon="6.50193">
        <ele>787.8</ele>
        <time>2023-01-15T17:41:37.149Z</time>
      </trkpt>
      <trkpt lat="47.1421" lon="6.50131">
        <ele>783.7</ele>
        <time>2023-01-15T17:41:43.804Z</time>
      </trkpt>
      <trkpt lat="47.14284" lon="6.5004">
        <ele>774</ele>
        <time>2023-01-15T17:41:55.436Z</time>
      </trkpt>
      <trkpt lat="47.1434" lon="6.49995">
        <ele>767.1</ele>
        <time>2023-01-15T17:42:03.341Z</time>
      </trkpt>
      <trkpt lat="47.14372" lon="6.49978">
        <ele>762.4</ele>
        <time>2023-01-15T17:42:07.738Z</time>
      </trkpt>
      <trkpt lat="47.14364" lon="6.49939">
        <ele>760.6</ele>
        <time>2023-01-15T17:42:11.349Z</time>
      </trkpt>
      <trkpt lat="47.14362" lon="6.49909">
        <ele>756.4</ele>
        <time>2023-01-15T17:42:13.984Z</time>
      </trkpt>
      <trkpt lat="47.14378" lon="6.49907">
        <ele>755.3</ele>
        <time>2023-01-15T17:42:16.059Z</time>
      </trkpt>
      <trkpt lat="47.14393" lon="6.49902">
        <ele>754.5</ele>
        <time>2023-01-15T17:42:17.963Z</time>
      </trkpt>
      <trkpt lat="47.1442" lon="6.49893">
        <ele>754.2</ele>
        <time>2023-01-15T17:42:21.536Z</time>
      </trkpt>
      <trkpt lat="47.14434" lon="6.49889">
        <ele>753.4</ele>
        <time>2023-01-15T17:42:23.386Z</time>
      </trkpt>
      <trkpt lat="47.14478" lon="6.49875">
        <ele>753.6</ele>
        <time>2023-01-15T17:42:30.037Z</time>
      </trkpt>
      <trkpt lat="47.14508" lon="6.4986">
        <ele>754.2</ele>
        <time>2023-01-15T17:42:35.550Z</time>
      </trkpt>
      <trkpt lat="47.14567" lon="6.49828">
        <ele>755</ele>
        <time>2023-01-15T17:42:49.936Z</time>
      </trkpt>
      <trkpt lat="47.14599" lon="6.49817">
        <ele>755.1</ele>
        <time>2023-01-15T17:42:58.392Z</time>
      </trkpt>
      <trkpt lat="47.14615" lon="6.49815">
        <ele>755.3</ele>
        <time>2023-01-15T17:43:02.494Z</time>
      </trkpt>
      <trkpt lat="47.14666" lon="6.49823">
        <ele>756.3</ele>
        <time>2023-01-15T17:43:15.265Z</time>
      </trkpt>
      <trkpt lat="47.14677" lon="6.49826">
        <ele>756.5</ele>
        <time>2023-01-15T17:43:17.697Z</time>
      </trkpt>
      <trkpt lat="47.14695" lon="6.4983">
        <ele>756.8</ele>
        <time>2023-01-15T17:43:21.793Z</time>
      </trkpt>
      <trkpt lat="47.1474" lon="6.4984">
        <ele>758</ele>
        <time>2023-01-15T17:43:30.628Z</time>
      </trkpt>
      <trkpt lat="47.14772" lon="6.4984">
        <ele>758.5</ele>
        <time>2023-01-15T17:43:35.882Z</time>
      </trkpt>
      <trkpt lat="47.148" lon="6.49831">
        <ele>760.1</ele>
        <time>2023-01-15T17:43:39.979Z</time>
      </trkpt>
      <trkpt lat="47.14816" lon="6.49822">
        <ele>760.8</ele>
        <time>2023-01-15T17:43:42.365Z</time>
      </trkpt>
      <trkpt lat="47.14819" lon="6.49817">
        <ele>760.8</ele>
        <time>2023-01-15T17:43:43.061Z</time>
      </trkpt>
      <trkpt lat="47.14832" lon="6.49802">
        <ele>761.4</ele>
        <time>2023-01-15T17:43:45.383Z</time>
      </trkpt>
      <trkpt lat="47.14843" lon="6.4977">
        <ele>761.2</ele>
        <time>2023-01-15T17:43:48.612Z</time>
      </trkpt>
      <trkpt lat="47.14857" lon="6.49672">
        <ele>761.4</ele>
        <time>2023-01-15T17:43:57.596Z</time>
      </trkpt>
      <trkpt lat="47.14881" lon="6.49565">
        <ele>760.2</ele>
        <time>2023-01-15T17:44:08.265Z</time>
      </trkpt>
      <trkpt lat="47.14905" lon="6.49468">
        <ele>757.6</ele>
        <time>2023-01-15T17:44:18.843Z</time>
      </trkpt>
      <trkpt lat="47.14928" lon="6.49396">
        <ele>754.9</ele>
        <time>2023-01-15T17:44:27.138Z</time>
      </trkpt>
      <trkpt lat="47.14938" lon="6.49373">
        <ele>754.2</ele>
        <time>2023-01-15T17:44:29.907Z</time>
      </trkpt>
      <trkpt lat="47.14946" lon="6.49357">
        <ele>753.7</ele>
        <time>2023-01-15T17:44:31.967Z</time>
      </trkpt>
      <trkpt lat="47.14953" lon="6.49344">
        <ele>752.8</ele>
        <time>2023-01-15T17:44:33.621Z</time>
      </trkpt>
      <trkpt lat="47.14969" lon="6.49329">
        <ele>751.7</ele>
        <time>2023-01-15T17:44:36.445Z</time>
      </trkpt>
      <trkpt lat="47.14993" lon="6.49311">
        <ele>749.7</ele>
        <time>2023-01-15T17:44:40.319Z</time>
      </trkpt>
      <trkpt lat="47.15042" lon="6.49285">
        <ele>746.9</ele>
        <time>2023-01-15T17:44:47.998Z</time>
      </trkpt>
      <trkpt lat="47.15099" lon="6.49266">
        <ele>743.3</ele>
        <time>2023-01-15T17:44:56.917Z</time>
      </trkpt>
      <trkpt lat="47.1511" lon="6.49263">
        <ele>743</ele>
        <time>2023-01-15T17:44:58.731Z</time>
      </trkpt>
      <trkpt lat="47.15137" lon="6.49264">
        <ele>742.1</ele>
        <time>2023-01-15T17:45:03.120Z</time>
      </trkpt>
      <trkpt lat="47.15156" lon="6.49278">
        <ele>742</ele>
        <time>2023-01-15T17:45:06.810Z</time>
      </trkpt>
      <trkpt lat="47.15169" lon="6.49302">
        <ele>742</ele>
        <time>2023-01-15T17:45:10.465Z</time>
      </trkpt>
      <trkpt lat="47.15185" lon="6.49341">
        <ele>743.1</ele>
        <time>2023-01-15T17:45:16.452Z</time>
      </trkpt>
      <trkpt lat="47.15244" lon="6.49447">
        <ele>746.1</ele>
        <time>2023-01-15T17:45:35.847Z</time>
      </trkpt>
      <trkpt lat="47.15257" lon="6.4947">
        <ele>746.7</ele>
        <time>2023-01-15T17:45:39.912Z</time>
      </trkpt>
      <trkpt lat="47.1528" lon="6.49513">
        <ele>747.4</ele>
        <time>2023-01-15T17:45:46.625Z</time>
      </trkpt>
      <trkpt lat="47.15296" lon="6.4954">
        <ele>747.6</ele>
        <time>2023-01-15T17:45:50.543Z</time>
      </trkpt>
      <trkpt lat="47.1531" lon="6.49553">
        <ele>746.7</ele>
        <time>2023-01-15T17:45:53.128Z</time>
      </trkpt>
      <trkpt lat="47.1534" lon="6.49564">
        <ele>745.3</ele>
        <time>2023-01-15T17:45:57.747Z</time>
      </trkpt>
      <trkpt lat="47.15352" lon="6.49563">
        <ele>744.7</ele>
        <time>2023-01-15T17:45:59.491Z</time>
      </trkpt>
      <trkpt lat="47.15368" lon="6.49552">
        <ele>743.6</ele>
        <time>2023-01-15T17:46:01.926Z</time>
      </trkpt>
      <trkpt lat="47.15381" lon="6.49536">
        <ele>742.6</ele>
        <time>2023-01-15T17:46:04.197Z</time>
      </trkpt>
      <trkpt lat="47.1539" lon="6.49518">
        <ele>741.6</ele>
        <time>2023-01-15T17:46:06.294Z</time>
      </trkpt>
      <trkpt lat="47.15394" lon="6.49508">
        <ele>740.9</ele>
        <time>2023-01-15T17:46:07.447Z</time>
      </trkpt>
      <trkpt lat="47.15413" lon="6.49469">
        <ele>739.2</ele>
        <time>2023-01-15T17:46:11.673Z</time>
      </trkpt>
      <trkpt lat="47.15463" lon="6.49382">
        <ele>735.6</ele>
        <time>2023-01-15T17:46:21.915Z</time>
      </trkpt>
      <trkpt lat="47.15468" lon="6.49374">
        <ele>735.2</ele>
        <time>2023-01-15T17:46:22.890Z</time>
      </trkpt>
      <trkpt lat="47.15509" lon="6.49334">
        <ele>733.7</ele>
        <time>2023-01-15T17:46:29.279Z</time>
      </trkpt>
      <trkpt lat="47.1555" lon="6.49281">
        <ele>730.3</ele>
        <time>2023-01-15T17:46:36.623Z</time>
      </trkpt>
      <trkpt lat="47.15559" lon="6.49255">
        <ele>729</ele>
        <time>2023-01-15T17:46:39.306Z</time>
      </trkpt>
      <trkpt lat="47.1558" lon="6.49188">
        <ele>725.9</ele>
        <time>2023-01-15T17:46:45.996Z</time>
      </trkpt>
      <trkpt lat="47.1562" lon="6.49065">
        <ele>720.9</ele>
        <time>2023-01-15T17:46:58.106Z</time>
      </trkpt>
      <trkpt lat="47.15623" lon="6.49057">
        <ele>720.6</ele>
        <time>2023-01-15T17:46:58.848Z</time>
      </trkpt>
      <trkpt lat="47.15648" lon="6.48995">
        <ele>718.5</ele>
        <time>2023-01-15T17:47:05.087Z</time>
      </trkpt>
      <trkpt lat="47.15686" lon="6.48905">
        <ele>712</ele>
        <time>2023-01-15T17:47:14.046Z</time>
      </trkpt>
      <trkpt lat="47.15692" lon="6.48867">
        <ele>709.4</ele>
        <time>2023-01-15T17:47:17.339Z</time>
      </trkpt>
      <trkpt lat="47.15701" lon="6.48752">
        <ele>700.7</ele>
        <time>2023-01-15T17:47:27.247Z</time>
      </trkpt>
      <trkpt lat="47.15699" lon="6.48713">
        <ele>697.8</ele>
        <time>2023-01-15T17:47:30.550Z</time>
      </trkpt>
      <trkpt lat="47.15673" lon="6.48528">
        <ele>689.2</ele>
        <time>2023-01-15T17:47:47.148Z</time>
      </trkpt>
      <trkpt lat="47.15671" lon="6.48511">
        <ele>689.2</ele>
        <time>2023-01-15T17:47:48.560Z</time>
      </trkpt>
      <trkpt lat="47.15673" lon="6.48528">
        <ele>689.2</ele>
        <time>2023-01-15T17:47:50.253Z</time>
      </trkpt>
      <trkpt lat="47.15699" lon="6.48493">
        <ele>690.7</ele>
        <time>2023-01-15T17:47:55.530Z</time>
      </trkpt>
      <trkpt lat="47.15721" lon="6.48517">
        <ele>690.7</ele>
        <time>2023-01-15T17:47:59.598Z</time>
      </trkpt>
      <trkpt lat="47.1575" lon="6.48586">
        <ele>687.8</ele>
        <time>2023-01-15T17:48:08.319Z</time>
      </trkpt>
      <trkpt lat="47.15783" lon="6.4864">
        <ele>686.4</ele>
        <time>2023-01-15T17:48:16.069Z</time>
      </trkpt>
      <trkpt lat="47.1582" lon="6.48676">
        <ele>685.7</ele>
        <time>2023-01-15T17:48:23.399Z</time>
      </trkpt>
      <trkpt lat="47.15827" lon="6.48684">
        <ele>685.6</ele>
        <time>2023-01-15T17:48:24.916Z</time>
      </trkpt>
      <trkpt lat="47.15854" lon="6.48712">
        <ele>685.7</ele>
        <time>2023-01-15T17:48:30.210Z</time>
      </trkpt>
      <trkpt lat="47.1588" lon="6.48724">
        <ele>684.9</ele>
        <time>2023-01-15T17:48:34.657Z</time>
      </trkpt>
      <trkpt lat="47.15982" lon="6.48737">
        <ele>680.8</ele>
        <time>2023-01-15T17:48:51.307Z</time>
      </trkpt>
      <trkpt lat="47.16042" lon="6.48758">
        <ele>679.2</ele>
        <time>2023-01-15T17:49:02.817Z</time>
      </trkpt>
      <trkpt lat="47.16106" lon="6.48808">
        <ele>677.4</ele>
        <time>2023-01-15T17:49:18.901Z</time>
      </trkpt>
      <trkpt lat="47.16122" lon="6.48823">
        <ele>677.7</ele>
        <time>2023-01-15T17:49:23.367Z</time>
      </trkpt>
      <trkpt lat="47.1614" lon="6.48858">
        <ele>677.5</ele>
        <time>2023-01-15T17:49:31.007Z</time>
      </trkpt>
      <trkpt lat="47.16151" lon="6.4892">
        <ele>675.1</ele>
        <time>2023-01-15T17:49:42.528Z</time>
      </trkpt>
      <trkpt lat="47.16139" lon="6.48972">
        <ele>681.1</ele>
        <time>2023-01-15T17:49:52.906Z</time>
      </trkpt>
      <trkpt lat="47.16125" lon="6.49055">
        <ele>680.5</ele>
        <time>2023-01-15T17:50:09.192Z</time>
      </trkpt>
      <trkpt lat="47.16095" lon="6.49208">
        <ele>669.9</ele>
        <time>2023-01-15T17:50:37.183Z</time>
      </trkpt>
      <trkpt lat="47.16111" lon="6.49252">
        <ele>662.5</ele>
        <time>2023-01-15T17:50:44.979Z</time>
      </trkpt>
      <trkpt lat="47.16144" lon="6.49287">
        <ele>663.6</ele>
        <time>2023-01-15T17:50:53.517Z</time>
      </trkpt>
      <trkpt lat="47.16164" lon="6.49339">
        <ele>666</ele>
        <time>2023-01-15T17:51:01.033Z</time>
      </trkpt>
      <trkpt lat="47.16191" lon="6.49362">
        <ele>663.5</ele>
        <time>2023-01-15T17:51:06.388Z</time>
      </trkpt>
      <trkpt lat="47.16247" lon="6.49362">
        <ele>656.5</ele>
        <time>2023-01-15T17:51:15.430Z</time>
      </trkpt>
      <trkpt lat="47.16302" lon="6.49387">
        <ele>657</ele>
        <time>2023-01-15T17:51:24.141Z</time>
      </trkpt>
      <trkpt lat="47.16354" lon="6.49403">
        <ele>654.1</ele>
        <time>2023-01-15T17:51:31.308Z</time>
      </trkpt>
      <trkpt lat="47.1643" lon="6.49434">
        <ele>651.8</ele>
        <time>2023-01-15T17:51:42.040Z</time>
      </trkpt>
      <trkpt lat="47.16442" lon="6.49439">
        <ele>652</ele>
        <time>2023-01-15T17:51:44.737Z</time>
      </trkpt>
      <trkpt lat="47.16455" lon="6.4944">
        <ele>651.7</ele>
        <time>2023-01-15T17:51:47.871Z</time>
      </trkpt>
      <trkpt lat="47.16475" lon="6.4943">
        <ele>648.3</ele>
        <time>2023-01-15T17:51:52.741Z</time>
      </trkpt>
      <trkpt lat="47.16477" lon="6.49416">
        <ele>644.9</ele>
        <time>2023-01-15T17:51:54.833Z</time>
      </trkpt>
      <trkpt lat="47.16473" lon="6.49407">
        <ele>643.6</ele>
        <time>2023-01-15T17:51:56.607Z</time>
      </trkpt>
      <trkpt lat="47.1645" lon="6.49394">
        <ele>643.3</ele>
        <time>2023-01-15T17:52:02.190Z</time>
      </trkpt>
      <trkpt lat="47.16436" lon="6.4939">
        <ele>643.7</ele>
        <time>2023-01-15T17:52:05.299Z</time>
      </trkpt>
      <trkpt lat="47.16423" lon="6.49393">
        <ele>645.1</ele>
        <time>2023-01-15T17:52:08.166Z</time>
      </trkpt>
      <trkpt lat="47.16379" lon="6.49366">
        <ele>643.9</ele>
        <time>2023-01-15T17:52:18.359Z</time>
      </trkpt>
      <trkpt lat="47.16362" lon="6.4936">
        <ele>644.4</ele>
        <time>2023-01-15T17:52:22.350Z</time>
      </trkpt>
      <trkpt lat="47.16338" lon="6.49332">
        <ele>638.2</ele>
        <time>2023-01-15T17:52:29.043Z</time>
      </trkpt>
      <trkpt lat="47.16322" lon="6.49323">
        <ele>638.3</ele>
        <time>2023-01-15T17:52:32.818Z</time>
      </trkpt>
      <trkpt lat="47.16312" lon="6.49313">
        <ele>637.2</ele>
        <time>2023-01-15T17:52:35.738Z</time>
      </trkpt>
      <trkpt lat="47.16291" lon="6.49285">
        <ele>631.2</ele>
        <time>2023-01-15T17:52:42.183Z</time>
      </trkpt>
      <trkpt lat="47.16258" lon="6.4926">
        <ele>627.9</ele>
        <time>2023-01-15T17:52:50.815Z</time>
      </trkpt>
      <trkpt lat="47.16249" lon="6.4924">
        <ele>625.1</ele>
        <time>2023-01-15T17:52:54.701Z</time>
      </trkpt>
      <trkpt lat="47.16246" lon="6.49211">
        <ele>623.6</ele>
        <time>2023-01-15T17:52:59.368Z</time>
      </trkpt>
      <trkpt lat="47.16241" lon="6.4919">
        <ele>624.1</ele>
        <time>2023-01-15T17:53:03.235Z</time>
      </trkpt>
      <trkpt lat="47.16238" lon="6.49144">
        <ele>625.8</ele>
        <time>2023-01-15T17:53:11.069Z</time>
      </trkpt>
      <trkpt lat="47.16233" lon="6.49111">
        <ele>627.8</ele>
        <time>2023-01-15T17:53:16.704Z</time>
      </trkpt>
      <trkpt lat="47.16247" lon="6.49117">
        <ele>628.2</ele>
        <time>2023-01-15T17:53:20.345Z</time>
      </trkpt>
      <trkpt lat="47.1627" lon="6.49146">
        <ele>629.7</ele>
        <time>2023-01-15T17:53:28.271Z</time>
      </trkpt>
      <trkpt lat="47.16318" lon="6.49157">
        <ele>638.4</ele>
        <time>2023-01-15T17:53:41.177Z</time>
      </trkpt>
      <trkpt lat="47.16351" lon="6.49185">
        <ele>635.4</ele>
        <time>2023-01-15T17:53:51.201Z</time>
      </trkpt>
      <trkpt lat="47.16387" lon="6.49204">
        <ele>633.9</ele>
        <time>2023-01-15T17:54:01.335Z</time>
      </trkpt>
      <trkpt lat="47.16439" lon="6.49221">
        <ele>632.2</ele>
        <time>2023-01-15T17:54:15.252Z</time>
      </trkpt>
      <trkpt lat="47.16474" lon="6.49227">
        <ele>631.3</ele>
        <time>2023-01-15T17:54:24.284Z</time>
      </trkpt>
      <trkpt lat="47.16512" lon="6.49224">
        <ele>631.4</ele>
        <time>2023-01-15T17:54:34.209Z</time>
      </trkpt>
      <trkpt lat="47.16538" lon="6.49215">
        <ele>632.6</ele>
        <time>2023-01-15T17:54:41.263Z</time>
      </trkpt>
      <trkpt lat="47.16577" lon="6.4919">
        <ele>633.5</ele>
        <time>2023-01-15T17:54:54.099Z</time>
      </trkpt>
      <trkpt lat="47.16643" lon="6.49091">
        <ele>643.1</ele>
        <time>2023-01-15T17:55:22.497Z</time>
      </trkpt>
      <trkpt lat="47.16697" lon="6.4903">
        <ele>640.4</ele>
        <time>2023-01-15T17:55:42.764Z</time>
      </trkpt>
      <trkpt lat="47.1673" lon="6.49">
        <ele>634.6</ele>
        <time>2023-01-15T17:55:53.280Z</time>
      </trkpt>
      <trkpt lat="47.16782" lon="6.48917">
        <ele>631.8</ele>
        <time>2023-01-15T17:56:11.772Z</time>
      </trkpt>
      <trkpt lat="47.16811" lon="6.4886">
        <ele>627.9</ele>
        <time>2023-01-15T17:56:22.768Z</time>
      </trkpt>
      <trkpt lat="47.16826" lon="6.48838">
        <ele>627.6</ele>
        <time>2023-01-15T17:56:27.436Z</time>
      </trkpt>
      <trkpt lat="47.1685" lon="6.48812">
        <ele>629</ele>
        <time>2023-01-15T17:56:34.006Z</time>
      </trkpt>
      <trkpt lat="47.1687" lon="6.48815">
        <ele>625.8</ele>
        <time>2023-01-15T17:56:38.565Z</time>
      </trkpt>
      <trkpt lat="47.16921" lon="6.48836">
        <ele>620.6</ele>
        <time>2023-01-15T17:56:50.355Z</time>
      </trkpt>
      <trkpt lat="47.16964" lon="6.48843">
        <ele>622.3</ele>
        <time>2023-01-15T17:57:00.344Z</time>
      </trkpt>
      <trkpt lat="47.16996" lon="6.48861">
        <ele>618.5</ele>
        <time>2023-01-15T17:57:08.812Z</time>
      </trkpt>
      <trkpt lat="47.17047" lon="6.48881">
        <ele>618.1</ele>
        <time>2023-01-15T17:57:23.318Z</time>
      </trkpt>
      <trkpt lat="47.17083" lon="6.48892">
        <ele>619.1</ele>
        <time>2023-01-15T17:57:33.734Z</time>
      </trkpt>
      <trkpt lat="47.17113" lon="6.48892">
        <ele>623.8</ele>
        <time>2023-01-15T17:57:42.397Z</time>
      </trkpt>
      <trkpt lat="47.17131" lon="6.48886">
        <ele>627.9</ele>
        <time>2023-01-15T17:57:47.874Z</time>
      </trkpt>
      <trkpt lat="47.17155" lon="6.48884">
        <ele>629.5</ele>
        <time>2023-01-15T17:57:54.947Z</time>
      </trkpt>
      <trkpt lat="47.17197" lon="6.48861">
        <ele>634.6</ele>
        <time>2023-01-15T17:58:08.509Z</time>
      </trkpt>
      <trkpt lat="47.17212" lon="6.48855">
        <ele>632.8</ele>
        <time>2023-01-15T17:58:13.063Z</time>
      </trkpt>
      <trkpt lat="47.17231" lon="6.48855">
        <ele>629.3</ele>
        <time>2023-01-15T17:58:18.945Z</time>
      </trkpt>
      <trkpt lat="47.17259" lon="6.48844">
        <ele>631.6</ele>
        <time>2023-01-15T17:58:27.464Z</time>
      </trkpt>
      <trkpt lat="47.17278" lon="6.48845">
        <ele>630.8</ele>
        <time>2023-01-15T17:58:33.156Z</time>
      </trkpt>
      <trkpt lat="47.1729" lon="6.48852">
        <ele>629.4</ele>
        <time>2023-01-15T17:58:36.994Z</time>
      </trkpt>
      <trkpt lat="47.17306" lon="6.48853">
        <ele>631.1</ele>
        <time>2023-01-15T17:58:41.964Z</time>
      </trkpt>
      <trkpt lat="47.17319" lon="6.48867">
        <ele>626.4</ele>
        <time>2023-01-15T17:58:46.688Z</time>
      </trkpt>
      <trkpt lat="47.17354" lon="6.48878">
        <ele>623.4</ele>
        <time>2023-01-15T17:58:57.702Z</time>
      </trkpt>
      <trkpt lat="47.17379" lon="6.4887">
        <ele>622.7</ele>
        <time>2023-01-15T17:59:05.549Z</time>
      </trkpt>
      <trkpt lat="47.17392" lon="6.48862">
        <ele>622.2</ele>
        <time>2023-01-15T17:59:09.759Z</time>
      </trkpt>
      <trkpt lat="47.17402" lon="6.48856">
        <ele>620.4</ele>
        <time>2023-01-15T17:59:12.189Z</time>
      </trkpt>
      <trkpt lat="47.17412" lon="6.48843">
        <ele>620.6</ele>
        <time>2023-01-15T17:59:15.089Z</time>
      </trkpt>
      <trkpt lat="47.17439" lon="6.48822">
        <ele>613.2</ele>
        <time>2023-01-15T17:59:22.115Z</time>
      </trkpt>
      <trkpt lat="47.17461" lon="6.48798">
        <ele>606.7</ele>
        <time>2023-01-15T17:59:29.163Z</time>
      </trkpt>
      <trkpt lat="47.17475" lon="6.48775">
        <ele>601.4</ele>
        <time>2023-01-15T17:59:34.169Z</time>
      </trkpt>
      <trkpt lat="47.17487" lon="6.48727">
        <ele>601.2</ele>
        <time>2023-01-15T17:59:41.736Z</time>
      </trkpt>
      <trkpt lat="47.17492" lon="6.48723">
        <ele>599.1</ele>
        <time>2023-01-15T17:59:43.493Z</time>
      </trkpt>
      <trkpt lat="47.17497" lon="6.48723">
        <ele>596.4</ele>
        <time>2023-01-15T17:59:44.634Z</time>
      </trkpt>
      <trkpt lat="47.17507" lon="6.48738">
        <ele>592.8</ele>
        <time>2023-01-15T17:59:47.355Z</time>
      </trkpt>
      <trkpt lat="47.17512" lon="6.48759">
        <ele>590.8</ele>
        <time>2023-01-15T17:59:51.993Z</time>
      </trkpt>
      <trkpt lat="47.17515" lon="6.4885">
        <ele>587.4</ele>
        <time>2023-01-15T18:00:04.819Z</time>
      </trkpt>
      <trkpt lat="47.17517" lon="6.48873">
        <ele>586.7</ele>
        <time>2023-01-15T18:00:08.926Z</time>
      </trkpt>
      <trkpt lat="47.17521" lon="6.48885">
        <ele>586.6</ele>
        <time>2023-01-15T18:00:10.628Z</time>
      </trkpt>
      <trkpt lat="47.17526" lon="6.48891">
        <ele>586.9</ele>
        <time>2023-01-15T18:00:11.953Z</time>
      </trkpt>
      <trkpt lat="47.17533" lon="6.48913">
        <ele>588.5</ele>
        <time>2023-01-15T18:00:16.597Z</time>
      </trkpt>
      <trkpt lat="47.17532" lon="6.48969">
        <ele>589.4</ele>
        <time>2023-01-15T18:00:24.584Z</time>
      </trkpt>
      <trkpt lat="47.17526" lon="6.49014">
        <ele>590.6</ele>
        <time>2023-01-15T18:00:32.201Z</time>
      </trkpt>
      <trkpt lat="47.17526" lon="6.49048">
        <ele>591.6</ele>
        <time>2023-01-15T18:00:37.371Z</time>
      </trkpt>
      <trkpt lat="47.1753" lon="6.49065">
        <ele>592.3</ele>
        <time>2023-01-15T18:00:41.144Z</time>
      </trkpt>
      <trkpt lat="47.17542" lon="6.49098">
        <ele>592.9</ele>
        <time>2023-01-15T18:00:47.112Z</time>
      </trkpt>
      <trkpt lat="47.17563" lon="6.49129">
        <ele>594.9</ele>
        <time>2023-01-15T18:00:56.334Z</time>
      </trkpt>
      <trkpt lat="47.17566" lon="6.49143">
        <ele>594.5</ele>
        <time>2023-01-15T18:00:59.651Z</time>
      </trkpt>
      <trkpt lat="47.1756" lon="6.49187">
        <ele>589.8</ele>
        <time>2023-01-15T18:01:09.451Z</time>
      </trkpt>
      <trkpt lat="47.1755" lon="6.49227">
        <ele>585.4</ele>
        <time>2023-01-15T18:01:19.650Z</time>
      </trkpt>
      <trkpt lat="47.17549" lon="6.49273">
        <ele>583.3</ele>
        <time>2023-01-15T18:01:30.248Z</time>
      </trkpt>
      <trkpt lat="47.17533" lon="6.49282">
        <ele>578.3</ele>
        <time>2023-01-15T18:01:36.383Z</time>
      </trkpt>
      <trkpt lat="47.17517" lon="6.49283">
        <ele>576.5</ele>
        <time>2023-01-15T18:01:41.554Z</time>
      </trkpt>
      <trkpt lat="47.17501" lon="6.4929">
        <ele>576</ele>
        <time>2023-01-15T18:01:48.439Z</time>
      </trkpt>
      <trkpt lat="47.17485" lon="6.49328">
        <ele>576.9</ele>
        <time>2023-01-15T18:01:59.313Z</time>
      </trkpt>
      <trkpt lat="47.1747" lon="6.49348">
        <ele>579.5</ele>
        <time>2023-01-15T18:02:05.822Z</time>
      </trkpt>
      <trkpt lat="47.17459" lon="6.49357">
        <ele>583</ele>
        <time>2023-01-15T18:02:11.926Z</time>
      </trkpt>
      <trkpt lat="47.1748" lon="6.49398">
        <ele>580.6</ele>
        <time>2023-01-15T18:02:24.526Z</time>
      </trkpt>
      <trkpt lat="47.17487" lon="6.49417">
        <ele>579.3</ele>
        <time>2023-01-15T18:02:29.491Z</time>
      </trkpt>
      <trkpt lat="47.17503" lon="6.49497">
        <ele>578.6</ele>
        <time>2023-01-15T18:02:48.854Z</time>
      </trkpt>
      <trkpt lat="47.17502" lon="6.49529">
        <ele>579.7</ele>
        <time>2023-01-15T18:02:55.440Z</time>
      </trkpt>
      <trkpt lat="47.17495" lon="6.49603">
        <ele>581.8</ele>
        <time>2023-01-15T18:03:10.989Z</time>
      </trkpt>
      <trkpt lat="47.17505" lon="6.49678">
        <ele>580.5</ele>
        <time>2023-01-15T18:03:26.401Z</time>
      </trkpt>
      <trkpt lat="47.17514" lon="6.4971">
        <ele>580.2</ele>
        <time>2023-01-15T18:03:33.094Z</time>
      </trkpt>
      <trkpt lat="47.1752" lon="6.49757">
        <ele>581</ele>
        <time>2023-01-15T18:03:41.841Z</time>
      </trkpt>
      <trkpt lat="47.17524" lon="6.49814">
        <ele>580</ele>
        <time>2023-01-15T18:03:51.879Z</time>
      </trkpt>
      <trkpt lat="47.17522" lon="6.49887">
        <ele>579.6</ele>
        <time>2023-01-15T18:04:04.269Z</time>
      </trkpt>
      <trkpt lat="47.17526" lon="6.49996">
        <ele>577.8</ele>
        <time>2023-01-15T18:04:22.279Z</time>
      </trkpt>
      <trkpt lat="47.17521" lon="6.50102">
        <ele>576.1</ele>
        <time>2023-01-15T18:04:40.105Z</time>
      </trkpt>
      <trkpt lat="47.17518" lon="6.50122">
        <ele>575.3</ele>
        <time>2023-01-15T18:04:43.624Z</time>
      </trkpt>
      <trkpt lat="47.17498" lon="6.50164">
        <ele>574.8</ele>
        <time>2023-01-15T18:04:52.387Z</time>
      </trkpt>
      <trkpt lat="47.17502" lon="6.50198">
        <ele>572.1</ele>
        <time>2023-01-15T18:04:58.274Z</time>
      </trkpt>
      <trkpt lat="47.17499" lon="6.50216">
        <ele>571.3</ele>
        <time>2023-01-15T18:05:01.703Z</time>
      </trkpt>
      <trkpt lat="47.17491" lon="6.50232">
        <ele>572.9</ele>
        <time>2023-01-15T18:05:05.328Z</time>
      </trkpt>
      <trkpt lat="47.17426" lon="6.50248">
        <ele>574.3</ele>
        <time>2023-01-15T18:05:24.695Z</time>
      </trkpt>
      <trkpt lat="47.17346" lon="6.50253">
        <ele>574.7</ele>
        <time>2023-01-15T18:05:49.411Z</time>
      </trkpt>
      <trkpt lat="47.17295" lon="6.5027">
        <ele>579.9</ele>
        <time>2023-01-15T18:06:05.373Z</time>
      </trkpt>
      <trkpt lat="47.17283" lon="6.50281">
        <ele>585</ele>
        <time>2023-01-15T18:06:10.135Z</time>
      </trkpt>
      <trkpt lat="47.17277" lon="6.50296">
        <ele>587.9</ele>
        <time>2023-01-15T18:06:13.542Z</time>
      </trkpt>
      <trkpt lat="47.17263" lon="6.50365">
        <ele>592.2</ele>
        <time>2023-01-15T18:06:28.868Z</time>
      </trkpt>
      <trkpt lat="47.17262" lon="6.50427">
        <ele>587.1</ele>
        <time>2023-01-15T18:06:42.358Z</time>
      </trkpt>
      <trkpt lat="47.17258" lon="6.50468">
        <ele>588</ele>
        <time>2023-01-15T18:06:51.099Z</time>
      </trkpt>
      <trkpt lat="47.17242" lon="6.50544">
        <ele>590.3</ele>
        <time>2023-01-15T18:07:08.125Z</time>
      </trkpt>
      <trkpt lat="47.17227" lon="6.50593">
        <ele>596.7</ele>
        <time>2023-01-15T18:07:19.674Z</time>
      </trkpt>
      <trkpt lat="47.1722" lon="6.50638">
        <ele>595.8</ele>
        <time>2023-01-15T18:07:29.532Z</time>
      </trkpt>
      <trkpt lat="47.17214" lon="6.5066">
        <ele>593</ele>
        <time>2023-01-15T18:07:34.677Z</time>
      </trkpt>
      <trkpt lat="47.17155" lon="6.50741">
        <ele>591.5</ele>
        <time>2023-01-15T18:07:59.242Z</time>
      </trkpt>
      <trkpt lat="47.17144" lon="6.50773">
        <ele>588.5</ele>
        <time>2023-01-15T18:08:06.848Z</time>
      </trkpt>
      <trkpt lat="47.17184" lon="6.50738">
        <ele>586.2</ele>
        <time>2023-01-15T18:08:20.833Z</time>
      </trkpt>
      <trkpt lat="47.172" lon="6.50734">
        <ele>583.9</ele>
        <time>2023-01-15T18:08:25.710Z</time>
      </trkpt>
      <trkpt lat="47.17269" lon="6.50747">
        <ele>584.5</ele>
        <time>2023-01-15T18:08:46.469Z</time>
      </trkpt>
      <trkpt lat="47.17319" lon="6.50767">
        <ele>583.5</ele>
        <time>2023-01-15T18:09:01.533Z</time>
      </trkpt>
      <trkpt lat="47.17468" lon="6.50973">
        <ele>588.8</ele>
        <time>2023-01-15T18:10:03.563Z</time>
      </trkpt>
      <trkpt lat="47.17502" lon="6.51028">
        <ele>581.4</ele>
        <time>2023-01-15T18:10:18.497Z</time>
      </trkpt>
      <trkpt lat="47.17578" lon="6.51068">
        <ele>582.4</ele>
        <time>2023-01-15T18:10:41.796Z</time>
      </trkpt>
      <trkpt lat="47.17628" lon="6.51085">
        <ele>578.4</ele>
        <time>2023-01-15T18:10:56.581Z</time>
      </trkpt>
      <trkpt lat="47.17659" lon="6.51103">
        <ele>574.8</ele>
        <time>2023-01-15T18:11:05.810Z</time>
      </trkpt>
      <trkpt lat="47.17678" lon="6.51125">
        <ele>575.2</ele>
        <time>2023-01-15T18:11:12.605Z</time>
      </trkpt>
      <trkpt lat="47.17699" lon="6.51159">
        <ele>576.8</ele>
        <time>2023-01-15T18:11:21.520Z</time>
      </trkpt>
      <trkpt lat="47.17751" lon="6.51272">
        <ele>572.8</ele>
        <time>2023-01-15T18:11:49.288Z</time>
      </trkpt>
      <trkpt lat="47.17771" lon="6.51325">
        <ele>566.6</ele>
        <time>2023-01-15T18:12:01.884Z</time>
      </trkpt>
      <trkpt lat="47.17799" lon="6.51446">
        <ele>574.8</ele>
        <time>2023-01-15T18:12:28.582Z</time>
      </trkpt>
      <trkpt lat="47.17842" lon="6.51557">
        <ele>571</ele>
        <time>2023-01-15T18:12:55.360Z</time>
      </trkpt>
      <trkpt lat="47.17863" lon="6.51589">
        <ele>569</ele>
        <time>2023-01-15T18:13:04.676Z</time>
      </trkpt>
      <trkpt lat="47.17881" lon="6.51599">
        <ele>567.7</ele>
        <time>2023-01-15T18:13:10.554Z</time>
      </trkpt>
      <trkpt lat="47.17903" lon="6.51619">
        <ele>569.5</ele>
        <time>2023-01-15T18:13:18.179Z</time>
      </trkpt>
      <trkpt lat="47.17927" lon="6.51651">
        <ele>571.9</ele>
        <time>2023-01-15T18:13:28.212Z</time>
      </trkpt>
      <trkpt lat="47.17952" lon="6.51691">
        <ele>572.5</ele>
        <time>2023-01-15T18:13:39.155Z</time>
      </trkpt>
      <trkpt lat="47.17996" lon="6.51744">
        <ele>572.6</ele>
        <time>2023-01-15T18:13:56.217Z</time>
      </trkpt>
      <trkpt lat="47.18009" lon="6.51753">
        <ele>572.8</ele>
        <time>2023-01-15T18:14:00.456Z</time>
      </trkpt>
      <trkpt lat="47.18125" lon="6.51799">
        <ele>572.2</ele>
        <time>2023-01-15T18:14:32.128Z</time>
      </trkpt>
      <trkpt lat="47.18157" lon="6.51802">
        <ele>569.7</ele>
        <time>2023-01-15T18:14:39.585Z</time>
      </trkpt>
      <trkpt lat="47.18188" lon="6.51796">
        <ele>566.2</ele>
        <time>2023-01-15T18:14:46.605Z</time>
      </trkpt>
      <trkpt lat="47.18225" lon="6.51784">
        <ele>562.2</ele>
        <time>2023-01-15T18:14:55.027Z</time>
      </trkpt>
      <trkpt lat="47.18308" lon="6.51742">
        <ele>552.4</ele>
        <time>2023-01-15T18:15:13.913Z</time>
      </trkpt>
      <trkpt lat="47.18382" lon="6.51719">
        <ele>552</ele>
        <time>2023-01-15T18:15:30.472Z</time>
      </trkpt>
      <trkpt lat="47.18421" lon="6.517">
        <ele>548.7</ele>
        <time>2023-01-15T18:15:39.738Z</time>
      </trkpt>
      <trkpt lat="47.1845" lon="6.51691">
        <ele>548.6</ele>
        <time>2023-01-15T18:15:46.645Z</time>
      </trkpt>
      <trkpt lat="47.18498" lon="6.51668">
        <ele>545.1</ele>
        <time>2023-01-15T18:15:59.477Z</time>
      </trkpt>
      <trkpt lat="47.18535" lon="6.51658">
        <ele>541.4</ele>
        <time>2023-01-15T18:16:09.990Z</time>
      </trkpt>
      <trkpt lat="47.18564" lon="6.51663">
        <ele>538.8</ele>
        <time>2023-01-15T18:16:18.947Z</time>
      </trkpt>
      <trkpt lat="47.18618" lon="6.51713">
        <ele>539.1</ele>
        <time>2023-01-15T18:16:38.192Z</time>
      </trkpt>
      <trkpt lat="47.18671" lon="6.51804">
        <ele>539</ele>
        <time>2023-01-15T18:17:03.132Z</time>
      </trkpt>
      <trkpt lat="47.18681" lon="6.5183">
        <ele>538.2</ele>
        <time>2023-01-15T18:17:09.523Z</time>
      </trkpt>
      <trkpt lat="47.18684" lon="6.51857">
        <ele>537.1</ele>
        <time>2023-01-15T18:17:15.500Z</time>
      </trkpt>
      <trkpt lat="47.1868" lon="6.5191">
        <ele>538.9</ele>
        <time>2023-01-15T18:17:26.987Z</time>
      </trkpt>
      <trkpt lat="47.1868" lon="6.51935">
        <ele>540.3</ele>
        <time>2023-01-15T18:17:32.377Z</time>
      </trkpt>
      <trkpt lat="47.18702" lon="6.52003">
        <ele>535.6</ele>
        <time>2023-01-15T18:17:48.387Z</time>
      </trkpt>
      <trkpt lat="47.18709" lon="6.52038">
        <ele>536.3</ele>
        <time>2023-01-15T18:17:56.081Z</time>
      </trkpt>
      <trkpt lat="47.18712" lon="6.52089">
        <ele>536.9</ele>
        <time>2023-01-15T18:18:06.846Z</time>
      </trkpt>
      <trkpt lat="47.18712" lon="6.52188">
        <ele>540</ele>
        <time>2023-01-15T18:18:28.008Z</time>
      </trkpt>
      <trkpt lat="47.18706" lon="6.52256">
        <ele>540.5</ele>
        <time>2023-01-15T18:18:42.256Z</time>
      </trkpt>
      <trkpt lat="47.18686" lon="6.52335">
        <ele>545.3</ele>
        <time>2023-01-15T18:18:59.699Z</time>
      </trkpt>
      <trkpt lat="47.18677" lon="6.52576">
        <ele>554.8</ele>
        <time>2023-01-15T18:19:48.964Z</time>
      </trkpt>
      <trkpt lat="47.18681" lon="6.52606">
        <ele>552.1</ele>
        <time>2023-01-15T18:19:55.296Z</time>
      </trkpt>
      <trkpt lat="47.18662" lon="6.52645">
        <ele>553.3</ele>
        <time>2023-01-15T18:20:05.388Z</time>
      </trkpt>
      <trkpt lat="47.18665" lon="6.52688">
        <ele>548.5</ele>
        <time>2023-01-15T18:20:14.631Z</time>
      </trkpt>
      <trkpt lat="47.1868" lon="6.52724">
        <ele>545.7</ele>
        <time>2023-01-15T18:20:23.591Z</time>
      </trkpt>
      <trkpt lat="47.18682" lon="6.52776">
        <ele>548.4</ele>
        <time>2023-01-15T18:20:34.882Z</time>
      </trkpt>
      <trkpt lat="47.1868" lon="6.5284">
        <ele>548.1</ele>
        <time>2023-01-15T18:20:48.726Z</time>
      </trkpt>
      <trkpt lat="47.18684" lon="6.52887">
        <ele>546</ele>
        <time>2023-01-15T18:20:58.658Z</time>
      </trkpt>
      <trkpt lat="47.18727" lon="6.53006">
        <ele>540.3</ele>
        <time>2023-01-15T18:21:26.223Z</time>
      </trkpt>
      <trkpt lat="47.18774" lon="6.53114">
        <ele>542.5</ele>
        <time>2023-01-15T18:21:49.090Z</time>
      </trkpt>
      <trkpt lat="47.18835" lon="6.53233">
        <ele>540.8</ele>
        <time>2023-01-15T18:22:14.857Z</time>
      </trkpt>
      <trkpt lat="47.18853" lon="6.53293">
        <ele>541.5</ele>
        <time>2023-01-15T18:22:27.087Z</time>
      </trkpt>
      <trkpt lat="47.18855" lon="6.53349">
        <ele>541.1</ele>
        <time>2023-01-15T18:22:38.303Z</time>
      </trkpt>
      <trkpt lat="47.18843" lon="6.53416">
        <ele>543.1</ele>
        <time>2023-01-15T18:22:52.481Z</time>
      </trkpt>
      <trkpt lat="47.18847" lon="6.53461">
        <ele>545.9</ele>
        <time>2023-01-15T18:23:01.972Z</time>
      </trkpt>
      <trkpt lat="47.1887" lon="6.53521">
        <ele>543.6</ele>
        <time>2023-01-15T18:23:16.545Z</time>
      </trkpt>
      <trkpt lat="47.18874" lon="6.53566">
        <ele>546.5</ele>
        <time>2023-01-15T18:23:26.164Z</time>
      </trkpt>
      <trkpt lat="47.18869" lon="6.53619">
        <ele>553.9</ele>
        <time>2023-01-15T18:23:37.213Z</time>
      </trkpt>
      <trkpt lat="47.18886" lon="6.53677">
        <ele>541.6</ele>
        <time>2023-01-15T18:23:50.203Z</time>
      </trkpt>
      <trkpt lat="47.18892" lon="6.53767">
        <ele>534.8</ele>
        <time>2023-01-15T18:24:08.458Z</time>
      </trkpt>
      <trkpt lat="47.18909" lon="6.53787">
        <ele>536</ele>
        <time>2023-01-15T18:24:14.923Z</time>
      </trkpt>
      <trkpt lat="47.18938" lon="6.53802">
        <ele>535.3</ele>
        <time>2023-01-15T18:24:23.954Z</time>
      </trkpt>
      <trkpt lat="47.18992" lon="6.53838">
        <ele>532.5</ele>
        <time>2023-01-15T18:24:41.211Z</time>
      </trkpt>
      <trkpt lat="47.19059" lon="6.53889">
        <ele>537.7</ele>
        <time>2023-01-15T18:25:03.741Z</time>
      </trkpt>
      <trkpt lat="47.19141" lon="6.53911">
        <ele>527.2</ele>
        <time>2023-01-15T18:25:28.969Z</time>
      </trkpt>
      <trkpt lat="47.19188" lon="6.5395">
        <ele>533.5</ele>
        <time>2023-01-15T18:25:45.289Z</time>
      </trkpt>
      <trkpt lat="47.19224" lon="6.53999">
        <ele>544.2</ele>
        <time>2023-01-15T18:25:59.886Z</time>
      </trkpt>
      <trkpt lat="47.19253" lon="6.54008">
        <ele>539.7</ele>
        <time>2023-01-15T18:26:08.163Z</time>
      </trkpt>
      <trkpt lat="47.19309" lon="6.54018">
        <ele>530</ele>
        <time>2023-01-15T18:26:23.550Z</time>
      </trkpt>
      <trkpt lat="47.19378" lon="6.54052">
        <ele>528</ele>
        <time>2023-01-15T18:26:43.860Z</time>
      </trkpt>
      <trkpt lat="47.19416" lon="6.54079">
        <ele>528.9</ele>
        <time>2023-01-15T18:26:56.203Z</time>
      </trkpt>
      <trkpt lat="47.19452" lon="6.54147">
        <ele>534.6</ele>
        <time>2023-01-15T18:27:13.836Z</time>
      </trkpt>
      <trkpt lat="47.19475" lon="6.54179">
        <ele>532.1</ele>
        <time>2023-01-15T18:27:23.664Z</time>
      </trkpt>
      <trkpt lat="47.1948" lon="6.54185">
        <ele>532.5</ele>
        <time>2023-01-15T18:27:25.778Z</time>
      </trkpt>
      <trkpt lat="47.19497" lon="6.54227">
        <ele>539.9</ele>
        <time>2023-01-15T18:27:36.005Z</time>
      </trkpt>
      <trkpt lat="47.19549" lon="6.54303">
        <ele>539.8</ele>
        <time>2023-01-15T18:27:59.073Z</time>
      </trkpt>
      <trkpt lat="47.19653" lon="6.5438">
        <ele>530.7</ele>
        <time>2023-01-15T18:28:36.017Z</time>
      </trkpt>
      <trkpt lat="47.19682" lon="6.54409">
        <ele>527.8</ele>
        <time>2023-01-15T18:28:48.452Z</time>
      </trkpt>
      <trkpt lat="47.19707" lon="6.54427">
        <ele>522.7</ele>
        <time>2023-01-15T18:28:58.504Z</time>
      </trkpt>
      <trkpt lat="47.19721" lon="6.54475">
        <ele>521.2</ele>
        <time>2023-01-15T18:29:12.106Z</time>
      </trkpt>
      <trkpt lat="47.19732" lon="6.54505">
        <ele>522.6</ele>
        <time>2023-01-15T18:29:21.063Z</time>
      </trkpt>
      <trkpt lat="47.19726" lon="6.54508">
        <ele>523.4</ele>
        <time>2023-01-15T18:29:23.343Z</time>
      </trkpt>
      <trkpt lat="47.19705" lon="6.54477">
        <ele>532.1</ele>
        <time>2023-01-15T18:29:36.538Z</time>
      </trkpt>
      <trkpt lat="47.19644" lon="6.54423">
        <ele>553</ele>
        <time>2023-01-15T18:30:14.857Z</time>
      </trkpt>
      <trkpt lat="47.19589" lon="6.54405">
        <ele>569.5</ele>
        <time>2023-01-15T18:30:47.065Z</time>
      </trkpt>
      <trkpt lat="47.1954" lon="6.54384">
        <ele>580.1</ele>
        <time>2023-01-15T18:31:12.549Z</time>
      </trkpt>
      <trkpt lat="47.1959" lon="6.54452">
        <ele>585.7</ele>
        <time>2023-01-15T18:31:43.210Z</time>
      </trkpt>
      <trkpt lat="47.19635" lon="6.54544">
        <ele>589.6</ele>
        <time>2023-01-15T18:32:14.959Z</time>
      </trkpt>
      <trkpt lat="47.19642" lon="6.54643">
        <ele>593.8</ele>
        <time>2023-01-15T18:32:36.971Z</time>
      </trkpt>
      <trkpt lat="47.19597" lon="6.54752">
        <ele>585.9</ele>
        <time>2023-01-15T18:33:04.587Z</time>
      </trkpt>
      <trkpt lat="47.19598" lon="6.54776">
        <ele>588</ele>
        <time>2023-01-15T18:33:09.802Z</time>
      </trkpt>
      <trkpt lat="47.1961" lon="6.54795">
        <ele>590.9</ele>
        <time>2023-01-15T18:33:15.440Z</time>
      </trkpt>
      <trkpt lat="47.19687" lon="6.54849">
        <ele>593.7</ele>
        <time>2023-01-15T18:33:42.657Z</time>
      </trkpt>
      <trkpt lat="47.19767" lon="6.54952">
        <ele>605</ele>
        <time>2023-01-15T18:34:16.567Z</time>
      </trkpt>
      <trkpt lat="47.19804" lon="6.55053">
        <ele>617</ele>
        <time>2023-01-15T18:34:41.739Z</time>
      </trkpt>
      <trkpt lat="47.19817" lon="6.5513">
        <ele>614.9</ele>
        <time>2023-01-15T18:34:58.966Z</time>
      </trkpt>
      <trkpt lat="47.19782" lon="6.55323">
        <ele>619.4</ele>
        <time>2023-01-15T18:35:37.626Z</time>
      </trkpt>
      <trkpt lat="47.19749" lon="6.5539">
        <ele>620.4</ele>
        <time>2023-01-15T18:35:50.506Z</time>
      </trkpt>
      <trkpt lat="47.19742" lon="6.55427">
        <ele>616.6</ele>
        <time>2023-01-15T18:35:56.241Z</time>
      </trkpt>
      <trkpt lat="47.1974" lon="6.55439">
        <ele>615.9</ele>
        <time>2023-01-15T18:35:58.099Z</time>
      </trkpt>
      <trkpt lat="47.19753" lon="6.55538">
        <ele>605.8</ele>
        <time>2023-01-15T18:36:12.735Z</time>
      </trkpt>
      <trkpt lat="47.19751" lon="6.55574">
        <ele>603.2</ele>
        <time>2023-01-15T18:36:17.988Z</time>
      </trkpt>
      <trkpt lat="47.1973" lon="6.55675">
        <ele>595.5</ele>
        <time>2023-01-15T18:36:33.459Z</time>
      </trkpt>
      <trkpt lat="47.19698" lon="6.55696">
        <ele>594.1</ele>
        <time>2023-01-15T18:36:41.257Z</time>
      </trkpt>
      <trkpt lat="47.19649" lon="6.55688">
        <ele>598.6</ele>
        <time>2023-01-15T18:36:52.438Z</time>
      </trkpt>
      <trkpt lat="47.19553" lon="6.55662">
        <ele>596.9</ele>
        <time>2023-01-15T18:37:20.729Z</time>
      </trkpt>
      <trkpt lat="47.19521" lon="6.55675">
        <ele>587.9</ele>
        <time>2023-01-15T18:37:34.391Z</time>
      </trkpt>
      <trkpt lat="47.19494" lon="6.55669">
        <ele>588.9</ele>
        <time>2023-01-15T18:37:42.628Z</time>
      </trkpt>
      <trkpt lat="47.19427" lon="6.55663">
        <ele>587.9</ele>
        <time>2023-01-15T18:38:07.343Z</time>
      </trkpt>
      <trkpt lat="47.19394" lon="6.55648">
        <ele>592.1</ele>
        <time>2023-01-15T18:38:29.431Z</time>
      </trkpt>
      <trkpt lat="47.19379" lon="6.55642">
        <ele>594</ele>
        <time>2023-01-15T18:38:39.351Z</time>
      </trkpt>
      <trkpt lat="47.19333" lon="6.55642">
        <ele>595.4</ele>
        <time>2023-01-15T18:39:07.755Z</time>
      </trkpt>
      <trkpt lat="47.19309" lon="6.55638">
        <ele>599.1</ele>
        <time>2023-01-15T18:39:24.964Z</time>
      </trkpt>
      <trkpt lat="47.19269" lon="6.55669">
        <ele>600.7</ele>
        <time>2023-01-15T18:39:50.335Z</time>
      </trkpt>
      <trkpt lat="47.19255" lon="6.55665">
        <ele>603.3</ele>
        <time>2023-01-15T18:40:00.560Z</time>
      </trkpt>
      <trkpt lat="47.19256" lon="6.55697">
        <ele>611.9</ele>
        <time>2023-01-15T18:40:11.718Z</time>
      </trkpt>
      <trkpt lat="47.19279" lon="6.55708">
        <ele>613.2</ele>
        <time>2023-01-15T18:40:25.581Z</time>
      </trkpt>
      <trkpt lat="47.19308" lon="6.55741">
        <ele>621.5</ele>
        <time>2023-01-15T18:40:43.163Z</time>
      </trkpt>
      <trkpt lat="47.19317" lon="6.55757">
        <ele>625.1</ele>
        <time>2023-01-15T18:40:47.892Z</time>
      </trkpt>
      <trkpt lat="47.19337" lon="6.55794">
        <ele>631.4</ele>
        <time>2023-01-15T18:41:03.383Z</time>
      </trkpt>
      <trkpt lat="47.19364" lon="6.55856">
        <ele>636.2</ele>
        <time>2023-01-15T18:41:22.563Z</time>
      </trkpt>
      <trkpt lat="47.19369" lon="6.55914">
        <ele>639.6</ele>
        <time>2023-01-15T18:41:34.666Z</time>
      </trkpt>
      <trkpt lat="47.194" lon="6.55964">
        <ele>637.2</ele>
        <time>2023-01-15T18:41:48.749Z</time>
      </trkpt>
      <trkpt lat="47.19481" lon="6.56034">
        <ele>636.2</ele>
        <time>2023-01-15T18:42:17.005Z</time>
      </trkpt>
      <trkpt lat="47.19569" lon="6.56086">
        <ele>629.8</ele>
        <time>2023-01-15T18:42:46.173Z</time>
      </trkpt>
      <trkpt lat="47.19592" lon="6.56111">
        <ele>629.3</ele>
        <time>2023-01-15T18:42:55.664Z</time>
      </trkpt>
      <trkpt lat="47.19613" lon="6.56133">
        <ele>626.4</ele>
        <time>2023-01-15T18:43:05.384Z</time>
      </trkpt>
      <trkpt lat="47.19607" lon="6.56222">
        <ele>639.2</ele>
        <time>2023-01-15T18:43:32.250Z</time>
      </trkpt>
      <trkpt lat="47.19587" lon="6.56258">
        <ele>653.4</ele>
        <time>2023-01-15T18:43:48.947Z</time>
      </trkpt>
      <trkpt lat="47.19509" lon="6.56317">
        <ele>684.4</ele>
        <time>2023-01-15T18:44:39.523Z</time>
      </trkpt>
      <trkpt lat="47.19508" lon="6.56356">
        <ele>685.3</ele>
        <time>2023-01-15T18:44:56.886Z</time>
      </trkpt>
      <trkpt lat="47.1949" lon="6.56419">
        <ele>687.3</ele>
        <time>2023-01-15T18:45:30.068Z</time>
      </trkpt>
      <trkpt lat="47.19487" lon="6.56465">
        <ele>682</ele>
        <time>2023-01-15T18:45:51.009Z</time>
      </trkpt>
      <trkpt lat="47.19466" lon="6.56514">
        <ele>688.7</ele>
        <time>2023-01-15T18:46:16.917Z</time>
      </trkpt>
      <trkpt lat="47.19441" lon="6.56553">
        <ele>701</ele>
        <time>2023-01-15T18:46:40.910Z</time>
      </trkpt>
      <trkpt lat="47.1944" lon="6.56618">
        <ele>706.2</ele>
        <time>2023-01-15T18:47:09.926Z</time>
      </trkpt>
      <trkpt lat="47.19427" lon="6.56684">
        <ele>714.5</ele>
        <time>2023-01-15T18:47:38.115Z</time>
      </trkpt>
      <trkpt lat="47.19379" lon="6.56756">
        <ele>731.2</ele>
        <time>2023-01-15T18:48:17.580Z</time>
      </trkpt>
      <trkpt lat="47.19377" lon="6.56823">
        <ele>731.9</ele>
        <time>2023-01-15T18:48:37.245Z</time>
      </trkpt>
      <trkpt lat="47.19379" lon="6.56861">
        <ele>730.5</ele>
        <time>2023-01-15T18:48:47.286Z</time>
      </trkpt>
      <trkpt lat="47.19364" lon="6.56945">
        <ele>736.1</ele>
        <time>2023-01-15T18:49:08.353Z</time>
      </trkpt>
      <trkpt lat="47.19374" lon="6.57011">
        <ele>724</ele>
        <time>2023-01-15T18:49:23.680Z</time>
      </trkpt>
      <trkpt lat="47.19358" lon="6.57149">
        <ele>718</ele>
        <time>2023-01-15T18:49:53.411Z</time>
      </trkpt>
      <trkpt lat="47.19344" lon="6.57169">
        <ele>723.7</ele>
        <time>2023-01-15T18:49:59.986Z</time>
      </trkpt>
      <trkpt lat="47.19331" lon="6.57222">
        <ele>727.9</ele>
        <time>2023-01-15T18:50:12.326Z</time>
      </trkpt>
      <trkpt lat="47.19302" lon="6.57328">
        <ele>736.8</ele>
        <time>2023-01-15T18:50:42.209Z</time>
      </trkpt>
      <trkpt lat="47.19288" lon="6.57402">
        <ele>742.8</ele>
        <time>2023-01-15T18:51:03.915Z</time>
      </trkpt>
      <trkpt lat="47.19287" lon="6.57428">
        <ele>746.1</ele>
        <time>2023-01-15T18:51:11.374Z</time>
      </trkpt>
      <trkpt lat="47.19272" lon="6.57382">
        <ele>748.8</ele>
        <time>2023-01-15T18:51:25.289Z</time>
      </trkpt>
      <trkpt lat="47.19273" lon="6.57315">
        <ele>752.2</ele>
        <time>2023-01-15T18:51:43.564Z</time>
      </trkpt>
      <trkpt lat="47.1928" lon="6.57235">
        <ele>751.8</ele>
        <time>2023-01-15T18:52:05.089Z</time>
      </trkpt>
      <trkpt lat="47.19284" lon="6.57198">
        <ele>754.2</ele>
        <time>2023-01-15T18:52:14.760Z</time>
      </trkpt>
      <trkpt lat="47.19294" lon="6.57144">
        <ele>760.1</ele>
        <time>2023-01-15T18:52:27.330Z</time>
      </trkpt>
      <trkpt lat="47.19319" lon="6.5707">
        <ele>754</ele>
        <time>2023-01-15T18:52:44.754Z</time>
      </trkpt>
      <trkpt lat="47.19311" lon="6.56978">
        <ele>764.2</ele>
        <time>2023-01-15T18:53:02.825Z</time>
      </trkpt>
      <trkpt lat="47.19311" lon="6.56896">
        <ele>760</ele>
        <time>2023-01-15T18:53:17.312Z</time>
      </trkpt>
      <trkpt lat="47.19305" lon="6.56848">
        <ele>755.7</ele>
        <time>2023-01-15T18:53:26.059Z</time>
      </trkpt>
      <trkpt lat="47.19253" lon="6.5673">
        <ele>758.1</ele>
        <time>2023-01-15T18:53:51.669Z</time>
      </trkpt>
      <trkpt lat="47.1915" lon="6.56581">
        <ele>761.9</ele>
        <time>2023-01-15T18:54:34.784Z</time>
      </trkpt>
      <trkpt lat="47.19142" lon="6.56561">
        <ele>762.5</ele>
        <time>2023-01-15T18:54:39.571Z</time>
      </trkpt>
      <trkpt lat="47.19126" lon="6.56466">
        <ele>764</ele>
        <time>2023-01-15T18:55:00.494Z</time>
      </trkpt>
      <trkpt lat="47.19117" lon="6.56443">
        <ele>764.6</ele>
        <time>2023-01-15T18:55:06.033Z</time>
      </trkpt>
      <trkpt lat="47.19033" lon="6.56269">
        <ele>766.7</ele>
        <time>2023-01-15T18:55:54.016Z</time>
      </trkpt>
      <trkpt lat="47.19059" lon="6.56355">
        <ele>769.8</ele>
        <time>2023-01-15T18:56:23.215Z</time>
      </trkpt>
      <trkpt lat="47.19062" lon="6.5638">
        <ele>770.6</ele>
        <time>2023-01-15T18:56:34.661Z</time>
      </trkpt>
      <trkpt lat="47.19064" lon="6.56514">
        <ele>780.3</ele>
        <time>2023-01-15T18:57:20.155Z</time>
      </trkpt>
      <trkpt lat="47.1906" lon="6.56521">
        <ele>781.7</ele>
        <time>2023-01-15T18:57:25.569Z</time>
      </trkpt>
      <trkpt lat="47.19052" lon="6.56595">
        <ele>788.9</ele>
        <time>2023-01-15T18:57:49.747Z</time>
      </trkpt>
      <trkpt lat="47.1904" lon="6.56653">
        <ele>797.3</ele>
        <time>2023-01-15T18:58:13.384Z</time>
      </trkpt>
      <trkpt lat="47.19029" lon="6.56663">
        <ele>802</ele>
        <time>2023-01-15T18:58:21.346Z</time>
      </trkpt>
      <trkpt lat="47.19019" lon="6.5666">
        <ele>806.1</ele>
        <time>2023-01-15T18:58:29.330Z</time>
      </trkpt>
      <trkpt lat="47.18971" lon="6.56576">
        <ele>814.9</ele>
        <time>2023-01-15T18:59:13.724Z</time>
      </trkpt>
      <trkpt lat="47.18915" lon="6.56499">
        <ele>831.6</ele>
        <time>2023-01-15T19:00:01.061Z</time>
      </trkpt>
      <trkpt lat="47.18836" lon="6.56371">
        <ele>838.9</ele>
        <time>2023-01-15T19:01:22.576Z</time>
      </trkpt>
      <trkpt lat="47.18794" lon="6.56323">
        <ele>848.2</ele>
        <time>2023-01-15T19:01:57.461Z</time>
      </trkpt>
      <trkpt lat="47.18781" lon="6.56296">
        <ele>851.4</ele>
        <time>2023-01-15T19:02:11.893Z</time>
      </trkpt>
      <trkpt lat="47.18738" lon="6.56169">
        <ele>861.5</ele>
        <time>2023-01-15T19:03:07.468Z</time>
      </trkpt>
      <trkpt lat="47.18667" lon="6.5603">
        <ele>870.3</ele>
        <time>2023-01-15T19:04:07.367Z</time>
      </trkpt>
      <trkpt lat="47.18626" lon="6.55943">
        <ele>879.1</ele>
        <time>2023-01-15T19:04:40.589Z</time>
      </trkpt>
      <trkpt lat="47.18618" lon="6.55929">
        <ele>880.9</ele>
        <time>2023-01-15T19:04:46.761Z</time>
      </trkpt>
      <trkpt lat="47.18565" lon="6.55842">
        <ele>890.9</ele>
        <time>2023-01-15T19:05:22.989Z</time>
      </trkpt>
      <trkpt lat="47.18483" lon="6.55738">
        <ele>901.6</ele>
        <time>2023-01-15T19:06:08.313Z</time>
      </trkpt>
      <trkpt lat="47.18438" lon="6.55718">
        <ele>908.8</ele>
        <time>2023-01-15T19:06:26.583Z</time>
      </trkpt>
      <trkpt lat="47.18422" lon="6.55721">
        <ele>912.7</ele>
        <time>2023-01-15T19:06:32.738Z</time>
      </trkpt>
      <trkpt lat="47.18418" lon="6.55737">
        <ele>915.3</ele>
        <time>2023-01-15T19:06:37.287Z</time>
      </trkpt>
      <trkpt lat="47.18425" lon="6.55776">
        <ele>918.3</ele>
        <time>2023-01-15T19:06:47.936Z</time>
      </trkpt>
      <trkpt lat="47.18449" lon="6.55873">
        <ele>922.5</ele>
        <time>2023-01-15T19:07:13.793Z</time>
      </trkpt>
      <trkpt lat="47.18458" lon="6.56004">
        <ele>938.3</ele>
        <time>2023-01-15T19:07:43.027Z</time>
      </trkpt>
      <trkpt lat="47.18457" lon="6.56036">
        <ele>938.9</ele>
        <time>2023-01-15T19:07:50.043Z</time>
      </trkpt>
      <trkpt lat="47.18426" lon="6.55926">
        <ele>935</ele>
        <time>2023-01-15T19:08:15.390Z</time>
      </trkpt>
      <trkpt lat="47.18395" lon="6.55847">
        <ele>930.7</ele>
        <time>2023-01-15T19:08:34.200Z</time>
      </trkpt>
      <trkpt lat="47.18306" lon="6.55692">
        <ele>925.7</ele>
        <time>2023-01-15T19:09:11.789Z</time>
      </trkpt>
      <trkpt lat="47.18287" lon="6.55629">
        <ele>921.4</ele>
        <time>2023-01-15T19:09:23.835Z</time>
      </trkpt>
      <trkpt lat="47.18285" lon="6.55503">
        <ele>917.3</ele>
        <time>2023-01-15T19:09:44.664Z</time>
      </trkpt>
      <trkpt lat="47.18249" lon="6.55301">
        <ele>905.8</ele>
        <time>2023-01-15T19:10:18.158Z</time>
      </trkpt>
      <trkpt lat="47.18256" lon="6.55125">
        <ele>894.8</ele>
        <time>2023-01-15T19:10:50.297Z</time>
      </trkpt>
      <trkpt lat="47.1827" lon="6.55109">
        <ele>892.5</ele>
        <time>2023-01-15T19:10:55.164Z</time>
      </trkpt>
      <trkpt lat="47.18251" lon="6.55086">
        <ele>895.8</ele>
        <time>2023-01-15T19:11:03.184Z</time>
      </trkpt>
      <trkpt lat="47.18204" lon="6.55041">
        <ele>902.8</ele>
        <time>2023-01-15T19:11:18.642Z</time>
      </trkpt>
      <trkpt lat="47.18131" lon="6.54998">
        <ele>915.5</ele>
        <time>2023-01-15T19:11:44.794Z</time>
      </trkpt>
      <trkpt lat="47.18079" lon="6.54922">
        <ele>921.1</ele>
        <time>2023-01-15T19:12:13.786Z</time>
      </trkpt>
      <trkpt lat="47.17995" lon="6.54837">
        <ele>931.2</ele>
        <time>2023-01-15T19:12:51.771Z</time>
      </trkpt>
      <trkpt lat="47.17894" lon="6.54705">
        <ele>939.3</ele>
        <time>2023-01-15T19:13:31.410Z</time>
      </trkpt>
      <trkpt lat="47.17841" lon="6.54623">
        <ele>941.4</ele>
        <time>2023-01-15T19:13:50.615Z</time>
      </trkpt>
      <trkpt lat="47.17786" lon="6.54515">
        <ele>940.8</ele>
        <time>2023-01-15T19:14:11.606Z</time>
      </trkpt>
      <trkpt lat="47.17754" lon="6.54475">
        <ele>941.6</ele>
        <time>2023-01-15T19:14:20.719Z</time>
      </trkpt>
      <trkpt lat="47.17699" lon="6.54406">
        <ele>943.2</ele>
        <time>2023-01-15T19:14:37.172Z</time>
      </trkpt>
      <trkpt lat="47.17604" lon="6.54272">
        <ele>940.9</ele>
        <time>2023-01-15T19:15:05.741Z</time>
      </trkpt>
      <trkpt lat="47.17567" lon="6.54229">
        <ele>939.8</ele>
        <time>2023-01-15T19:15:13.809Z</time>
      </trkpt>
      <trkpt lat="47.17504" lon="6.54111">
        <ele>938.6</ele>
        <time>2023-01-15T19:15:28.375Z</time>
      </trkpt>
      <trkpt lat="47.17401" lon="6.53964">
        <ele>935.4</ele>
        <time>2023-01-15T19:15:47.983Z</time>
      </trkpt>
      <trkpt lat="47.17317" lon="6.53829">
        <ele>928.9</ele>
        <time>2023-01-15T19:16:06.445Z</time>
      </trkpt>
      <trkpt lat="47.17233" lon="6.53728">
        <ele>929.5</ele>
        <time>2023-01-15T19:16:29.113Z</time>
      </trkpt>
      <trkpt lat="47.17176" lon="6.53687">
        <ele>932.5</ele>
        <time>2023-01-15T19:16:43.549Z</time>
      </trkpt>
      <trkpt lat="47.17083" lon="6.53637">
        <ele>936.9</ele>
        <time>2023-01-15T19:17:06.304Z</time>
      </trkpt>
      <trkpt lat="47.17024" lon="6.53593">
        <ele>937.3</ele>
        <time>2023-01-15T19:17:20.617Z</time>
      </trkpt>
      <trkpt lat="47.16978" lon="6.53578">
        <ele>939</ele>
        <time>2023-01-15T19:17:29.665Z</time>
      </trkpt>
      <trkpt lat="47.16941" lon="6.53559">
        <ele>940.9</ele>
        <time>2023-01-15T19:17:36.595Z</time>
      </trkpt>
      <trkpt lat="47.16862" lon="6.53487">
        <ele>941.9</ele>
        <time>2023-01-15T19:17:52.293Z</time>
      </trkpt>
      <trkpt lat="47.1682" lon="6.53458">
        <ele>944.4</ele>
        <time>2023-01-15T19:18:00.145Z</time>
      </trkpt>
      <trkpt lat="47.1661" lon="6.53241">
        <ele>945.2</ele>
        <time>2023-01-15T19:18:46.023Z</time>
      </trkpt>
      <trkpt lat="47.1655" lon="6.53201">
        <ele>948.5</ele>
        <time>2023-01-15T19:18:58.038Z</time>
      </trkpt>
      <trkpt lat="47.16532" lon="6.53183">
        <ele>948.8</ele>
        <time>2023-01-15T19:19:01.787Z</time>
      </trkpt>
      <trkpt lat="47.16515" lon="6.53154">
        <ele>947.4</ele>
        <time>2023-01-15T19:19:06.087Z</time>
      </trkpt>
      <trkpt lat="47.16449" lon="6.53059">
        <ele>946</ele>
        <time>2023-01-15T19:19:19.720Z</time>
      </trkpt>
      <trkpt lat="47.16429" lon="6.53018">
        <ele>944.8</ele>
        <time>2023-01-15T19:19:24.376Z</time>
      </trkpt>
      <trkpt lat="47.16358" lon="6.52897">
        <ele>938.8</ele>
        <time>2023-01-15T19:19:38.284Z</time>
      </trkpt>
      <trkpt lat="47.16263" lon="6.52706">
        <ele>923.8</ele>
        <time>2023-01-15T19:19:59.402Z</time>
      </trkpt>
      <trkpt lat="47.16251" lon="6.52679">
        <ele>922.8</ele>
        <time>2023-01-15T19:20:02.984Z</time>
      </trkpt>
      <trkpt lat="47.16236" lon="6.52629">
        <ele>920.3</ele>
        <time>2023-01-15T19:20:10.850Z</time>
      </trkpt>
      <trkpt lat="47.16223" lon="6.52607">
        <ele>919.8</ele>
        <time>2023-01-15T19:20:15.239Z</time>
      </trkpt>
      <trkpt lat="47.16209" lon="6.52608">
        <ele>920.8</ele>
        <time>2023-01-15T19:20:18.574Z</time>
      </trkpt>
      <trkpt lat="47.162" lon="6.52625">
        <ele>922.6</ele>
        <time>2023-01-15T19:20:22.838Z</time>
      </trkpt>
      <trkpt lat="47.16188" lon="6.52635">
        <ele>924.4</ele>
        <time>2023-01-15T19:20:26.137Z</time>
      </trkpt>
      <trkpt lat="47.16166" lon="6.52632">
        <ele>926.4</ele>
        <time>2023-01-15T19:20:32.555Z</time>
      </trkpt>
      <trkpt lat="47.16143" lon="6.52617">
        <ele>928.8</ele>
        <time>2023-01-15T19:20:39.084Z</time>
      </trkpt>
      <trkpt lat="47.16088" lon="6.52546">
        <ele>931.2</ele>
        <time>2023-01-15T19:21:00.405Z</time>
      </trkpt>
      <trkpt lat="47.16072" lon="6.5254">
        <ele>932.8</ele>
        <time>2023-01-15T19:21:05.307Z</time>
      </trkpt>
      <trkpt lat="47.16042" lon="6.52546">
        <ele>937</ele>
        <time>2023-01-15T19:21:12.474Z</time>
      </trkpt>
      <trkpt lat="47.16031" lon="6.52544">
        <ele>938.3</ele>
        <time>2023-01-15T19:21:14.949Z</time>
      </trkpt>
      <trkpt lat="47.16017" lon="6.52531">
        <ele>939.8</ele>
        <time>2023-01-15T19:21:18.651Z</time>
      </trkpt>
      <trkpt lat="47.15971" lon="6.52475">
        <ele>942.1</ele>
        <time>2023-01-15T19:21:30.732Z</time>
      </trkpt>
      <trkpt lat="47.15964" lon="6.52471">
        <ele>942</ele>
        <time>2023-01-15T19:21:32.057Z</time>
      </trkpt>
      <trkpt lat="47.15954" lon="6.52475">
        <ele>942</ele>
        <time>2023-01-15T19:21:34.010Z</time>
      </trkpt>
      <trkpt lat="47.15949" lon="6.52494">
        <ele>942.1</ele>
        <time>2023-01-15T19:21:36.762Z</time>
      </trkpt>
      <trkpt lat="47.15932" lon="6.52653">
        <ele>943.5</ele>
        <time>2023-01-15T19:21:55.318Z</time>
      </trkpt>
      <trkpt lat="47.1593" lon="6.52687">
        <ele>943.4</ele>
        <time>2023-01-15T19:21:58.664Z</time>
      </trkpt>
      <trkpt lat="47.15937" lon="6.52769">
        <ele>943.8</ele>
        <time>2023-01-15T19:22:06.244Z</time>
      </trkpt>
      <trkpt lat="47.15936" lon="6.52794">
        <ele>943.1</ele>
        <time>2023-01-15T19:22:08.346Z</time>
      </trkpt>
      <trkpt lat="47.15933" lon="6.52812">
        <ele>942.1</ele>
        <time>2023-01-15T19:22:09.960Z</time>
      </trkpt>
      <trkpt lat="47.15905" lon="6.52883">
        <ele>937.3</ele>
        <time>2023-01-15T19:22:16.763Z</time>
      </trkpt>
      <trkpt lat="47.15747" lon="6.53099">
        <ele>916.8</ele>
        <time>2023-01-15T19:22:42.041Z</time>
      </trkpt>
      <trkpt lat="47.15729" lon="6.53137">
        <ele>914.6</ele>
        <time>2023-01-15T19:22:45.797Z</time>
      </trkpt>
      <trkpt lat="47.15722" lon="6.5316">
        <ele>912.5</ele>
        <time>2023-01-15T19:22:47.900Z</time>
      </trkpt>
      <trkpt lat="47.15711" lon="6.53173">
        <ele>910.7</ele>
        <time>2023-01-15T19:22:49.677Z</time>
      </trkpt>
      <trkpt lat="47.15706" lon="6.53174">
        <ele>910.3</ele>
        <time>2023-01-15T19:22:50.300Z</time>
      </trkpt>
      <trkpt lat="47.1569" lon="6.53165">
        <ele>909.6</ele>
        <time>2023-01-15T19:22:52.430Z</time>
      </trkpt>
      <trkpt lat="47.15669" lon="6.53136">
        <ele>908.5</ele>
        <time>2023-01-15T19:22:56.067Z</time>
      </trkpt>
      <trkpt lat="47.15657" lon="6.53133">
        <ele>907.5</ele>
        <time>2023-01-15T19:22:57.735Z</time>
      </trkpt>
      <trkpt lat="47.15625" lon="6.53145">
        <ele>904.3</ele>
        <time>2023-01-15T19:23:02.204Z</time>
      </trkpt>
      <trkpt lat="47.15608" lon="6.53211">
        <ele>899.4</ele>
        <time>2023-01-15T19:23:08.834Z</time>
      </trkpt>
      <trkpt lat="47.15584" lon="6.5335">
        <ele>893</ele>
        <time>2023-01-15T19:23:22.369Z</time>
      </trkpt>
      <trkpt lat="47.15591" lon="6.53418">
        <ele>890.2</ele>
        <time>2023-01-15T19:23:28.809Z</time>
      </trkpt>
      <trkpt lat="47.15603" lon="6.53472">
        <ele>886.4</ele>
        <time>2023-01-15T19:23:34.076Z</time>
      </trkpt>
      <trkpt lat="47.15637" lon="6.53538">
        <ele>884.1</ele>
        <time>2023-01-15T19:23:41.806Z</time>
      </trkpt>
      <trkpt lat="47.15656" lon="6.53565">
        <ele>882.3</ele>
        <time>2023-01-15T19:23:45.413Z</time>
      </trkpt>
      <trkpt lat="47.15652" lon="6.53593">
        <ele>880.6</ele>
        <time>2023-01-15T19:23:48.095Z</time>
      </trkpt>
      <trkpt lat="47.1562" lon="6.53615">
        <ele>879.2</ele>
        <time>2023-01-15T19:23:53.043Z</time>
      </trkpt>
      <trkpt lat="47.15587" lon="6.53621">
        <ele>877.8</ele>
        <time>2023-01-15T19:23:57.683Z</time>
      </trkpt>
      <trkpt lat="47.15527" lon="6.53597">
        <ele>875.4</ele>
        <time>2023-01-15T19:24:05.990Z</time>
      </trkpt>
      <trkpt lat="47.15441" lon="6.53549">
        <ele>870.9</ele>
        <time>2023-01-15T19:24:17.995Z</time>
      </trkpt>
      <trkpt lat="47.15403" lon="6.53506">
        <ele>869.2</ele>
        <time>2023-01-15T19:24:24.232Z</time>
      </trkpt>
      <trkpt lat="47.15366" lon="6.53463">
        <ele>867.3</ele>
        <time>2023-01-15T19:24:30.481Z</time>
      </trkpt>
      <trkpt lat="47.15356" lon="6.53455">
        <ele>866.4</ele>
        <time>2023-01-15T19:24:31.753Z</time>
      </trkpt>
      <trkpt lat="47.15202" lon="6.53325">
        <ele>851.7</ele>
        <time>2023-01-15T19:24:55.558Z</time>
      </trkpt>
      <trkpt lat="47.15088" lon="6.53165">
        <ele>844.6</ele>
        <time>2023-01-15T19:25:18.228Z</time>
      </trkpt>
      <trkpt lat="47.15032" lon="6.53097">
        <ele>838.9</ele>
        <time>2023-01-15T19:25:29.147Z</time>
      </trkpt>
      <trkpt lat="47.14996" lon="6.53054">
        <ele>835.2</ele>
        <time>2023-01-15T19:25:36.171Z</time>
      </trkpt>
      <trkpt lat="47.14929" lon="6.5298">
        <ele>826</ele>
        <time>2023-01-15T19:25:48.656Z</time>
      </trkpt>
      <trkpt lat="47.14907" lon="6.52939">
        <ele>827.6</ele>
        <time>2023-01-15T19:25:53.644Z</time>
      </trkpt>
      <trkpt lat="47.14878" lon="6.52905">
        <ele>828</ele>
        <time>2023-01-15T19:25:58.869Z</time>
      </trkpt>
      <trkpt lat="47.14856" lon="6.52895">
        <ele>826.9</ele>
        <time>2023-01-15T19:26:02.029Z</time>
      </trkpt>
      <trkpt lat="47.1484" lon="6.52903">
        <ele>825.2</ele>
        <time>2023-01-15T19:26:04.432Z</time>
      </trkpt>
      <trkpt lat="47.14827" lon="6.52919">
        <ele>823.3</ele>
        <time>2023-01-15T19:26:06.835Z</time>
      </trkpt>
      <trkpt lat="47.14812" lon="6.5298">
        <ele>819.5</ele>
        <time>2023-01-15T19:26:13.117Z</time>
      </trkpt>
      <trkpt lat="47.14807" lon="6.52997">
        <ele>819.9</ele>
        <time>2023-01-15T19:26:14.787Z</time>
      </trkpt>
      <trkpt lat="47.14793" lon="6.53006">
        <ele>818.7</ele>
        <time>2023-01-15T19:26:16.898Z</time>
      </trkpt>
      <trkpt lat="47.1478" lon="6.53">
        <ele>817.3</ele>
        <time>2023-01-15T19:26:18.680Z</time>
      </trkpt>
      <trkpt lat="47.14771" lon="6.52985">
        <ele>815.6</ele>
        <time>2023-01-15T19:26:20.460Z</time>
      </trkpt>
      <trkpt lat="47.14764" lon="6.52949">
        <ele>814.4</ele>
        <time>2023-01-15T19:26:23.824Z</time>
      </trkpt>
      <trkpt lat="47.14759" lon="6.52901">
        <ele>814</ele>
        <time>2023-01-15T19:26:28.273Z</time>
      </trkpt>
      <trkpt lat="47.14747" lon="6.52871">
        <ele>812.7</ele>
        <time>2023-01-15T19:26:31.585Z</time>
      </trkpt>
      <trkpt lat="47.14726" lon="6.52847">
        <ele>810.9</ele>
        <time>2023-01-15T19:26:35.389Z</time>
      </trkpt>
      <trkpt lat="47.1469" lon="6.52838">
        <ele>807.6</ele>
        <time>2023-01-15T19:26:40.820Z</time>
      </trkpt>
      <trkpt lat="47.14676" lon="6.52837">
        <ele>806.5</ele>
        <time>2023-01-15T19:26:42.818Z</time>
      </trkpt>
      <trkpt lat="47.14635" lon="6.52845">
        <ele>803.8</ele>
        <time>2023-01-15T19:26:48.919Z</time>
      </trkpt>
      <trkpt lat="47.14542" lon="6.52845">
        <ele>799.4</ele>
        <time>2023-01-15T19:27:02.166Z</time>
      </trkpt>
      <trkpt lat="47.14548" lon="6.52735">
        <ele>795.6</ele>
        <time>2023-01-15T19:27:13.093Z</time>
      </trkpt>
      <trkpt lat="47.14551" lon="6.52658">
        <ele>793.4</ele>
        <time>2023-01-15T19:27:20.614Z</time>
      </trkpt>
      <trkpt lat="47.14554" lon="6.52593">
        <ele>791.8</ele>
        <time>2023-01-15T19:27:27.162Z</time>
      </trkpt>
      <trkpt lat="47.14553" lon="6.52574">
        <ele>791.6</ele>
        <time>2023-01-15T19:27:29.120Z</time>
      </trkpt>
      <trkpt lat="47.14546" lon="6.52556">
        <ele>790.6</ele>
        <time>2023-01-15T19:27:31.198Z</time>
      </trkpt>
      <trkpt lat="47.1454" lon="6.52548">
        <ele>789.8</ele>
        <time>2023-01-15T19:27:32.633Z</time>
      </trkpt>
      <trkpt lat="47.14526" lon="6.52539">
        <ele>787.9</ele>
        <time>2023-01-15T19:27:35.170Z</time>
      </trkpt>
      <trkpt lat="47.14517" lon="6.52538">
        <ele>787.6</ele>
        <time>2023-01-15T19:27:36.635Z</time>
      </trkpt>
      <trkpt lat="47.14501" lon="6.52538">
        <ele>787</ele>
        <time>2023-01-15T19:27:39.512Z</time>
      </trkpt>
      <trkpt lat="47.14483" lon="6.5254">
        <ele>790</ele>
        <time>2023-01-15T19:27:42.568Z</time>
      </trkpt>
      <trkpt lat="47.14459" lon="6.52541">
        <ele>789.6</ele>
        <time>2023-01-15T19:27:47.150Z</time>
      </trkpt>
      <trkpt lat="47.14431" lon="6.52533">
        <ele>787.1</ele>
        <time>2023-01-15T19:27:52.623Z</time>
      </trkpt>
      <trkpt lat="47.14425" lon="6.52524">
        <ele>786.9</ele>
        <time>2023-01-15T19:27:54.307Z</time>
      </trkpt>
      <trkpt lat="47.14416" lon="6.52522">
        <ele>786.8</ele>
        <time>2023-01-15T19:27:55.809Z</time>
      </trkpt>
      <trkpt lat="47.1441" lon="6.52525">
        <ele>786.3</ele>
        <time>2023-01-15T19:27:57.187Z</time>
      </trkpt>
      <trkpt lat="47.14404" lon="6.52535">
        <ele>786.5</ele>
        <time>2023-01-15T19:27:59.197Z</time>
      </trkpt>
      <trkpt lat="47.14392" lon="6.52542">
        <ele>786.6</ele>
        <time>2023-01-15T19:28:01.705Z</time>
      </trkpt>
      <trkpt lat="47.14365" lon="6.52548">
        <ele>787.2</ele>
        <time>2023-01-15T19:28:07.302Z</time>
      </trkpt>
      <trkpt lat="47.1424" lon="6.52557">
        <ele>791.4</ele>
        <time>2023-01-15T19:28:35.379Z</time>
      </trkpt>
      <trkpt lat="47.14199" lon="6.52568">
        <ele>792.4</ele>
        <time>2023-01-15T19:28:44.246Z</time>
      </trkpt>
      <trkpt lat="47.14154" lon="6.52581">
        <ele>793</ele>
        <time>2023-01-15T19:28:53.824Z</time>
      </trkpt>
      <trkpt lat="47.14119" lon="6.52582">
        <ele>793.7</ele>
        <time>2023-01-15T19:29:00.995Z</time>
      </trkpt>
      <trkpt lat="47.13911" lon="6.5251">
        <ele>798.4</ele>
        <time>2023-01-15T19:29:37.902Z</time>
      </trkpt>
      <trkpt lat="47.13889" lon="6.52506">
        <ele>797.2</ele>
        <time>2023-01-15T19:29:41.096Z</time>
      </trkpt>
      <trkpt lat="47.13874" lon="6.52507">
        <ele>796.6</ele>
        <time>2023-01-15T19:29:43.273Z</time>
      </trkpt>
      <trkpt lat="47.13868" lon="6.52509">
        <ele>796.3</ele>
        <time>2023-01-15T19:29:44.169Z</time>
      </trkpt>
      <trkpt lat="47.13866" lon="6.5251">
        <ele>796.2</ele>
        <time>2023-01-15T19:29:44.539Z</time>
      </trkpt>
      <trkpt lat="47.13863" lon="6.52499">
        <ele>796.1</ele>
        <time>2023-01-15T19:29:45.675Z</time>
      </trkpt>
      <trkpt lat="47.13853" lon="6.52491">
        <ele>795.4</ele>
        <time>2023-01-15T19:29:47.548Z</time>
      </trkpt>
      <trkpt lat="47.13766" lon="6.52455">
        <ele>792.7</ele>
        <time>2023-01-15T19:30:01.264Z</time>
      </trkpt>
      <trkpt lat="47.13639" lon="6.524">
        <ele>787.6</ele>
        <time>2023-01-15T19:30:22.110Z</time>
      </trkpt>
      <trkpt lat="47.13588" lon="6.52384">
        <ele>784.5</ele>
        <time>2023-01-15T19:30:30.295Z</time>
      </trkpt>
      <trkpt lat="47.13572" lon="6.52388">
        <ele>784</ele>
        <time>2023-01-15T19:30:32.929Z</time>
      </trkpt>
      <trkpt lat="47.13556" lon="6.52398">
        <ele>783.7</ele>
        <time>2023-01-15T19:30:35.607Z</time>
      </trkpt>
      <trkpt lat="47.13537" lon="6.52418">
        <ele>784.3</ele>
        <time>2023-01-15T19:30:39.358Z</time>
      </trkpt>
      <trkpt lat="47.13524" lon="6.52439">
        <ele>784</ele>
        <time>2023-01-15T19:30:42.228Z</time>
      </trkpt>
      <trkpt lat="47.13504" lon="6.52469">
        <ele>783</ele>
        <time>2023-01-15T19:30:46.519Z</time>
      </trkpt>
      <trkpt lat="47.13493" lon="6.52481">
        <ele>782.5</ele>
        <time>2023-01-15T19:30:48.714Z</time>
      </trkpt>
      <trkpt lat="47.13472" lon="6.52495">
        <ele>782.8</ele>
        <time>2023-01-15T19:30:52.044Z</time>
      </trkpt>
      <trkpt lat="47.1345" lon="6.52499">
        <ele>782.1</ele>
        <time>2023-01-15T19:30:55.236Z</time>
      </trkpt>
      <trkpt lat="47.13418" lon="6.52493">
        <ele>781.3</ele>
        <time>2023-01-15T19:30:59.710Z</time>
      </trkpt>
      <trkpt lat="47.1341" lon="6.52491">
        <ele>780.9</ele>
        <time>2023-01-15T19:31:00.862Z</time>
      </trkpt>
      <trkpt lat="47.13355" lon="6.52455">
        <ele>777.9</ele>
        <time>2023-01-15T19:31:09.310Z</time>
      </trkpt>
      <trkpt lat="47.13316" lon="6.52428">
        <ele>774.7</ele>
        <time>2023-01-15T19:31:15.349Z</time>
      </trkpt>
      <trkpt lat="47.13287" lon="6.52408">
        <ele>773.3</ele>
        <time>2023-01-15T19:31:19.702Z</time>
      </trkpt>
      <trkpt lat="47.13267" lon="6.524">
        <ele>772.1</ele>
        <time>2023-01-15T19:31:22.492Z</time>
      </trkpt>
      <trkpt lat="47.1324" lon="6.52399">
        <ele>769.7</ele>
        <time>2023-01-15T19:31:26.331Z</time>
      </trkpt>
      <trkpt lat="47.13219" lon="6.52408">
        <ele>768.1</ele>
        <time>2023-01-15T19:31:29.398Z</time>
      </trkpt>
      <trkpt lat="47.13212" lon="6.52411">
        <ele>767.6</ele>
        <time>2023-01-15T19:31:30.363Z</time>
      </trkpt>
      <trkpt lat="47.13201" lon="6.52416">
        <ele>766.5</ele>
        <time>2023-01-15T19:31:32.084Z</time>
      </trkpt>
      <trkpt lat="47.13188" lon="6.52421">
        <ele>765.6</ele>
        <time>2023-01-15T19:31:33.872Z</time>
      </trkpt>
      <trkpt lat="47.13185" lon="6.52423">
        <ele>765.4</ele>
        <time>2023-01-15T19:31:34.430Z</time>
      </trkpt>
      <trkpt lat="47.13162" lon="6.52431">
        <ele>764.2</ele>
        <time>2023-01-15T19:31:37.932Z</time>
      </trkpt>
      <trkpt lat="47.13149" lon="6.52438">
        <ele>763.1</ele>
        <time>2023-01-15T19:31:39.910Z</time>
      </trkpt>
      <trkpt lat="47.13137" lon="6.52454">
        <ele>761.6</ele>
        <time>2023-01-15T19:31:42.455Z</time>
      </trkpt>
      <trkpt lat="47.13116" lon="6.52478">
        <ele>760</ele>
        <time>2023-01-15T19:31:46.415Z</time>
      </trkpt>
      <trkpt lat="47.13092" lon="6.52486">
        <ele>758.1</ele>
        <time>2023-01-15T19:31:49.979Z</time>
      </trkpt>
      <trkpt lat="47.13061" lon="6.52502">
        <ele>756.2</ele>
        <time>2023-01-15T19:31:54.966Z</time>
      </trkpt>
      <trkpt lat="47.13054" lon="6.52509">
        <ele>755.9</ele>
        <time>2023-01-15T19:31:56.203Z</time>
      </trkpt>
      <trkpt lat="47.13042" lon="6.52526">
        <ele>755.5</ele>
        <time>2023-01-15T19:31:58.846Z</time>
      </trkpt>
      <trkpt lat="47.1303" lon="6.52556">
        <ele>756</ele>
        <time>2023-01-15T19:32:02.638Z</time>
      </trkpt>
      <trkpt lat="47.13021" lon="6.52551">
        <ele>755.6</ele>
        <time>2023-01-15T19:32:03.978Z</time>
      </trkpt>
      <trkpt lat="47.13" lon="6.52535">
        <ele>754.3</ele>
        <time>2023-01-15T19:32:07.726Z</time>
      </trkpt>
      <trkpt lat="47.12997" lon="6.52533">
        <ele>754.1</ele>
        <time>2023-01-15T19:32:08.143Z</time>
      </trkpt>
      <trkpt lat="47.12979" lon="6.52521">
        <ele>753</ele>
        <time>2023-01-15T19:32:11.264Z</time>
      </trkpt>
      <trkpt lat="47.12958" lon="6.52506">
        <ele>751.7</ele>
        <time>2023-01-15T19:32:14.971Z</time>
      </trkpt>
    </trkseg>
  </trk>
</gpx>